GFSNW_sfc_dewp_000.txt.gz
Dewpoint
52 52 52 52 51 51 51 41 33 45 47 36 35 29 30 35 35 36 35 35 34 33 33 33 32 32 33 35 36 32 34 30 26 26 31 35 33 31 29 24 22 26 23 26
52 51 52 52 51 51 47 42 41 45 43 32 29 34 34 35 34 35 34 34 35 35 33 30 33 34 38 38 35 34 33 28 23 19 26 30 31 33 32 29 28 27 22 25
52 52 50 50 51 51 46 39 37 41 43 38 33 32 32 33 36 34 37 35 35 34 33 35 33 35 37 39 38 41 37 31 25 22 22 27 29 32 32 31 29 27 27 28
52 50 50 51 51 51 46 40 37 39 33 36 36 36 34 34 32 34 36 35 34 33 30 32 33 35 36 36 39 38 35 30 30 30 31 32 32 33 33 32 31 30 29 29
51 49 49 51 50 50 44 41 40 41 39 38 32 34 32 35 34 33 34 34 36 35 32 33 32 36 35 34 36 35 35 28 30 29 33 33 31 33 33 33 33 33 33 32
51 50 49 49 50 50 45 45 42 41 35 31 32 32 33 33 35 36 35 36 33 30 36 38 39 38 37 37 35 32 32 28 28 23 30 29 22 25 30 31 31 30 26 28
52 49 49 50 50 50 47 46 40 36 31 29 33 35 35 34 34 34 36 35 32 34 40 37 35 32 29 33 35 37 31 28 27 24 30 22 26 30 29 29 29 29 30 30
52 49 50 50 50 51 50 47 41 37 32 34 35 35 35 35 35 36 36 41 40 39 35 31 26 26 23 26 37 35 34 32 28 29 28 27 30 29 28 28 26 29 31 35
51 51 50 50 50 51 51 49 44 39 35 35 36 36 36 32 30 32 37 42 42 38 30 27 20 19 25 26 28 35 34 28 26 28 25 23 26 27 30 35 27 35 37 35
50 51 51 50 50 50 51 50 46 42 35 38 39 35 35 36 34 34 33 37 35 37 29 28 22 25 30 26 21 19 26 29 31 30 27 26 30 31 33 27 28 34 34 36
50 50 51 50 50 50 51 50 50 46 38 40 43 41 39 39 36 33 36 35 34 35 32 29 29 19 27 27 28 25 23 21 20 25 25 21 31 33 30 33 37 36 37 37
49 50 50 50 50 50 50 48 50 48 43 39 46 47 45 42 40 39 36 36 35 35 33 32 29 26 29 28 29 30 27 29 28 31 28 31 32 36 35 37 38 37 37 39
49 49 50 50 50 50 50 48 47 45 37 41 43 41 45 49 46 45 39 34 39 37 38 33 32 27 30 32 32 29 35 37 33 32 34 37 39 37 39 41 41 39 39 38
49 49 49 50 49 50 49 47 46 45 40 34 37 43 43 46 48 46 45 43 43 41 38 34 32 34 38 34 37 36 37 37 36 35 38 38 38 40 41 40 40 39 38 37
49 50 49 49 49 49 48 48 48 48 44 35 37 42 44 45 46 45 44 45 43 39 37 34 35 35 36 34 35 34 38 37 33 34 37 41 40 41 42 39 37 37 35 34
49 49 49 49 49 49 48 44 46 48 50 39 35 40 38 41 43 43 42 44 43 42 40 35 39 41 38 33 34 35 37 38 40 40 41 41 41 38 36 34 33 32 32 32
48 48 49 49 49 51 48 43 44 48 46 36 35 35 34 38 41 41 41 42 40 41 40 37 37 38 41 33 34 36 38 40 39 39 40 37 36 34 33 31 31 31 30 30
48 48 48 49 49 48 46 46 49 49 44 39 34 35 33 38 35 34 38 35 38 41 40 37 35 36 35 34 37 37 37 37 37 37 37 36 35 33 31 28 28 26 26 28
48 48 48 47 46 42 44 47 47 47 44 37 33 34 34 40 36 35 33 35 33 37 33 34 36 33 34 36 33 32 33 34 34 35 34 32 26 26 26 26 25 25 26 28
48 46 42 36 39 47 47 43 40 39 37 37 33 36 34 40 34 33 34 33 32 32 33 34 32 33 35 31 35 36 34 34 33 30 27 26 27 27 27 26 25 26 27 29
42 38 35 42 46 42 38 34 34 34 33 34 34 34 34 38 34 33 33 32 32 23 23 30 28 26 29 30 29 30 29 28 28 28 27 27 28 28 28 28 26 27 27 27
42 42 44 42 39 35 35 32 32 32 30 32 32 34 36 34 38 33 32 29 29 23 26 26 19 24 28 30 30 29 29 28 26 27 27 28 29 30 29 29 28 27 26 23
39 37 35 36 33 31 30 25 29 29 32 33 33 32 33 34 34 31 29 23 21 23 21 19 22 25 25 25 27 28 29 27 25 25 25 26 27 27 25 26 26 25 25 26
32 30 31 29 28 30 29 28 23 27 33 33 33 31 30 29 28 26 18 21 21 21 14 14 20 23 23 25 27 27 26 23 23 25 26 25 24 25 24 22 23 22 23 25
30 26 23 27 27 30 32 32 33 33 34 33 32 29 27 25 22 24 18 20 17 17 14 15 22 24 25 25 25 25 24 22 23 27 25 23 23 23 24 25 24 23 22 23
28 25 20 27 29 29 30 32 32 34 33 30 27 19 19 17 16 14 17 14 13 14 13 19 23 25 26 26 25 26 26 26 27 27 26 26 23 23 26 26 24 23 22 23
20 19 28 22 20 22 25 32 32 34 31 25 21 13 12 16 9 12 17 11 14 15 19 22 25 25 25 26 26 25 25 26 26 26 26 26 25 23 21 23 27 25 25 23

GFSNW_sfc_dewp_003.txt.gz
Dewpoint
52 52 52 52 51 51 47 41 40 48 49 36 36 32 31 36 35 37 36 36 35 34 35 34 33 33 33 36 36 34 35 32 27 26 31 34 32 30 29 27 23 30 29 24
52 52 50 51 51 51 47 42 42 46 45 35 34 36 35 35 35 35 35 35 37 36 34 32 35 35 40 39 37 35 34 31 24 18 26 29 31 32 31 30 31 28 29 25
52 51 50 51 51 51 45 39 40 42 42 39 35 34 35 34 36 35 37 35 37 35 34 37 35 35 39 40 39 41 38 32 27 21 20 28 29 31 32 33 32 28 29 28
51 50 50 50 50 51 45 42 39 40 36 38 37 37 35 34 33 35 36 35 34 34 32 34 35 36 36 37 40 39 37 33 32 31 31 32 31 31 32 31 32 31 30 29
50 50 50 50 50 50 44 41 41 41 38 37 35 34 36 35 35 34 35 35 37 36 33 32 33 36 35 35 36 37 36 32 34 31 32 31 31 31 32 32 33 33 33 32
50 49 50 50 50 49 45 45 43 41 35 33 34 34 34 35 36 37 36 37 35 32 36 38 39 39 39 37 36 35 36 34 32 27 30 30 27 26 31 31 32 30 28 28
51 49 50 50 50 50 47 46 40 39 34 32 34 36 35 35 36 36 37 37 35 37 41 39 36 32 32 34 37 37 33 32 32 31 31 24 27 30 30 30 30 30 29 31
51 51 50 50 50 51 49 46 41 38 34 34 34 35 36 36 37 37 37 41 40 41 38 35 31 30 27 30 36 36 35 34 31 29 28 29 29 29 29 29 26 30 33 35
50 50 50 50 49 50 51 48 44 40 36 37 36 36 36 34 34 35 40 43 42 39 35 33 28 27 26 27 29 34 34 32 34 31 28 25 30 27 31 33 28 34 35 36
50 50 50 50 49 50 51 50 47 41 37 39 38 37 37 37 36 35 35 40 38 39 34 32 32 32 30 28 25 25 30 31 30 30 29 30 31 31 32 30 33 36 36 37
49 50 50 50 49 49 51 50 49 45 38 41 43 41 38 39 38 37 38 39 38 37 34 33 33 31 32 30 29 27 27 28 27 28 27 25 30 32 35 37 39 38 38 39
49 49 49 50 49 50 50 49 49 48 44 42 48 49 46 43 40 40 38 38 37 39 35 34 33 32 29 31 31 31 30 32 31 31 31 33 32 36 39 39 39 39 39 38
49 49 49 50 50 50 50 49 48 45 39 42 44 44 46 49 46 46 41 38 40 39 39 37 34 34 33 32 32 34 34 35 35 34 37 34 37 40 42 41 40 39 39 38
49 49 49 50 49 49 49 48 46 45 40 34 39 43 44 47 49 48 46 44 43 41 40 35 34 33 38 35 37 36 37 38 36 35 37 38 39 41 42 40 41 39 38 36
49 48 49 49 49 49 49 49 49 48 46 37 38 43 44 45 46 47 46 45 44 42 37 34 35 38 37 36 35 34 39 38 37 35 38 40 40 43 42 39 37 35 32 31
48 49 49 50 49 49 49 45 48 49 49 39 36 41 40 42 44 45 45 45 44 43 41 36 40 42 40 33 33 38 38 39 40 39 40 40 39 37 36 32 30 30 30 28
48 48 49 49 48 51 48 44 45 48 47 37 35 36 37 39 41 41 41 43 43 44 42 37 38 40 41 33 34 37 38 39 38 40 39 35 34 32 31 31 28 29 28 26
48 48 48 48 48 48 47 48 48 48 44 40 34 35 35 39 36 36 39 37 40 42 41 37 37 37 37 34 38 36 34 36 37 37 37 36 32 29 28 28 28 27 25 24
48 48 49 48 46 43 45 47 48 47 44 37 34 34 34 39 37 36 35 37 34 38 34 35 37 35 34 35 33 34 34 35 34 33 28 29 30 29 29 29 28 27 25 23
48 47 43 36 40 47 47 44 41 38 38 38 34 36 35 40 35 34 35 34 33 33 34 34 33 33 33 31 35 35 34 33 32 30 28 29 28 28 29 29 29 28 26 27
43 38 35 42 46 43 39 34 34 35 33 35 34 34 35 38 34 34 33 32 32 28 28 31 30 29 30 30 30 30 30 30 30 29 29 29 29 28 29 30 30 30 29 28
43 42 44 42 40 36 34 32 32 33 32 33 33 34 36 34 38 33 32 30 29 23 28 29 25 27 30 31 30 30 30 28 25 25 25 26 26 28 29 28 28 28 28 27
41 39 35 36 33 31 31 29 30 31 33 33 33 32 34 34 35 31 29 25 25 26 25 23 25 26 24 25 28 29 30 26 26 26 26 28 27 27 26 27 27 27 27 28
33 33 31 29 29 30 26 26 27 30 33 33 33 31 31 30 29 27 23 23 24 22 19 20 23 23 23 25 28 25 24 23 24 26 27 27 26 26 26 24 25 25 26 28
28 29 27 29 27 31 32 33 33 33 34 33 31 30 29 26 24 24 22 22 19 19 19 22 25 26 26 26 24 24 25 24 24 27 28 26 25 25 26 27 27 28 26 25
28 26 24 28 27 29 32 32 32 34 32 31 29 24 25 23 22 21 18 17 15 20 21 24 24 26 27 26 26 26 26 26 27 27 27 27 26 25 27 27 27 26 25 25
22 22 26 24 24 28 30 33 33 35 32 26 23 20 20 20 17 18 19 17 20 21 23 22 25 26 26 26 26 25 26 26 27 27 28 27 27 25 25 26 28 28 28 28

GFSNW_sfc_dewp_006.txt.gz
Dewpoint
52 52 51 51 51 51 51 50 40 52 55 41 39 35 33 37 34 36 36 36 34 33 34 33 33 32 33 37 36 31 35 33 26 24 32 34 32 30 29 28 20 29 29 24
52 50 50 51 51 51 49 45 44 50 51 44 45 37 35 35 34 34 34 35 36 36 35 34 34 35 38 38 36 34 35 32 22 23 30 32 31 31 31 31 32 29 31 25
50 50 50 50 51 51 49 44 48 45 44 41 37 36 35 34 36 36 36 35 36 36 35 36 36 36 37 39 38 41 40 32 27 17 19 25 24 24 28 29 32 28 28 26
49 50 50 50 51 51 50 46 45 44 45 42 39 37 35 33 33 35 36 34 34 35 36 34 35 35 36 36 39 40 38 29 31 28 28 27 28 27 26 26 29 29 29 25
49 49 50 50 50 50 48 46 44 42 40 40 38 39 35 33 33 33 33 33 34 32 31 28 30 29 31 29 37 36 37 32 34 30 29 28 29 28 27 28 29 29 29 29
49 49 50 50 50 51 48 48 45 45 38 38 41 39 36 34 37 37 36 36 35 36 33 35 39 39 39 37 35 35 37 37 34 33 31 31 32 30 27 27 30 29 28 29
50 50 50 50 50 51 51 48 46 49 43 42 37 36 36 36 36 37 38 37 41 38 42 41 40 37 37 39 39 39 38 38 36 35 34 29 28 29 28 29 29 28 28 31
51 50 50 50 50 51 51 48 46 46 38 41 37 38 38 38 39 38 38 41 41 43 41 41 40 35 37 36 36 37 38 39 35 32 28 28 27 28 29 28 28 31 33 35
51 50 50 50 50 51 53 51 48 46 40 44 37 38 39 40 41 41 43 43 44 43 45 41 35 33 28 27 30 36 36 38 39 33 30 28 29 29 31 32 28 36 39 40
50 50 50 50 49 50 54 53 52 46 50 41 40 40 40 40 41 41 43 43 44 44 42 37 38 35 32 29 33 33 35 34 33 33 32 31 31 32 33 32 35 40 40 40
50 50 50 50 49 50 53 54 53 50 47 43 43 42 41 40 41 44 44 43 44 44 38 37 39 36 37 33 30 31 31 36 33 33 30 29 32 32 35 38 40 40 40 40
49 49 50 50 49 49 51 52 52 52 50 46 51 50 46 46 41 42 45 42 42 45 43 39 38 34 34 39 34 33 31 34 31 32 34 35 35 37 38 40 40 41 40 38
49 49 49 50 49 49 51 53 53 51 51 48 49 46 48 50 47 48 46 47 43 43 45 45 41 35 40 34 37 40 35 35 36 36 35 35 38 39 41 42 40 39 39 35
49 49 49 50 49 49 50 54 51 51 46 37 46 44 46 47 50 49 48 46 46 46 47 39 37 38 40 38 40 38 37 36 35 37 38 38 37 41 42 41 40 39 34 31
48 49 49 49 49 49 53 55 54 53 51 44 47 45 45 46 49 49 48 47 47 47 42 36 39 44 42 42 40 40 37 35 38 37 39 40 40 40 42 41 38 31 28 25
49 49 49 50 49 49 54 52 53 53 53 48 42 46 44 44 47 48 48 48 49 49 44 41 44 43 44 35 36 39 38 39 40 40 39 39 40 39 37 32 29 27 25 24
48 49 49 49 49 55 52 49 50 49 54 45 42 43 42 42 44 44 46 48 49 47 46 43 45 45 43 36 35 37 39 38 39 40 38 37 36 35 32 29 26 28 26 26
48 48 48 49 48 49 51 53 49 51 49 46 39 38 42 41 42 40 41 42 44 46 45 41 43 42 43 36 38 37 34 36 37 37 38 37 33 30 27 27 26 26 22 21
48 48 48 49 48 45 48 47 49 51 49 43 37 36 36 42 39 40 40 42 38 41 37 38 40 37 35 38 37 34 35 36 35 33 31 29 27 26 24 23 20 20 23 24
48 48 45 37 42 47 48 46 45 42 41 41 37 43 40 42 38 37 38 39 37 35 35 36 33 34 34 32 35 34 36 35 33 31 29 27 24 19 19 21 23 24 24 27
44 39 37 43 47 44 41 36 37 36 34 36 35 36 36 39 38 36 36 33 34 33 34 35 34 32 33 34 36 35 34 32 29 26 23 21 21 22 24 26 27 29 29 29
44 43 44 43 40 36 35 33 32 33 33 34 34 35 37 35 40 36 33 33 33 31 33 31 29 30 31 32 31 31 31 26 21 20 20 23 24 27 28 28 28 30 31 32
44 39 34 35 33 32 32 31 32 32 35 35 34 33 36 35 36 32 35 31 31 32 28 27 29 30 31 31 31 31 28 26 26 21 23 27 28 30 30 31 32 33 32 31
37 34 31 33 32 34 33 35 36 35 36 36 35 33 35 33 31 33 31 28 29 27 24 27 28 27 25 26 29 25 23 33 28 26 28 33 33 33 33 32 32 31 30 31
32 35 30 31 32 35 34 35 36 35 37 36 34 33 34 31 29 30 28 26 24 25 25 29 29 24 25 27 25 23 29 33 30 26 31 34 33 32 32 33 34 33 32 31
31 32 31 31 32 32 33 33 33 35 34 34 35 32 31 29 29 27 27 23 21 25 32 32 27 26 27 28 30 27 26 27 26 27 28 30 32 32 31 32 33 32 32 31
32 30 32 32 33 34 34 36 35 36 35 32 30 29 27 26 26 25 24 24 28 31 29 27 27 27 28 28 29 32 29 27 27 28 30 30 33 34 31 31 30 32 34 33

GFSNW_sfc_dewp_009.txt.gz
Dewpoint
52 51 51 51 51 51 52 49 37 54 56 38 42 37 32 36 32 35 34 33 31 31 32 31 31 30 33 35 34 30 32 30 27 20 30 32 30 28 27 29 21 27 28 24
51 50 50 51 51 51 50 41 43 53 54 44 47 37 35 34 33 32 33 34 34 35 34 33 33 34 38 37 34 35 33 32 25 22 30 31 28 28 27 28 31 27 32 26
50 50 50 51 51 51 53 42 46 44 45 42 37 36 34 34 35 35 35 35 36 35 33 34 35 35 37 39 37 41 39 30 25 23 21 21 22 21 21 25 30 29 27 25
50 50 51 51 51 51 53 45 44 43 43 42 38 37 35 33 32 34 35 34 33 34 34 33 33 33 35 35 39 37 34 29 29 27 23 22 22 23 22 21 23 27 28 25
50 50 51 50 51 51 50 41 43 43 43 40 38 38 35 31 32 33 32 32 33 31 33 26 28 27 27 28 35 34 34 33 35 30 25 23 25 23 22 22 25 25 25 26
50 50 51 50 50 52 48 48 49 45 41 41 41 38 34 32 37 37 32 33 31 34 32 36 37 38 36 34 34 34 36 37 33 32 32 32 34 30 23 23 25 28 28 28
51 51 51 50 50 51 52 50 47 50 45 43 37 35 34 35 34 36 35 34 38 40 40 40 39 38 37 37 38 38 40 36 38 35 35 30 29 27 27 26 27 26 26 28
51 51 50 50 50 51 52 49 48 48 43 40 37 37 36 38 38 38 38 41 41 43 40 41 38 36 37 36 34 35 37 40 37 34 29 28 27 28 28 29 28 29 32 35
51 51 50 50 50 51 52 51 52 49 43 46 37 38 39 41 41 42 43 44 45 45 46 41 37 32 27 29 32 35 37 41 39 36 31 29 31 30 31 32 30 37 38 38
51 51 50 50 50 50 54 53 56 48 52 42 41 42 42 40 41 40 43 44 45 45 45 39 40 34 31 28 33 33 36 37 36 33 33 32 30 31 34 30 35 40 40 40
50 50 50 50 50 50 54 54 55 52 48 44 43 42 43 42 41 46 44 43 45 47 39 40 41 38 37 34 28 32 33 36 33 35 32 29 32 32 35 37 39 41 40 41
50 50 50 50 50 50 51 51 52 53 50 48 50 49 48 48 43 42 46 41 43 44 44 43 43 36 38 39 33 30 31 34 34 34 33 33 36 37 40 39 41 41 41 40
50 50 51 51 50 50 51 53 54 52 55 49 47 45 49 47 48 50 46 49 42 45 47 47 44 35 42 35 37 40 33 32 37 37 34 33 37 39 41 42 41 41 40 39
50 50 50 50 50 50 51 53 52 51 49 40 48 46 47 49 50 48 49 46 49 48 48 43 39 39 41 41 38 37 36 35 36 37 35 35 36 41 41 40 41 40 36 31
49 49 49 50 50 50 54 54 53 53 51 46 49 46 46 47 49 48 48 48 47 49 45 38 40 46 44 44 42 40 36 35 39 38 38 40 40 41 41 39 38 33 30 28
48 49 49 50 50 50 54 50 54 53 54 52 45 48 45 46 47 48 48 47 47 46 46 41 45 43 44 37 38 36 35 36 36 38 41 41 42 40 39 35 31 30 27 26
49 49 49 50 49 54 52 48 51 50 55 50 44 46 44 44 46 48 47 49 48 48 47 46 46 45 43 41 38 34 36 37 39 41 41 39 39 37 33 31 28 29 25 21
48 48 49 49 48 49 52 53 50 52 51 51 43 42 44 44 46 45 44 46 46 46 46 44 43 44 45 39 38 36 37 38 38 39 40 41 40 32 28 26 23 20 17 18
48 48 48 50 50 49 52 48 50 54 51 46 37 37 37 43 41 43 43 43 39 44 39 41 43 40 38 39 37 37 36 37 36 38 36 32 29 25 21 18 18 18 19 19
48 48 46 39 43 48 49 51 49 46 47 47 39 44 40 41 40 38 39 40 38 35 38 37 34 35 39 38 38 37 37 37 37 34 32 28 25 19 18 19 20 21 21 26
45 40 37 44 47 45 43 37 38 40 36 39 41 43 41 43 39 37 39 36 35 34 36 36 36 34 36 37 36 36 36 35 32 30 26 19 18 19 21 24 27 27 27 28
44 44 45 44 41 37 38 34 34 35 36 36 35 37 40 39 41 35 33 33 34 33 35 34 30 32 34 35 36 35 33 31 25 20 18 19 19 23 27 29 28 27 31 34
44 37 34 34 32 31 32 30 33 33 34 34 34 33 35 36 37 33 34 32 33 35 31 28 30 32 32 34 33 32 29 27 25 18 19 22 23 28 31 32 32 35 32 32
35 33 32 33 32 33 34 35 35 36 36 35 34 33 34 34 34 34 32 32 32 29 27 30 32 32 32 32 33 31 28 34 27 23 25 29 35 35 36 35 35 34 32 33
35 36 31 32 34 34 34 35 35 36 38 37 38 37 37 34 32 34 31 28 27 27 29 32 31 32 31 30 29 26 26 35 31 25 29 36 36 35 33 35 36 34 34 34
33 34 32 34 34 33 33 33 33 36 37 39 38 34 33 32 33 30 30 29 25 29 34 34 29 28 28 28 28 28 27 26 25 25 25 29 35 34 32 34 34 34 33 33
35 32 36 35 35 34 33 36 36 38 37 33 35 31 30 30 30 28 28 29 32 34 33 29 28 27 27 29 30 34 31 28 27 27 27 29 33 36 35 33 31 32 33 34

GFSNW_sfc_dewp_012.txt.gz
Dewpoint
51 50 51 51 51 52 52 55 38 56 59 38 38 39 32 35 31 34 33 32 28 28 29 29 29 30 34 33 31 29 29 29 35 21 27 27 27 26 26 35 26 35 32 23
50 50 51 51 51 51 53 43 45 55 55 43 50 37 33 31 30 29 31 32 32 33 32 32 32 36 37 37 36 36 33 33 33 24 30 29 23 25 25 29 36 29 31 27
50 50 51 51 51 52 52 46 45 42 44 45 40 37 34 34 35 34 33 33 34 33 33 33 33 36 37 38 36 42 40 28 26 28 22 21 21 20 20 23 33 31 30 25
50 50 51 51 51 51 51 47 43 39 41 41 38 36 33 33 33 34 34 32 31 33 34 32 32 35 35 34 38 35 34 31 30 27 23 23 22 21 21 21 23 26 27 22
50 50 51 50 51 51 50 46 43 43 41 41 37 38 33 31 30 33 31 31 32 33 36 30 30 29 28 30 34 32 35 38 37 33 24 25 25 24 23 22 21 21 24 25
50 51 51 50 51 52 49 49 49 44 42 40 42 40 35 32 35 37 32 32 34 38 35 38 37 37 36 33 34 35 37 41 37 34 32 33 35 33 23 24 24 25 29 29
52 51 51 50 50 52 57 53 48 52 46 43 37 36 34 33 36 35 33 33 40 39 39 40 39 39 38 37 37 38 40 39 39 35 35 30 28 27 27 26 25 25 25 31
52 51 50 50 50 51 54 52 52 49 41 43 37 36 34 37 37 36 40 40 40 41 39 43 36 38 37 36 34 34 37 41 35 34 29 28 28 28 29 30 29 29 33 36
51 51 51 50 50 51 54 55 57 53 46 47 37 36 39 41 42 42 43 44 45 42 49 43 37 35 31 32 32 35 37 43 41 35 30 26 33 30 32 32 30 38 38 38
51 51 51 50 50 50 55 55 59 55 53 43 44 41 43 41 43 42 43 44 46 44 44 37 40 37 30 31 33 34 35 37 35 34 31 33 30 31 33 29 35 40 40 39
51 51 51 50 50 50 53 56 56 55 51 46 46 44 44 41 44 47 44 44 47 50 39 39 42 39 40 37 31 34 33 35 33 34 33 29 32 31 34 39 42 41 39 40
51 51 50 51 50 50 51 53 53 56 53 50 52 50 50 48 47 46 48 42 44 47 44 44 45 36 38 39 36 27 33 38 37 35 35 38 38 37 40 43 42 43 41 41
50 51 51 51 50 50 51 54 55 55 57 49 48 46 49 49 50 53 48 53 44 46 49 46 42 34 43 35 39 39 30 30 41 39 35 33 36 39 42 42 41 41 39 37
50 50 51 51 50 50 51 53 54 54 50 39 50 48 47 49 49 48 51 50 52 52 49 41 38 37 42 42 39 40 38 35 35 37 35 36 38 41 41 41 42 39 38 32
48 49 49 50 51 51 54 55 54 54 53 45 51 47 47 47 49 47 48 51 50 51 44 37 39 47 47 47 44 42 36 34 38 38 39 41 41 41 41 39 40 39 30 28
48 49 49 50 50 50 55 50 54 53 55 51 43 49 45 46 48 48 47 48 49 48 46 42 45 45 47 38 38 37 34 33 36 37 40 42 43 40 40 39 36 30 28 26
48 49 49 49 49 54 52 48 50 50 55 50 43 46 45 45 47 48 48 50 49 48 49 47 46 47 44 38 37 36 34 34 35 41 41 40 39 39 36 31 29 29 24 18
48 49 49 49 48 49 52 53 51 51 52 51 43 42 45 44 48 46 45 46 47 48 46 45 44 45 43 38 39 37 35 36 39 40 41 41 40 38 33 28 23 18 17 19
48 49 49 52 52 51 53 48 50 55 52 47 37 37 37 44 42 42 44 44 38 45 38 41 42 41 37 39 37 36 37 38 37 38 39 38 37 29 24 19 18 19 21 20
48 49 46 39 44 48 48 51 50 49 51 48 39 44 41 41 41 38 39 39 38 35 39 39 35 37 39 37 37 39 39 38 39 38 35 32 28 23 19 19 21 22 24 26
46 40 37 44 47 48 45 41 42 42 37 42 42 44 40 43 38 37 39 35 36 33 35 36 35 34 35 38 38 37 38 39 38 35 33 26 21 20 22 28 32 31 30 30
44 44 45 43 40 36 37 35 35 35 37 38 35 38 42 41 43 39 35 34 33 32 37 33 32 34 36 37 36 37 36 35 30 25 21 21 20 23 31 32 32 30 32 31
42 38 35 36 32 31 32 31 32 33 33 34 35 33 36 36 38 33 33 32 32 36 33 29 33 33 33 35 35 35 31 29 28 20 21 24 24 28 32 32 32 32 32 32
35 33 32 32 32 33 33 33 33 34 34 34 34 33 34 33 33 32 32 33 35 30 29 29 35 33 32 34 36 32 28 28 28 29 30 28 34 34 33 33 32 30 32 32
36 35 31 32 33 34 33 33 34 34 36 35 34 34 35 33 32 33 32 29 28 30 31 33 36 36 34 33 33 29 30 30 31 31 29 30 31 32 32 33 34 34 33 32
35 35 33 34 33 32 32 32 33 37 35 37 37 33 33 32 33 30 30 30 28 33 37 38 32 32 33 32 30 30 30 30 30 30 29 28 30 30 32 33 34 32 33 32
33 33 36 35 34 33 33 35 35 39 35 32 34 32 29 32 30 29 32 31 34 37 36 33 32 31 31 31 32 33 32 32 32 30 29 30 31 33 33 32 32 33 33 33

GFSNW_sfc_dewp_015.txt.gz
Dewpoint
50 50 51 51 51 52 52 52 40 57 58 39 43 39 39 35 33 37 37 36 31 33 32 33 33 35 35 36 37 31 32 32 26 28 29 29 28 30 30 26 25 28 26 23
50 50 51 51 51 51 54 47 48 55 56 36 38 40 37 36 32 34 35 35 36 35 36 32 37 38 40 40 37 36 35 29 27 28 31 30 25 27 29 35 29 24 19 23
49 50 51 51 51 51 52 51 40 47 48 47 43 39 36 37 37 37 36 35 37 36 35 36 37 38 41 40 36 41 40 30 27 25 24 24 24 24 23 31 27 27 27 27
49 50 51 51 51 50 51 50 44 41 36 39 41 40 37 36 36 38 37 36 36 35 32 35 37 38 37 39 39 38 35 31 32 30 27 26 25 25 25 23 25 24 25 28
49 51 50 50 51 50 51 50 47 42 40 36 40 40 35 36 35 36 35 34 35 36 35 37 34 35 35 35 35 36 38 32 30 29 31 30 28 29 27 25 26 25 26 27
50 51 50 50 50 52 52 52 50 49 45 39 40 39 38 37 38 39 39 37 38 36 38 39 39 39 37 38 35 37 37 31 29 28 32 32 25 30 28 27 28 28 26 31
52 51 50 50 50 52 57 55 54 46 37 43 40 39 39 39 37 36 41 41 37 41 40 39 38 36 36 38 37 41 34 33 31 23 24 14 31 31 30 30 30 30 35 36
51 51 50 50 50 51 55 54 55 45 36 45 41 38 38 39 43 42 41 41 40 42 42 35 27 30 25 31 35 37 40 33 25 26 24 25 29 31 31 30 30 38 37 37
51 50 50 49 50 50 55 55 56 51 41 40 44 38 40 40 41 42 43 46 46 46 38 30 26 26 27 30 32 37 40 35 28 25 18 14 28 32 34 34 27 39 39 38
51 50 50 50 49 50 55 55 55 55 45 45 46 42 40 44 43 41 43 44 41 45 35 33 30 29 33 29 28 27 28 28 23 30 17 26 34 33 35 26 27 41 39 39
51 50 50 50 50 50 54 54 54 54 46 46 48 49 45 44 45 38 43 39 39 36 34 31 31 29 31 30 33 31 28 25 28 30 25 22 35 33 28 34 41 40 39 40
52 50 50 50 50 50 51 53 54 56 52 49 51 50 49 47 47 46 44 38 45 44 37 35 35 33 35 32 26 34 29 33 31 30 28 34 36 36 39 41 41 40 39 42
51 51 50 50 50 50 51 54 54 55 48 48 47 47 50 50 50 50 44 45 46 46 48 40 39 31 37 28 32 29 33 37 32 33 36 36 35 42 42 42 41 41 41 42
50 51 49 48 50 50 51 54 54 53 47 36 45 47 48 49 50 49 50 48 50 50 44 38 37 32 40 33 33 32 34 35 33 33 36 37 41 41 41 41 41 40 39 39
48 48 48 49 49 50 53 55 54 53 50 38 40 47 47 48 49 48 49 49 48 44 39 35 34 35 36 34 34 33 38 34 33 31 38 38 41 41 41 42 41 39 37 29
48 49 49 49 49 49 54 50 54 51 55 43 36 47 46 46 47 47 46 48 47 47 40 35 41 45 38 34 32 38 39 38 37 37 43 43 42 40 41 40 40 36 29 28
48 48 49 50 49 52 49 47 49 49 52 41 37 40 44 44 46 47 48 49 47 46 41 39 36 39 42 34 34 38 39 36 41 42 41 39 40 39 38 36 32 32 26 23
48 48 49 49 49 49 50 51 50 50 50 44 37 38 38 45 39 39 44 39 43 45 42 40 36 38 36 34 40 40 39 39 41 41 41 41 40 39 36 32 24 21 22 23
48 49 49 51 49 45 49 48 49 53 48 39 34 34 33 43 40 38 37 41 35 41 35 37 39 35 35 38 40 39 37 39 39 40 40 40 39 37 27 22 23 23 23 25
48 49 47 39 43 47 48 49 43 41 40 42 36 41 36 41 36 35 36 34 34 33 35 39 33 34 39 39 39 39 39 39 39 39 38 39 31 24 23 23 25 26 26 27
45 40 37 43 46 46 42 37 38 38 35 39 39 38 37 40 35 34 35 33 34 31 30 34 31 32 35 37 39 38 40 40 40 34 29 26 24 24 27 28 28 26 27 26
43 43 44 42 39 36 36 34 34 35 35 35 35 36 39 37 41 34 34 33 32 29 35 32 28 31 37 37 37 37 37 31 25 24 25 26 28 29 27 27 27 28 28 26
42 38 34 36 32 31 32 30 32 32 33 34 34 33 34 35 36 33 33 32 31 34 32 28 29 34 36 36 28 26 26 28 27 26 28 27 26 27 26 26 28 26 29 30
35 33 31 32 30 31 30 31 32 33 33 33 33 32 33 32 33 32 30 31 32 29 25 23 34 36 37 35 29 25 25 26 25 25 25 25 28 28 27 27 27 24 28 29
33 34 30 30 32 32 32 32 32 33 35 34 33 33 34 32 30 31 30 27 26 28 28 31 33 33 33 30 29 26 24 26 27 27 26 25 25 27 28 28 29 30 26 29
33 32 30 32 32 32 32 32 32 35 33 34 34 31 32 30 30 28 28 27 26 30 32 32 31 30 30 29 29 28 29 27 27 28 28 27 26 24 28 28 29 28 29 28
32 30 33 33 33 32 32 33 33 37 34 32 32 29 27 30 28 27 30 28 31 32 31 31 30 29 29 29 29 29 29 29 29 30 28 27 28 26 27 28 29 30 30 27

GFSNW_sfc_dewp_018.txt.gz
Dewpoint
49 50 51 51 51 52 50 49 37 52 46 30 41 37 39 35 32 35 35 36 36 30 33 35 35 35 35 38 38 28 33 30 25 28 28 28 27 29 29 25 22 26 24 22
49 49 51 51 51 51 50 45 46 53 44 29 33 39 36 35 34 34 34 35 37 37 34 34 38 37 40 37 36 35 32 28 25 27 30 29 25 27 33 31 27 23 17 19
49 50 51 51 51 51 52 48 38 44 46 43 37 39 35 35 38 36 36 35 35 35 34 38 36 37 39 37 34 40 39 32 26 25 26 25 22 25 30 29 25 25 25 24
49 50 50 50 51 50 49 49 40 37 32 34 39 40 36 35 35 37 36 34 35 34 32 36 36 37 37 36 37 36 34 30 30 28 28 27 26 25 25 24 26 25 25 28
50 51 50 50 51 50 48 47 45 41 34 35 38 40 37 35 36 35 35 34 36 36 34 34 35 35 34 32 34 35 38 29 29 28 31 33 26 30 29 27 26 25 26 32
51 50 50 50 50 50 48 50 50 42 41 33 36 37 36 37 38 38 38 38 37 36 38 39 39 39 38 37 34 38 35 30 25 22 30 30 23 28 28 27 28 27 25 32
51 50 50 49 50 52 56 54 51 43 35 39 36 40 37 38 38 38 41 39 36 40 42 36 33 33 35 38 39 37 32 32 26 19 19 9 28 30 30 29 33 35 35 35
50 50 49 49 50 51 53 53 51 42 34 43 40 38 41 42 43 42 42 43 41 41 38 29 25 28 28 31 39 41 36 29 26 16 22 19 28 30 29 26 28 37 36 37
50 50 49 49 49 51 52 52 54 44 39 38 45 40 41 39 39 40 42 45 46 43 34 27 25 22 22 29 33 36 37 30 24 27 12 7 21 32 33 32 27 38 38 37
50 50 50 49 49 50 53 52 54 50 43 44 45 39 39 43 41 39 41 41 40 39 28 30 25 28 31 28 27 26 27 25 22 16 15 24 28 34 34 25 24 40 39 38
49 49 49 49 49 50 52 51 53 49 43 44 49 48 42 44 42 37 41 37 37 35 28 26 31 25 30 29 32 30 27 26 25 25 16 19 33 33 28 31 39 40 39 39
49 49 50 50 50 50 53 48 53 54 48 46 50 49 49 48 44 44 42 35 40 39 34 33 35 27 33 28 27 34 26 28 28 29 28 31 35 34 35 40 40 39 39 40
50 49 47 48 50 50 53 52 52 51 43 44 45 46 49 48 49 48 41 42 46 44 42 38 33 26 33 29 32 31 32 37 32 32 33 34 36 40 41 41 41 41 41 41
49 48 48 48 48 50 52 51 52 48 43 35 42 48 47 48 49 49 48 47 49 46 41 36 34 29 36 29 30 31 31 35 33 32 34 39 41 41 41 41 41 40 41 39
48 48 49 49 49 49 53 52 51 52 44 37 39 46 47 47 48 49 49 48 46 42 36 34 33 32 34 34 32 32 37 32 32 30 34 34 38 41 41 40 40 40 39 30
48 49 50 49 49 50 53 47 52 49 51 40 33 44 44 45 47 47 48 47 47 44 38 35 38 43 34 34 34 38 40 39 37 37 40 41 41 41 41 42 41 40 31 24
48 49 49 49 48 49 48 43 48 48 49 39 36 36 42 44 46 44 45 46 45 44 38 36 35 36 40 34 32 37 38 39 40 42 41 39 39 39 41 41 35 29 23 23
48 49 49 49 49 49 49 49 48 49 46 41 34 33 36 43 37 37 42 38 42 42 40 39 36 37 35 35 40 40 39 39 42 41 41 40 40 37 35 30 23 23 22 23
48 49 49 48 47 44 48 48 47 51 45 37 33 33 31 41 39 37 35 39 33 39 36 36 38 35 35 36 38 40 41 39 40 40 40 40 38 37 27 24 25 24 24 24
48 47 43 41 43 47 48 46 41 40 41 40 34 38 35 40 34 34 34 34 34 34 34 38 33 35 39 39 40 39 39 40 40 39 39 39 30 26 27 26 26 26 25 26
45 41 37 43 46 44 40 37 37 37 35 38 38 37 35 37 34 34 34 33 33 31 29 33 27 31 34 37 37 39 40 39 35 36 37 31 29 29 29 28 27 26 26 26
44 43 44 42 39 36 36 34 34 34 34 34 35 35 39 36 38 35 34 32 32 28 34 32 29 32 36 33 32 29 28 29 30 32 31 29 27 27 25 23 23 25 27 24
42 38 35 37 33 33 33 33 32 32 33 34 34 34 34 35 37 33 33 32 30 34 31 30 31 36 32 27 28 29 30 29 28 26 28 28 26 25 24 24 25 25 28 28
35 34 30 32 30 30 30 31 32 32 32 33 33 32 33 32 33 32 31 31 31 29 25 23 33 36 36 30 30 25 25 26 26 26 26 25 27 27 27 26 25 22 26 28
33 30 29 27 30 32 32 32 32 33 34 33 33 32 34 32 30 31 29 27 25 28 27 31 32 34 32 28 28 26 25 28 27 27 26 25 24 25 26 27 27 28 25 24
32 32 30 32 32 32 32 32 32 34 33 33 33 31 31 28 29 27 27 26 24 28 31 32 32 31 31 30 32 31 30 28 27 27 28 27 25 22 26 27 27 25 24 25
30 30 33 32 32 32 32 33 33 36 33 31 31 22 23 29 27 26 30 27 31 32 32 32 31 30 29 29 29 29 30 29 29 29 27 27 27 25 25 26 28 28 29 26

GFSNW_sfc_dewp_021.txt.gz
Dewpoint
50 49 51 51 51 52 50 45 30 50 41 29 39 37 39 37 32 34 35 35 34 30 34 35 34 33 34 38 37 27 32 29 26 26 28 30 28 28 27 22 21 25 23 21
49 49 51 51 51 51 49 42 48 53 38 26 32 36 37 34 32 32 33 34 36 36 36 33 37 36 39 35 34 32 30 28 24 25 29 27 27 28 32 29 27 23 18 20
49 49 50 51 51 52 51 43 38 42 45 37 32 35 34 34 36 35 35 34 36 34 36 38 36 36 38 34 32 40 37 31 24 23 24 25 20 24 30 27 24 23 23 21
49 49 51 51 51 51 50 46 37 38 34 37 41 39 36 34 33 36 35 33 35 33 33 35 36 37 36 33 37 36 32 27 28 28 29 26 24 23 26 26 26 23 24 26
49 50 50 51 50 50 47 47 41 40 32 34 36 39 36 34 35 34 34 32 37 35 33 33 35 33 31 26 34 36 36 28 27 28 30 31 25 24 26 25 25 28 25 30
51 50 50 50 50 49 46 48 49 40 39 35 37 38 37 36 36 39 38 37 36 33 37 38 38 38 37 36 34 36 32 28 22 17 28 27 16 26 28 27 27 26 26 29
50 50 49 50 50 51 52 52 47 41 35 32 32 39 38 37 37 37 39 38 36 38 39 35 33 33 37 39 40 36 31 29 23 18 18 6 20 30 29 27 30 34 34 35
50 49 49 49 50 51 52 52 47 40 34 40 39 40 41 41 42 41 42 43 40 40 32 28 25 26 27 31 38 37 34 28 25 16 18 17 22 29 29 28 26 35 34 35
49 49 49 49 50 52 53 52 49 43 40 39 42 41 40 37 37 38 41 45 44 38 30 26 20 16 20 28 33 36 33 28 23 24 9 4 17 31 33 30 25 37 36 36
49 49 49 49 50 52 51 51 52 46 41 43 43 39 39 41 39 38 40 41 39 36 27 22 23 27 27 26 25 26 27 23 20 14 14 21 25 32 32 23 21 38 38 37
49 49 49 49 50 51 50 51 52 47 42 45 48 47 43 43 40 36 39 37 36 32 27 24 26 23 29 28 30 30 29 28 24 25 17 17 30 32 28 31 34 39 39 38
50 47 47 48 50 50 51 49 53 52 46 46 48 48 48 47 42 43 40 37 37 37 32 28 30 25 33 27 25 32 26 27 27 27 27 30 33 33 34 37 38 39 39 39
47 48 48 48 49 51 51 51 51 47 42 43 45 45 48 48 48 47 40 40 43 41 39 36 35 23 30 28 30 29 32 34 30 30 30 32 33 35 38 40 39 39 40 40
48 48 48 48 50 51 51 51 50 45 40 35 41 48 46 48 50 49 46 46 45 43 39 34 33 26 34 29 30 31 32 34 32 31 33 36 39 39 40 41 41 41 41 40
48 49 49 49 50 51 51 50 49 50 42 36 38 45 46 46 49 49 48 46 44 40 36 33 32 31 34 34 32 32 35 33 30 29 33 35 34 40 41 40 39 40 39 34
48 49 49 48 50 51 47 42 50 50 48 39 34 43 44 45 48 47 47 47 45 42 38 34 36 39 34 33 34 37 38 38 34 33 36 37 39 40 41 40 41 40 29 23
48 48 49 48 48 49 44 37 47 48 46 38 36 34 41 43 45 43 44 44 44 43 39 34 36 36 39 34 32 35 37 38 39 40 40 38 39 39 42 41 34 28 23 23
48 49 48 48 49 49 48 48 47 48 43 39 33 32 35 43 37 37 41 38 41 41 39 38 37 36 35 33 38 39 39 39 39 41 40 39 40 41 36 25 23 24 25 25
49 48 48 47 46 45 47 47 47 48 43 36 33 31 30 40 38 37 36 39 34 39 35 35 36 34 33 37 37 37 39 39 39 40 40 39 37 27 25 27 29 27 25 25
47 46 41 35 43 46 46 44 39 39 40 38 33 37 34 40 34 34 34 34 36 34 34 38 33 35 37 36 37 39 39 39 41 38 37 33 29 30 33 34 32 27 27 26
43 42 37 43 45 43 39 36 34 37 36 38 37 36 36 38 35 34 32 33 33 32 29 34 31 31 33 34 36 35 35 36 36 36 34 34 34 34 32 28 29 27 26 26
42 41 43 39 37 34 34 33 34 34 34 34 34 35 39 36 37 35 34 32 32 28 33 32 29 30 28 29 32 32 34 34 34 35 34 33 30 28 27 25 23 24 27 25
43 38 36 37 34 33 33 32 32 32 32 34 33 34 33 35 36 33 33 32 30 33 31 30 31 34 32 33 36 36 36 35 34 33 32 30 28 26 26 27 26 27 28 28
36 34 31 32 30 30 31 31 32 32 32 33 33 32 33 32 33 32 31 31 31 29 24 21 32 34 34 29 28 27 27 28 32 30 27 26 28 27 27 27 27 25 27 28
32 30 27 27 30 32 32 32 32 32 34 33 33 32 33 32 31 31 28 27 25 26 23 30 32 33 34 28 31 32 31 30 28 26 26 25 24 25 26 27 27 27 22 22
32 32 30 31 31 31 32 32 32 34 33 33 33 31 29 28 29 25 24 24 22 27 31 32 33 33 33 33 34 34 34 29 28 28 28 27 24 23 26 26 26 22 21 22
30 31 33 32 32 32 32 33 33 36 33 30 30 19 21 28 24 25 30 26 29 32 33 32 33 32 31 30 30 29 29 28 27 26 26 27 27 24 25 25 27 28 28 23

GFSNW_sfc_dewp_024.txt.gz
Dewpoint
52 51 50 50 51 51 51 39 29 49 39 31 37 35 39 39 31 35 35 34 31 29 33 33 33 31 33 36 37 28 32 28 26 24 28 31 27 27 25 20 19 24 22 20
51 49 49 51 51 51 48 44 47 52 37 27 32 34 37 35 31 33 33 33 35 36 35 32 35 35 37 33 33 30 29 27 24 23 24 26 26 30 29 27 26 23 18 19
50 49 50 51 51 52 47 43 40 42 41 36 31 32 34 33 36 35 34 35 35 35 36 37 35 35 36 33 33 40 35 29 23 20 20 24 20 26 28 26 23 22 22 20
49 49 50 51 51 51 50 42 38 40 36 39 32 35 34 33 32 35 34 33 33 33 33 34 34 36 34 31 38 37 30 26 27 28 29 26 22 22 27 25 24 22 22 24
49 49 51 51 51 51 47 46 38 36 33 40 37 37 35 33 34 34 33 32 36 34 33 32 34 33 29 21 35 35 34 27 24 28 30 29 26 23 24 25 25 27 26 25
49 51 50 50 50 49 44 47 46 37 37 37 36 37 37 35 36 38 37 35 34 33 35 37 37 37 36 34 34 34 30 27 20 16 26 22 17 23 26 26 27 25 24 26
51 50 50 50 50 49 48 50 46 40 31 33 36 38 37 36 35 35 38 37 34 37 38 35 33 33 37 39 39 35 29 26 21 17 18 7 19 27 28 27 27 28 31 32
50 49 49 50 50 51 51 51 45 40 31 33 35 39 40 40 41 40 41 42 40 38 30 30 28 26 27 30 36 33 31 26 23 15 17 16 15 23 28 27 25 33 32 34
49 49 49 49 49 51 53 51 47 44 38 37 39 40 39 37 37 37 40 44 41 35 29 25 20 19 22 25 32 35 30 27 22 20 9 4 16 26 31 29 25 32 35 35
49 49 49 50 50 51 52 51 49 45 41 43 41 38 38 39 38 37 39 40 37 34 26 21 21 21 25 24 24 26 26 25 18 14 12 20 22 31 31 22 23 36 36 36
49 48 49 50 51 51 52 50 51 45 42 44 47 45 41 41 39 35 39 36 36 31 27 24 25 22 28 27 28 31 28 27 22 22 13 18 28 32 27 30 32 37 37 37
47 48 48 50 51 51 51 51 52 50 46 45 47 48 47 46 41 42 39 37 37 37 31 26 26 25 29 26 24 32 26 27 26 26 26 28 30 33 34 33 33 37 37 38
48 48 49 50 50 51 52 51 48 45 42 43 44 44 48 48 48 45 39 38 40 38 36 32 29 23 29 26 29 27 32 31 28 28 28 31 32 33 35 36 36 38 39 39
48 48 49 50 50 50 51 49 48 42 39 35 40 47 46 48 49 49 44 44 42 40 37 33 30 25 33 27 29 29 32 33 30 30 32 33 34 37 35 38 40 40 41 40
48 48 49 51 50 50 50 49 48 48 39 36 38 44 45 46 49 47 46 44 42 39 35 33 31 29 32 32 33 31 34 31 29 28 30 31 31 35 40 40 40 40 40 38
48 48 49 49 49 48 42 40 47 49 45 40 35 42 43 45 46 46 46 46 43 40 37 34 35 37 33 33 33 35 35 36 33 31 34 35 36 39 40 40 40 39 33 27
48 48 48 48 48 49 40 36 45 47 45 38 36 35 40 42 43 42 43 44 42 41 39 34 34 36 36 33 28 34 35 37 38 39 39 37 38 38 41 40 32 27 24 24
49 48 48 48 48 48 47 47 47 47 41 37 32 31 34 42 37 37 42 38 41 41 38 37 36 37 35 33 37 38 39 40 40 40 39 38 39 39 27 25 24 27 30 32
48 47 47 47 46 45 46 47 47 46 42 34 32 29 28 40 38 36 37 39 36 38 35 35 37 33 33 35 35 36 37 38 39 39 39 37 30 26 29 32 34 33 32 29
46 45 41 36 44 46 45 43 39 38 37 39 33 36 34 40 34 34 34 34 35 34 33 38 34 34 35 30 31 33 36 39 39 36 32 31 33 34 34 35 35 33 31 31
43 40 38 43 44 42 36 35 33 38 35 37 36 36 35 38 35 34 32 33 33 31 30 34 31 31 30 31 33 34 35 35 35 35 35 35 34 33 33 32 33 32 28 26
42 42 42 39 37 35 33 32 34 34 32 34 35 35 38 35 36 34 34 32 32 29 32 32 29 30 32 34 35 35 34 34 34 34 34 35 35 34 32 27 24 24 27 26
41 36 33 35 32 33 32 31 32 32 33 33 33 33 33 35 36 33 33 32 30 33 31 29 31 34 35 35 36 33 34 35 34 32 32 31 28 27 27 28 28 27 28 28
36 34 33 33 31 31 31 32 32 32 32 33 33 33 33 33 33 32 32 31 31 28 24 23 31 33 33 28 29 29 30 30 30 27 26 26 27 27 27 26 26 24 26 27
33 32 28 28 30 31 32 32 33 32 34 33 33 33 34 32 31 30 29 26 23 21 18 30 31 32 32 32 34 33 34 29 27 26 26 22 22 24 25 25 26 26 21 20
32 31 30 31 31 31 32 32 32 34 33 33 33 31 25 26 29 26 26 23 18 25 30 32 32 32 33 33 34 33 34 30 28 29 28 26 24 21 26 26 24 20 20 21
30 31 33 32 32 32 32 33 33 35 33 31 30 23 23 29 24 25 28 21 28 32 32 33 33 32 33 33 32 29 29 28 26 26 27 27 27 24 25 26 28 28 28 22

GFSNW_sfc_dewp_027.txt.gz
Dewpoint
51 51 52 51 49 52 51 42 34 50 43 34 37 33 35 40 33 37 37 33 32 31 34 33 32 32 33 36 37 31 31 32 29 24 28 31 28 28 28 25 20 26 25 21
50 51 51 50 50 52 49 39 48 52 41 32 35 35 37 37 33 35 35 36 37 38 36 33 35 36 38 35 34 34 33 30 26 25 25 27 27 30 28 28 29 25 31 20
50 51 50 49 51 52 49 46 42 44 40 37 33 35 34 34 37 37 35 36 37 38 37 38 36 35 37 37 35 40 37 29 27 23 21 26 25 30 27 27 27 24 26 22
50 50 49 51 51 51 49 43 41 43 37 36 33 34 35 33 34 37 36 35 35 36 35 35 35 36 32 34 39 38 33 29 28 28 28 26 22 24 28 25 25 26 23 23
50 49 49 51 51 51 48 42 39 37 37 39 34 38 35 33 35 36 35 35 37 37 35 34 35 35 30 26 36 36 34 30 28 27 30 28 26 25 24 27 26 26 26 26
49 49 49 51 51 50 46 49 44 38 36 39 33 36 37 35 38 40 38 37 36 35 38 38 38 37 37 34 36 34 32 30 26 22 25 23 23 25 25 25 27 27 25 27
49 49 50 50 50 49 48 49 44 38 32 37 33 37 38 37 37 37 39 38 37 39 40 38 37 36 38 37 35 34 30 26 24 26 23 19 22 28 27 27 27 27 27 29
49 50 50 50 50 50 52 51 45 38 33 34 36 39 40 41 42 41 41 42 40 40 35 35 31 31 32 33 34 31 31 28 25 27 21 18 16 20 27 29 24 29 28 31
50 49 50 50 50 51 52 52 48 42 37 35 38 40 40 38 39 39 42 43 41 36 32 31 29 28 27 25 32 34 30 29 30 24 22 19 22 21 32 30 28 30 33 35
49 49 49 50 50 51 52 52 49 46 42 44 42 40 39 40 39 39 40 39 40 37 32 31 29 27 25 24 25 30 33 31 29 21 27 24 24 27 32 25 27 32 36 36
49 49 49 49 49 50 53 51 52 47 44 46 48 45 41 41 41 39 41 39 39 35 34 34 30 32 30 28 28 31 30 30 30 25 24 24 28 32 32 35 34 34 38 38
48 49 50 49 49 50 52 51 53 50 47 46 49 49 49 48 43 43 41 40 39 39 35 32 31 33 32 29 30 32 29 31 31 28 30 32 31 36 35 35 34 35 38 38
48 49 50 50 50 50 51 52 50 46 44 45 46 46 48 48 48 47 42 40 42 38 38 35 34 33 33 32 31 32 32 32 32 31 30 30 32 33 34 35 36 37 39 39
48 49 50 50 50 51 51 50 49 43 42 37 43 46 46 48 50 49 46 43 42 40 39 35 34 35 33 32 32 33 33 33 32 32 33 33 32 35 37 37 38 39 40 41
49 49 49 50 50 51 51 50 49 48 40 38 41 44 45 47 48 46 45 43 43 41 37 35 35 33 35 34 34 33 34 33 34 33 33 34 34 34 38 39 39 41 41 38
48 50 50 50 49 48 46 43 48 48 46 42 37 42 42 44 46 46 46 45 43 41 39 36 36 38 36 34 33 35 35 36 34 34 35 35 37 37 40 41 41 41 37 32
48 48 49 50 49 49 40 37 45 46 45 40 36 37 40 42 44 43 44 45 43 42 39 36 36 39 36 34 33 37 38 39 40 39 39 39 39 39 39 32 28 29 29 32
48 48 48 48 48 48 47 47 46 46 40 38 34 34 37 42 40 38 42 40 42 41 40 38 37 38 37 35 36 35 36 37 39 40 41 40 31 27 26 29 33 34 33 33
47 47 47 48 46 45 46 46 46 46 41 35 31 32 33 41 38 37 38 40 37 39 36 37 40 35 33 30 32 34 35 36 38 33 29 32 33 34 34 33 32 32 32 32
46 46 43 38 44 46 45 42 39 39 38 40 34 36 35 40 36 35 36 36 35 37 35 38 35 33 30 32 34 35 35 35 37 35 33 34 33 33 34 34 35 34 34 33
44 41 39 44 44 42 37 35 35 36 33 37 36 37 36 39 37 35 35 34 34 33 33 35 32 31 29 34 35 34 34 35 35 35 35 35 35 34 34 34 34 34 33 30
43 43 43 41 38 35 35 33 34 34 33 34 35 35 38 36 37 36 35 33 33 30 34 33 29 30 35 35 35 36 36 36 35 35 35 35 34 34 34 32 28 27 29 30
41 37 34 36 33 29 26 31 33 33 33 34 34 34 34 36 36 34 34 33 32 34 32 30 31 33 34 35 35 35 36 35 33 32 32 31 28 28 29 30 30 30 29 29
35 34 32 29 32 32 32 33 33 32 33 33 34 33 34 33 33 32 32 31 32 30 26 24 31 32 32 32 33 34 32 29 28 26 26 27 27 27 27 26 26 26 28 28
33 33 28 28 31 32 32 32 33 33 34 33 34 34 34 32 32 31 30 27 24 24 23 29 31 31 31 33 33 33 33 29 29 28 28 26 25 26 27 28 28 28 26 26
33 32 30 31 31 31 32 32 32 34 33 33 34 32 30 29 30 26 25 24 21 25 31 32 33 33 33 34 34 34 34 31 30 29 27 27 26 26 27 27 28 27 27 25
31 31 33 32 32 32 32 32 32 35 33 32 32 27 27 29 27 26 29 26 28 32 33 34 34 34 34 35 34 31 29 28 28 28 29 28 28 27 27 26 26 25 26 26

GFSNW_sfc_dewp_030.txt.gz
Dewpoint
50 53 51 51 51 51 51 47 39 56 53 42 40 34 30 39 32 35 32 30 29 28 30 29 24 27 29 35 33 30 31 31 30 26 29 30 28 27 24 23 20 28 27 14
49 52 51 51 51 51 48 41 47 53 47 38 40 35 31 38 31 33 34 31 32 35 33 31 33 34 35 34 33 33 33 31 28 26 27 28 27 28 25 28 30 25 31 15
49 51 51 50 50 51 49 42 45 49 44 38 35 32 31 33 36 34 35 36 37 37 35 37 36 35 35 35 34 40 36 32 28 26 22 25 25 27 26 23 26 19 22 11
48 51 50 50 51 51 50 45 41 43 39 36 35 33 30 31 33 35 36 35 34 34 35 35 35 35 32 35 39 38 35 30 29 26 26 25 23 24 26 22 22 24 14 17
48 51 50 50 50 51 49 42 41 42 38 36 33 34 32 30 33 34 33 34 36 37 35 33 35 35 32 31 36 36 34 32 30 28 28 26 26 24 23 25 24 24 20 21
49 50 49 49 50 51 47 51 44 39 40 36 34 32 30 30 38 39 36 37 37 37 37 39 39 38 35 33 36 37 34 34 29 24 25 25 32 28 24 23 26 26 24 23
50 50 49 49 50 50 48 51 44 43 39 36 29 31 34 35 37 38 38 38 38 40 41 39 39 38 36 36 36 35 34 31 32 32 28 30 17 24 24 24 24 22 24 22
49 48 49 49 50 50 53 53 46 44 41 37 32 34 36 40 41 41 40 42 41 42 39 38 35 38 40 37 34 32 31 32 32 36 23 19 9 18 21 25 19 23 23 23
48 48 49 50 50 50 55 55 51 47 46 40 33 37 41 40 41 42 42 41 42 37 40 40 37 33 29 30 33 34 30 32 34 31 34 32 22 25 30 30 23 25 29 31
48 49 49 50 50 50 56 56 54 47 48 40 43 38 41 42 42 42 41 40 41 39 42 43 40 34 27 26 30 34 37 37 36 32 36 28 23 23 32 24 24 32 34 34
49 49 49 49 49 51 55 55 56 51 49 46 48 44 43 42 43 44 42 40 42 42 44 44 38 41 32 29 27 31 32 35 36 32 35 31 27 31 30 33 34 34 34 37
48 49 49 49 49 51 53 53 54 53 49 49 51 50 49 48 44 45 44 43 41 42 43 43 42 38 37 35 33 32 30 33 34 31 31 30 32 34 35 37 37 36 37 36
48 48 49 49 49 51 53 54 55 52 52 48 48 48 49 51 51 50 44 46 43 42 44 43 44 38 40 37 35 34 33 33 34 31 27 30 31 32 33 33 35 35 36 36
48 48 49 49 49 50 51 52 53 53 50 42 47 48 48 49 51 50 48 47 45 43 44 47 42 43 37 40 35 36 34 34 32 33 32 30 31 32 34 36 39 39 39 40
49 49 48 49 50 51 52 53 52 51 46 45 48 47 47 48 48 46 46 46 44 45 46 43 45 40 41 40 39 38 33 33 36 35 34 34 34 36 39 39 40 41 41 40
49 49 49 49 49 50 51 49 51 49 50 50 46 46 45 47 48 48 48 46 46 45 45 42 40 38 41 39 38 38 38 39 39 38 40 40 40 40 41 40 38 38 37 34
48 49 48 48 50 53 49 46 48 47 49 49 42 45 44 45 46 46 47 48 47 46 44 40 42 42 41 40 39 37 37 37 40 40 42 40 37 35 34 34 35 37 36 35
49 49 48 49 48 49 50 49 47 47 44 47 42 41 46 45 45 44 44 45 48 44 42 41 41 41 42 39 34 36 37 38 39 35 38 35 34 34 34 34 35 33 34 34
48 48 48 52 51 52 50 46 46 49 46 43 38 42 39 43 41 41 43 45 40 42 41 41 42 38 36 31 33 35 36 37 37 36 36 35 34 33 34 35 35 34 34 35
47 50 48 47 49 45 46 46 47 46 46 43 36 40 39 41 42 39 41 42 39 39 40 40 39 31 32 34 35 35 36 36 36 35 33 34 33 33 34 35 35 34 33 32
50 48 45 49 45 47 44 41 41 41 39 40 39 41 39 41 40 39 40 37 38 36 37 38 35 30 31 35 34 35 36 36 36 35 35 33 34 35 35 35 35 34 33 31
47 47 46 45 42 42 37 35 38 38 37 38 39 39 40 40 41 39 38 36 36 34 38 36 31 31 35 35 35 35 35 35 35 35 34 34 33 33 32 30 27 28 30 32
47 44 40 41 38 36 36 32 35 35 36 36 36 35 39 40 41 37 38 35 34 37 34 32 31 34 35 35 36 36 34 33 31 30 29 28 28 29 30 30 30 34 30 30
39 38 34 35 35 34 35 36 36 34 34 36 37 36 39 37 36 35 34 32 35 32 30 29 32 33 34 35 36 31 30 31 29 28 28 28 28 28 32 33 32 33 31 31
35 37 31 31 32 33 33 33 34 34 35 36 37 37 38 35 34 34 33 31 30 30 31 31 33 34 35 35 32 30 31 33 31 30 29 32 32 30 30 31 29 29 30 28
35 34 32 33 32 32 33 33 32 35 35 36 37 34 34 32 34 32 31 31 28 30 33 33 33 33 34 34 34 34 34 31 29 29 29 30 31 31 30 29 27 27 27 26
33 32 33 33 33 32 32 33 33 35 34 32 36 33 30 32 31 30 32 32 33 34 34 34 33 33 33 36 35 33 30 29 30 30 29 29 28 27 24 22 19 20 21 24

GFSNW_sfc_dewp_033.txt.gz
Dewpoint
48 50 51 52 52 51 50 50 40 54 58 41 44 38 34 32 27 34 28 28 24 23 24 23 20 22 23 30 30 27 29 26 28 26 28 28 28 25 25 26 19 25 29 15
47 49 49 52 52 51 47 46 46 57 53 41 44 38 32 30 29 31 30 26 27 25 26 25 23 23 37 36 34 28 32 26 26 25 27 27 23 23 24 22 27 23 28 18
47 48 49 51 51 51 50 44 44 50 51 42 40 36 32 31 32 30 29 24 32 30 28 30 28 28 35 37 34 40 37 28 26 25 22 23 26 22 22 24 26 23 20 16
47 49 48 51 51 50 50 46 40 43 42 43 41 36 32 29 31 33 34 31 31 31 31 31 32 33 34 36 39 35 35 29 27 25 25 23 21 20 21 20 20 23 20 10
47 47 48 50 51 50 49 42 38 41 41 42 38 36 31 27 30 33 32 30 29 29 30 32 30 34 33 32 37 36 34 31 31 31 28 26 24 23 20 19 19 16 16 16
48 47 48 49 50 50 46 52 46 41 43 43 37 36 31 28 35 39 32 31 31 34 36 40 39 38 35 34 37 37 35 33 31 23 25 25 31 28 24 21 20 21 23 22
47 46 47 49 50 50 47 50 47 44 42 41 34 32 31 30 35 36 36 36 36 42 41 40 39 37 35 35 36 37 36 35 35 31 30 28 16 20 19 22 20 18 17 18
46 45 46 49 50 50 54 56 49 43 46 36 32 31 32 32 39 38 39 41 41 43 40 38 37 39 39 33 31 30 32 33 33 37 23 19 14 13 18 20 16 20 20 20
47 47 48 49 49 50 54 58 54 46 48 39 30 31 31 36 40 43 42 43 43 42 43 42 33 31 28 31 33 31 30 33 33 30 33 30 27 23 26 26 23 24 24 24
48 48 49 49 49 50 54 57 58 42 39 34 35 33 34 36 38 39 43 43 42 42 46 43 40 35 30 29 32 36 37 38 36 33 35 30 24 23 29 25 30 31 29 29
48 48 49 49 49 50 52 56 57 49 46 45 45 38 36 39 39 44 43 42 43 43 43 46 41 42 35 32 28 33 33 37 37 37 36 31 26 28 27 35 32 31 33 32
48 48 48 49 49 50 51 56 55 55 48 49 52 51 50 48 46 42 45 39 43 42 41 47 48 42 41 39 32 31 31 33 36 31 32 30 29 28 30 32 34 34 34 34
48 48 49 49 50 50 53 55 56 52 52 48 48 47 50 50 52 52 44 48 43 44 48 46 48 41 43 39 38 35 32 33 34 31 25 26 28 30 31 33 35 35 36 37
48 48 49 49 50 50 52 53 55 52 51 46 48 49 49 50 50 50 50 48 49 48 47 52 44 44 40 43 38 36 35 34 30 32 30 30 29 34 37 39 40 40 40 41
48 48 49 49 50 51 54 55 55 54 47 47 48 49 48 48 48 47 48 48 46 46 48 45 46 43 44 44 42 40 33 33 37 36 35 38 37 40 41 41 40 40 40 39
48 48 49 49 49 51 53 51 52 52 53 50 48 48 47 48 48 47 46 47 46 46 48 47 42 41 45 43 39 38 37 38 39 39 41 41 41 37 37 37 37 37 36 35
48 48 48 49 50 54 48 43 51 49 53 51 46 46 47 47 47 48 47 49 48 47 47 45 46 43 43 42 40 37 37 37 39 39 41 40 36 36 38 37 36 37 36 36
48 48 48 49 50 49 50 47 47 49 47 48 43 43 48 47 48 47 47 49 49 46 44 45 44 43 45 42 37 37 37 39 37 37 37 37 36 36 35 36 34 32 32 33
48 48 49 52 52 52 49 46 47 52 49 45 39 41 39 45 43 45 46 47 43 44 43 43 43 41 38 35 35 36 37 37 36 36 35 35 35 34 34 33 33 34 36 34
49 50 46 49 50 45 48 48 49 48 47 44 40 44 43 43 44 42 43 43 43 39 41 43 41 35 34 34 35 36 36 36 36 36 34 35 34 33 33 34 34 32 31 30
51 50 47 50 46 49 46 43 43 43 41 41 40 43 41 43 41 38 42 40 41 37 38 39 37 33 33 35 35 36 36 37 37 35 34 34 34 35 34 32 32 33 30 30
49 49 48 47 45 45 39 37 39 40 37 39 39 40 40 42 43 39 41 37 38 36 38 38 34 32 35 35 35 35 34 34 33 33 32 32 31 30 29 27 29 30 31 33
49 46 43 43 40 37 36 32 36 35 38 37 39 37 42 41 41 39 38 36 37 38 36 33 33 34 35 35 34 34 34 33 31 29 28 27 28 30 30 30 31 36 30 31
43 41 36 36 34 35 35 36 36 35 36 39 40 38 40 40 38 38 37 34 36 34 31 32 32 33 34 36 34 32 30 33 28 27 28 29 29 30 33 33 33 33 29 28
36 38 33 32 33 34 34 34 35 35 37 40 40 39 40 36 35 37 35 32 31 32 33 33 34 34 35 36 32 29 29 32 32 30 30 34 34 30 30 30 28 28 28 28
36 35 32 33 33 32 33 33 33 36 36 39 41 37 36 33 35 33 34 33 31 32 34 35 36 34 36 34 32 33 33 32 30 30 31 32 32 34 30 27 24 29 27 25
35 33 34 34 33 32 32 33 33 35 35 34 37 35 33 34 33 32 34 33 34 35 34 34 35 34 35 36 35 34 32 30 31 31 30 30 29 27 23 20 19 18 19 25

GFSNW_sfc_dewp_036.txt.gz
Dewpoint
47 48 48 50 52 52 51 47 38 51 56 45 39 41 38 35 32 27 28 26 21 21 23 21 19 19 23 24 26 26 26 27 31 24 25 25 25 27 24 35 24 30 36 25
46 47 48 50 51 52 50 42 44 56 53 36 39 41 38 33 31 29 29 27 26 24 23 22 22 22 36 35 30 30 32 29 29 22 25 27 24 21 20 25 32 29 35 25
44 47 47 50 51 52 51 42 43 51 52 39 38 40 36 32 33 27 29 27 26 26 24 26 25 24 35 36 34 40 40 27 22 27 22 25 27 24 19 22 35 29 26 17
43 46 47 48 51 51 51 47 41 45 43 44 40 41 35 31 30 29 29 27 24 29 27 25 28 26 35 35 38 34 34 25 24 21 22 24 25 22 20 18 23 26 26 16
46 46 46 48 51 51 48 43 40 44 41 43 40 40 38 30 27 29 31 28 27 30 29 29 28 29 35 32 37 34 34 33 32 30 28 26 25 22 22 21 18 18 17 17
46 45 46 48 49 50 47 45 48 44 42 41 40 41 38 34 33 33 31 31 31 31 33 39 39 39 40 34 37 37 36 38 36 33 27 26 29 28 25 23 21 21 22 25
45 46 46 45 47 50 49 46 49 46 41 39 39 40 37 32 33 37 33 34 35 40 40 40 39 37 36 37 37 37 37 39 41 37 32 28 20 20 17 20 18 17 16 19
45 47 47 47 46 48 50 54 55 49 43 39 38 40 37 33 34 37 37 42 42 44 42 41 38 41 39 36 32 32 35 39 38 36 29 23 19 16 18 18 18 21 20 21
46 47 47 47 47 47 50 51 56 54 47 42 37 35 37 36 43 43 42 44 47 45 45 46 37 35 30 29 31 28 29 38 41 36 35 30 29 23 23 23 29 27 27 28
47 46 46 47 47 46 50 52 54 56 47 42 41 36 38 42 45 43 44 43 43 45 50 41 44 38 29 33 34 36 38 41 37 35 37 34 26 25 27 28 33 32 32 32
47 46 46 46 46 47 50 50 53 55 51 43 43 39 38 40 44 45 45 43 43 48 45 47 45 43 40 35 29 36 36 39 37 40 35 31 26 27 27 37 37 35 34 36
46 47 47 47 48 49 50 48 52 55 55 50 53 51 50 49 49 48 47 44 43 44 44 48 50 40 41 42 37 30 35 36 39 36 37 35 30 31 32 36 35 36 38 37
46 47 47 47 48 49 50 49 52 57 53 49 47 48 50 51 52 55 47 50 45 46 50 49 50 40 47 38 42 40 32 34 38 36 27 27 29 30 35 38 39 38 39 40
46 47 48 49 49 50 51 50 54 58 51 47 49 49 49 50 50 51 53 52 53 53 53 54 43 42 43 47 41 42 36 34 31 32 31 32 37 39 41 40 41 41 40 38
47 48 48 48 49 50 52 53 55 58 50 46 49 48 49 48 49 48 50 52 51 51 50 42 49 47 48 47 46 45 34 33 41 41 38 39 40 38 39 38 37 36 35 34
48 48 48 49 50 50 52 51 53 54 53 49 46 48 47 47 47 47 49 49 50 48 51 49 46 44 48 42 43 37 38 38 39 40 40 41 38 38 38 37 37 36 35 35
48 48 49 50 49 53 52 47 50 50 56 51 44 45 47 48 48 49 47 49 49 48 49 49 46 43 45 42 44 38 38 38 39 39 40 38 38 37 37 36 36 36 34 33
48 49 49 49 48 50 50 51 48 50 49 50 43 40 47 48 50 47 49 50 49 47 45 46 47 44 49 44 38 38 38 38 37 37 38 37 36 36 35 34 33 31 32 33
48 49 49 51 53 54 49 49 48 56 50 46 39 41 38 46 44 46 47 48 42 45 43 45 44 41 40 38 37 37 38 38 36 36 36 36 35 34 33 32 33 33 34 33
48 50 48 45 51 47 48 49 48 46 48 45 42 45 43 44 45 41 43 43 42 40 41 43 40 35 35 36 36 36 37 37 37 35 35 34 33 32 32 33 34 33 31 29
53 51 46 50 47 49 46 43 43 43 42 40 42 43 42 44 41 39 43 40 41 37 39 40 37 34 34 36 35 36 37 37 37 36 35 34 34 34 34 32 32 31 32 32
50 49 50 49 47 45 38 37 40 40 38 39 40 41 41 43 44 40 41 36 39 35 39 37 34 34 34 35 35 35 36 35 34 33 33 33 33 32 30 29 31 32 33 31
51 47 41 44 39 36 36 33 36 34 36 37 39 37 42 42 41 39 37 35 36 41 36 32 33 34 35 35 34 34 33 33 32 31 30 29 30 31 32 32 33 33 32 31
43 39 34 35 34 33 33 34 34 34 35 38 40 38 38 39 36 36 33 34 36 33 31 32 33 34 36 35 35 32 31 33 30 28 29 31 31 31 32 31 32 29 27 27
37 37 32 32 33 33 33 34 35 35 38 40 40 40 39 36 35 37 34 32 31 32 33 34 34 34 36 35 34 31 32 33 31 29 32 31 31 31 30 29 27 27 26 26
34 33 32 33 33 32 32 33 33 35 37 40 42 37 35 33 35 33 34 32 31 33 34 34 34 34 36 35 31 32 32 33 31 31 32 32 31 31 28 25 23 26 25 22
34 32 32 33 32 32 32 32 32 35 36 33 37 33 32 34 34 32 35 32 34 34 35 34 34 34 36 35 35 34 33 31 32 32 32 30 29 28 25 23 19 20 22 22

GFSNW_sfc_dewp_042.txt.gz
Dewpoint
45 46 46 46 46 48 48 46 40 50 52 42 40 38 38 39 37 40 40 39 33 27 27 25 23 23 23 32 36 30 35 34 28 29 31 33 30 29 28 25 19 27 25 21
44 45 46 45 47 47 45 42 43 50 48 37 34 37 38 38 36 38 38 36 36 31 27 27 30 33 38 39 32 31 34 31 27 24 27 32 28 26 29 33 30 25 22 22
44 44 45 45 47 47 46 43 38 46 46 39 32 34 35 37 38 37 40 40 39 33 29 31 30 35 38 41 36 40 36 31 28 23 22 27 28 30 31 27 26 24 25 24
44 44 44 45 46 47 46 44 37 40 38 39 34 33 35 36 35 39 40 37 37 37 29 27 33 37 36 39 38 36 32 27 26 25 27 29 27 26 28 24 25 23 23 24
43 44 45 46 46 48 43 40 40 42 41 40 38 34 33 31 32 34 32 37 37 34 29 28 29 35 34 31 36 32 34 26 27 26 29 27 26 25 25 25 25 26 24 24
43 43 45 45 46 48 42 44 44 44 38 39 38 36 33 31 32 35 34 37 36 35 33 34 33 37 37 36 33 34 33 33 28 26 26 25 23 24 24 25 27 26 22 24
42 43 46 45 45 47 47 42 43 43 37 40 39 37 34 33 33 31 37 36 37 38 42 40 38 37 42 41 40 38 34 33 29 25 23 16 27 26 25 25 25 23 23 26
42 44 44 45 45 46 45 47 44 45 35 38 41 38 35 33 35 39 34 40 38 42 42 38 33 33 31 33 35 36 39 33 29 23 23 25 25 21 21 24 26 29 28 30
43 43 43 44 45 45 46 44 49 46 42 38 39 40 37 34 38 37 42 46 47 47 42 34 29 28 30 30 29 35 36 36 30 28 20 16 25 25 27 29 26 31 33 34
43 43 43 44 45 44 46 44 48 45 44 46 41 38 37 37 39 41 45 44 42 44 34 32 29 29 32 29 27 26 29 29 25 22 21 24 29 27 30 18 22 33 34 34
43 43 44 44 44 45 45 45 49 44 43 46 49 41 37 37 41 40 43 43 42 40 34 33 31 27 31 31 33 30 28 28 24 28 22 19 33 29 25 30 35 36 36 38
44 44 44 44 45 45 46 43 48 49 44 46 48 48 49 45 43 46 45 42 42 44 40 37 36 31 29 30 29 36 28 30 29 30 29 34 36 34 37 38 38 40 41 42
44 44 44 44 45 47 46 46 47 46 43 44 47 47 50 51 48 50 44 45 47 47 45 42 39 31 33 28 29 32 34 39 35 32 37 39 40 41 41 39 36 36 37 36
46 45 45 46 46 47 45 45 49 46 46 39 45 53 49 52 50 48 47 47 49 51 48 39 36 34 38 30 33 32 35 34 33 37 39 39 39 38 35 35 35 34 34 34
46 46 46 46 47 47 46 47 49 51 47 39 44 49 51 53 52 48 49 47 48 45 38 35 36 40 39 35 35 31 35 33 31 32 39 37 37 37 37 35 34 34 33 33
46 46 46 46 46 46 46 41 47 50 51 44 38 47 50 52 53 51 50 49 49 47 42 39 42 43 36 30 28 37 39 40 40 39 39 38 37 36 36 35 35 34 33 33
46 46 46 46 46 47 44 42 47 48 51 44 38 40 49 51 50 49 49 49 47 48 44 37 38 40 39 31 31 38 39 39 38 38 37 36 37 35 35 34 34 34 33 33
46 46 46 47 47 47 46 49 50 51 47 47 37 39 42 49 43 43 48 45 43 43 40 38 35 39 31 31 38 38 37 38 38 38 38 37 35 33 32 33 33 32 32 31
46 46 47 48 47 45 46 49 49 51 48 39 35 36 36 45 40 39 40 40 37 42 35 35 37 30 31 36 37 37 37 36 35 36 35 34 32 31 32 32 31 30 29 29
47 47 45 40 46 49 49 48 44 43 43 40 36 40 37 42 36 36 33 36 35 34 36 39 33 32 35 36 38 37 37 36 35 33 32 33 31 32 32 31 31 31 29 28
46 45 42 49 49 48 44 36 35 37 34 35 38 39 38 42 35 35 34 34 33 31 34 33 33 32 35 35 37 37 37 37 35 35 34 33 33 33 32 31 31 30 29 28
47 48 49 47 44 37 34 32 33 34 33 35 36 38 40 38 42 36 35 32 31 30 35 33 30 30 34 38 38 38 37 36 35 34 34 34 33 32 31 29 29 29 29 28
47 42 37 38 34 30 25 26 31 31 33 35 35 34 36 37 38 34 34 27 29 30 32 26 28 35 36 37 37 36 36 36 35 33 33 32 32 31 29 28 27 28 27 24
37 32 30 31 29 29 30 31 32 32 33 34 34 34 35 33 34 33 31 32 33 28 24 23 31 34 35 36 35 33 31 31 31 31 31 30 30 30 30 27 26 24 23 20
33 32 28 28 31 32 32 33 33 33 34 34 34 34 34 33 33 32 32 30 27 26 23 31 33 34 33 33 31 31 30 30 30 30 29 29 28 27 26 26 24 24 22 19
30 31 31 32 32 31 31 32 32 35 33 33 32 32 32 31 31 30 29 24 24 29 31 33 34 33 31 30 30 31 32 31 30 30 29 28 26 25 24 23 21 20 19 16
30 29 32 32 31 30 31 32 32 34 34 32 31 29 29 31 30 28 30 27 29 31 32 34 34 32 33 33 33 32 33 32 31 31 29 27 25 24 23 20 19 19 19 17

GFSNW_sfc_dewp_045.txt.gz
Dewpoint
45 47 47 46 48 47 47 41 36 49 51 42 40 33 37 38 36 40 40 40 38 34 27 25 24 24 23 25 33 27 33 29 25 26 31 33 29 28 26 25 20 26 25 21
46 46 46 46 47 47 45 38 39 50 47 37 36 36 34 37 36 36 37 38 38 36 29 24 27 27 33 38 31 32 34 29 24 23 26 31 28 29 31 31 28 25 22 22
47 46 46 45 45 47 46 40 35 44 45 39 35 34 35 36 38 37 38 39 41 37 32 30 29 32 36 38 34 40 36 31 26 22 23 28 27 28 28 29 26 24 24 23
47 45 45 45 45 46 46 40 33 39 38 38 38 35 34 35 34 37 37 34 38 38 34 29 31 36 36 37 37 37 32 26 27 26 24 27 26 27 29 25 25 24 24 25
46 45 45 45 44 45 43 36 39 40 38 38 37 36 32 33 35 36 34 33 37 34 35 32 30 34 34 33 34 32 33 27 25 29 28 26 25 25 26 26 25 25 25 23
45 45 44 44 44 45 42 40 43 41 37 36 35 33 32 32 35 36 35 35 37 37 37 37 33 36 36 34 33 32 31 31 26 21 26 25 23 25 25 25 26 26 23 24
45 44 43 44 44 43 44 39 43 42 33 37 34 33 34 33 34 32 35 34 33 38 41 40 38 38 40 39 38 36 33 30 27 24 24 17 24 28 26 25 25 24 25 27
44 43 43 44 44 44 42 42 44 43 33 36 36 36 34 34 34 33 32 35 31 43 41 36 33 32 32 31 37 38 36 32 27 24 24 24 25 25 24 23 23 28 27 31
43 43 43 44 45 44 44 44 47 45 40 37 38 37 36 34 33 33 34 38 43 44 40 33 29 30 31 29 30 35 33 34 30 25 21 18 27 27 26 28 24 29 32 32
43 43 43 43 45 45 44 45 47 45 39 42 41 39 37 36 35 35 38 40 43 44 35 31 29 28 33 28 27 26 29 29 27 23 21 25 27 28 28 18 21 33 34 34
41 42 43 45 45 45 44 44 47 44 40 42 45 45 40 39 36 35 41 42 42 37 34 33 32 28 32 29 30 28 30 28 24 25 18 21 30 28 22 27 34 35 35 37
42 43 43 44 44 45 45 42 47 49 43 43 45 44 44 44 43 38 44 40 42 42 38 36 35 31 29 30 28 34 26 31 30 29 28 32 36 31 36 36 36 37 39 38
43 43 43 44 44 44 44 44 47 46 42 41 42 42 46 47 47 48 41 43 46 45 46 41 37 31 33 29 29 32 33 36 32 32 36 39 40 38 38 39 39 40 40 35
43 43 43 44 44 45 45 43 47 45 43 36 40 51 50 52 52 50 46 46 50 48 46 40 36 31 37 30 33 33 34 35 35 35 38 38 38 35 35 35 35 34 34 34
44 44 44 44 44 45 45 45 46 47 41 38 41 46 50 53 52 49 47 49 48 44 40 34 34 38 39 35 34 31 35 34 33 32 38 36 37 36 36 35 34 34 33 33
44 44 44 44 45 44 43 39 43 48 49 40 35 45 49 51 51 48 46 47 48 46 41 38 42 44 39 32 30 35 38 39 36 35 39 38 37 35 35 34 34 33 32 32
45 44 44 44 45 45 41 38 42 45 49 43 35 37 45 51 49 47 48 48 46 47 43 36 39 41 38 31 31 37 39 39 38 37 36 34 35 34 34 34 33 34 33 33
46 46 46 46 46 45 40 47 47 47 45 44 35 36 41 49 43 42 47 43 44 43 41 37 36 38 31 31 37 38 38 37 37 37 37 36 34 33 33 33 33 32 31 31
45 46 46 45 44 40 43 49 50 51 46 38 34 34 35 46 42 40 41 43 37 42 36 37 39 33 33 35 37 38 37 37 35 34 33 33 32 32 32 31 30 29 29 29
46 45 43 38 43 47 47 45 42 42 43 42 35 40 37 43 37 35 37 36 35 35 36 39 34 33 35 35 37 37 36 35 34 32 31 31 31 31 31 30 30 29 29 29
44 41 39 47 48 46 41 36 35 36 33 36 38 39 38 42 36 34 35 34 33 33 36 35 33 33 34 36 36 36 36 36 36 35 34 34 33 31 31 31 30 28 28 28
43 47 47 46 42 38 33 32 33 32 33 34 35 37 40 37 41 35 35 33 32 31 36 34 32 31 34 36 36 37 37 36 36 35 34 34 33 32 31 29 28 28 28 25
47 41 36 38 33 31 30 28 31 31 33 35 34 34 34 34 36 31 29 23 24 33 32 31 29 34 37 38 37 36 36 36 35 34 34 33 31 30 29 28 29 27 26 25
36 34 29 30 28 29 29 31 32 32 32 33 34 33 34 33 32 30 26 32 32 26 22 22 31 34 36 36 36 34 34 34 33 32 31 29 28 27 28 28 26 24 20 20
32 33 27 28 31 32 32 32 33 33 34 34 34 33 34 33 32 31 31 30 27 22 20 29 33 34 34 34 33 32 31 31 31 31 30 29 27 25 25 24 23 21 20 19
31 31 30 31 31 30 31 31 32 34 33 33 33 30 29 31 31 29 28 26 25 28 30 32 33 32 32 31 31 31 31 31 31 31 30 29 28 25 24 24 22 20 18 17
29 29 32 31 31 30 31 31 31 34 33 32 31 30 29 32 28 27 29 25 28 31 32 33 31 31 31 32 32 32 32 31 30 30 29 28 25 22 20 19 20 18 18 18

GFSNW_sfc_dewp_048.txt.gz
Dewpoint
46 45 46 47 47 47 46 43 33 45 51 40 41 35 35 37 37 38 37 40 38 36 28 26 24 24 23 25 29 23 31 27 21 24 29 31 27 27 27 25 20 25 25 22
46 45 46 47 48 46 43 38 35 48 45 32 33 36 35 36 36 36 37 37 38 38 31 24 27 27 28 32 28 29 32 25 20 20 25 30 28 29 29 29 27 24 21 21
46 45 45 46 47 46 44 39 31 42 43 35 33 33 35 32 37 36 37 38 40 37 32 31 27 27 33 38 32 39 34 29 22 19 20 26 28 27 31 29 26 25 24 23
46 45 46 46 46 47 45 40 31 37 34 34 34 33 34 32 31 36 37 36 37 36 32 30 28 34 36 36 39 35 31 25 27 25 24 27 26 27 28 26 26 24 25 25
46 45 45 46 45 46 42 36 36 39 36 33 34 35 32 32 32 35 33 34 35 37 36 34 29 35 34 32 33 33 32 26 24 28 27 26 25 26 28 27 26 25 24 24
46 45 45 45 45 46 41 42 40 39 35 34 32 31 32 32 34 34 37 34 34 35 35 35 35 36 36 35 33 32 30 29 25 22 25 24 23 25 25 25 27 26 24 26
46 45 45 45 44 44 43 43 39 37 32 35 32 31 33 32 34 33 34 37 35 36 41 40 39 38 37 36 38 36 31 28 26 23 23 16 24 28 27 27 26 25 24 25
46 45 45 44 43 44 41 44 41 40 31 35 34 33 32 34 34 34 34 35 36 37 38 36 33 32 32 32 37 37 35 30 27 23 23 23 24 25 25 23 21 26 26 32
45 45 45 43 44 44 41 42 43 43 39 34 35 35 34 32 33 33 35 37 38 41 39 34 30 30 31 30 30 34 32 32 28 23 20 17 25 27 26 25 21 29 32 34
45 45 45 43 44 44 41 41 45 43 39 42 38 36 34 35 34 33 34 36 41 40 31 29 31 30 34 28 29 29 29 28 24 21 21 26 30 27 27 19 23 31 33 34
44 44 43 43 44 45 42 40 43 43 39 41 45 43 38 36 35 33 36 35 38 37 33 34 33 27 32 30 31 31 31 28 24 24 20 24 29 27 23 28 33 33 34 34
44 44 43 43 44 44 43 39 42 43 43 42 44 44 43 42 41 37 39 37 39 38 38 34 32 28 27 30 28 32 29 32 30 30 30 32 32 29 31 33 34 34 36 36
43 43 43 43 44 44 43 41 42 43 42 39 42 38 45 45 44 46 39 41 44 42 42 38 37 31 33 29 30 32 32 34 31 31 33 36 39 38 38 38 37 39 37 36
42 43 43 44 44 44 43 41 44 44 40 35 36 46 45 49 46 46 46 43 48 46 45 39 35 33 37 32 33 32 33 34 34 32 37 37 38 36 36 36 37 35 35 35
43 43 44 45 45 45 44 43 46 47 41 36 37 40 44 48 51 50 49 47 45 42 39 33 35 39 37 35 36 31 36 34 32 31 35 34 35 36 36 36 35 34 33 33
43 43 44 44 44 44 43 38 44 47 45 39 32 43 43 50 51 50 49 48 45 43 40 37 41 43 39 36 33 34 36 36 36 34 38 37 36 35 35 34 34 34 32 32
43 44 44 44 44 43 38 37 40 44 46 40 34 33 41 50 50 46 46 45 44 44 40 36 41 42 41 31 31 34 39 39 38 37 36 34 34 34 34 33 33 33 32 32
44 44 44 44 44 43 40 42 46 44 42 39 34 35 39 48 44 43 46 40 41 41 39 35 36 38 34 32 34 38 37 37 37 36 36 36 34 33 33 32 32 31 31 30
44 44 44 43 42 39 38 47 45 47 41 36 34 33 34 45 41 42 40 40 34 40 34 36 39 34 35 35 36 37 37 37 35 34 34 34 33 32 32 31 31 30 30 29
44 43 40 35 40 46 48 45 41 40 40 41 36 39 36 41 35 36 36 36 35 34 36 40 34 35 34 35 36 37 36 34 34 33 31 32 32 31 31 30 30 30 30 30
43 39 35 41 46 43 39 32 34 36 33 36 36 37 36 42 35 34 35 33 33 33 34 36 34 35 34 36 36 36 36 35 35 34 34 33 32 31 29 30 30 30 30 29
43 43 46 45 42 37 33 32 32 33 33 34 35 37 39 37 41 35 34 32 32 32 36 34 32 33 35 36 36 36 37 36 34 34 33 33 32 31 30 29 29 29 28 25
45 41 35 37 32 31 30 28 30 31 32 34 34 34 35 36 37 33 32 31 30 34 32 32 30 34 37 37 36 36 36 35 34 34 33 33 31 30 29 28 28 26 25 24
36 33 28 30 28 28 29 30 31 32 32 33 34 33 34 33 32 31 31 32 32 27 25 24 31 34 35 36 36 35 34 34 33 32 31 30 29 28 28 28 26 25 23 21
32 32 27 28 31 32 32 32 32 33 34 33 34 34 35 32 31 32 30 28 26 26 25 30 32 34 34 34 34 33 32 31 30 30 28 28 28 27 26 25 23 22 22 21
31 30 28 30 29 29 30 30 31 34 32 33 33 30 31 30 31 29 27 26 23 27 30 32 33 32 32 32 32 32 31 30 30 28 28 28 27 26 23 21 20 21 20 18
28 28 28 29 30 27 29 30 30 33 33 31 32 26 24 30 27 24 26 23 27 29 31 32 32 32 31 32 31 31 31 30 30 30 29 27 25 23 20 17 17 17 18 19

GFSNW_sfc_dewp_051.txt.gz
Dewpoint
47 48 48 47 48 48 47 41 32 42 46 38 37 33 34 36 34 39 37 39 39 37 30 27 27 26 26 26 29 26 33 32 27 27 29 30 30 30 30 30 24 27 27 23
48 47 48 46 47 48 44 37 37 44 43 30 32 34 34 35 36 36 37 37 39 39 35 27 29 29 32 32 29 32 33 28 23 21 25 31 29 29 29 30 30 26 30 25
48 48 48 46 46 47 45 38 32 40 41 34 29 32 32 33 35 35 37 38 39 38 35 34 30 30 33 35 32 40 35 30 27 21 22 28 30 29 30 30 29 28 27 26
48 48 48 46 46 46 44 39 33 37 32 32 30 32 31 31 32 34 37 36 35 37 32 33 30 34 37 37 41 36 36 28 29 25 22 27 28 28 30 27 29 29 28 25
48 48 47 46 46 46 41 36 35 37 35 32 31 32 31 31 31 32 32 34 37 36 35 35 33 34 35 35 36 36 34 30 30 27 27 26 26 27 28 28 27 27 26 26
47 48 47 46 46 46 40 42 39 34 35 33 30 30 30 32 34 33 33 34 35 37 37 37 38 38 38 38 36 34 33 32 29 25 26 26 28 28 28 29 29 29 28 30
48 48 46 46 46 46 43 43 39 36 30 34 30 28 32 32 33 32 34 36 33 37 42 42 41 38 38 38 38 37 33 32 30 29 27 25 27 28 28 29 28 28 27 26
48 47 46 46 45 45 44 43 41 38 30 33 32 31 29 34 36 34 33 37 39 39 38 37 33 35 35 35 37 36 35 32 29 30 26 26 24 26 28 27 23 28 27 27
47 46 46 45 45 45 44 43 44 42 34 32 34 33 31 31 33 34 36 40 41 42 38 33 29 31 33 32 32 34 32 33 34 27 27 25 30 27 28 26 24 29 29 32
46 46 45 45 45 45 42 43 46 42 38 40 38 35 33 33 35 34 37 36 38 40 34 33 31 31 35 32 31 32 31 31 30 27 31 29 30 28 30 26 28 32 32 34
46 45 45 45 45 45 41 42 45 42 38 39 41 42 38 36 34 33 36 37 38 38 33 34 34 33 35 34 33 33 32 31 31 29 31 27 32 27 28 35 32 34 35 37
45 45 44 45 44 44 42 39 44 44 40 41 44 44 44 41 37 36 39 36 37 38 38 37 36 35 34 34 31 33 32 34 33 32 34 37 33 35 33 34 35 36 37 37
45 45 44 44 45 44 41 41 42 41 36 38 40 40 46 46 44 44 39 42 43 42 44 40 39 35 35 32 33 35 34 37 35 35 35 34 36 37 39 37 36 36 37 36
45 45 45 45 45 44 41 40 42 40 38 34 36 45 43 48 47 45 45 45 48 47 46 40 37 37 38 35 36 36 36 37 34 34 35 38 38 39 38 37 39 37 36 36
45 45 45 44 44 44 42 43 43 42 39 34 35 41 41 45 48 46 46 46 46 45 41 37 39 39 38 37 37 35 36 35 35 34 36 38 36 39 38 38 37 36 35 34
43 44 44 43 44 43 42 37 43 45 42 35 30 40 41 47 49 48 47 46 46 46 43 40 41 43 40 36 35 36 36 40 42 36 40 37 36 36 37 36 36 35 35 33
44 44 44 43 43 42 38 37 41 43 43 38 34 35 41 45 49 48 48 48 47 46 43 40 41 43 42 36 34 35 37 39 39 37 37 35 35 35 35 34 34 34 32 32
43 43 44 43 43 43 41 44 45 43 41 39 33 34 39 47 43 43 47 44 45 43 42 39 41 39 38 37 38 38 39 38 37 37 36 37 35 34 33 33 32 32 31 31
44 43 44 42 40 37 39 44 44 46 40 33 33 33 34 45 41 41 41 43 38 42 37 39 41 36 36 37 36 38 38 38 38 35 35 34 34 33 32 32 32 31 31 30
43 40 38 35 38 44 45 43 39 38 39 39 33 39 37 41 37 36 38 36 35 35 37 40 36 37 36 36 37 38 37 36 35 34 33 33 32 32 32 32 32 31 30 29
40 37 35 39 45 42 38 34 33 34 32 36 35 34 34 41 37 34 35 34 34 33 37 37 36 36 35 37 37 37 36 35 35 35 34 34 33 32 32 31 32 31 30 28
41 42 43 43 39 35 32 31 32 32 31 35 35 36 38 38 41 36 34 33 33 32 36 35 33 34 36 36 36 36 36 35 34 34 34 33 32 32 32 31 31 30 28 27
43 40 35 37 33 30 30 27 30 31 32 34 34 34 35 36 36 33 33 32 32 33 32 30 30 34 36 37 37 37 37 36 34 34 33 33 32 32 31 30 29 29 28 28
33 32 28 29 27 28 29 30 31 32 32 33 34 33 34 33 33 32 32 32 32 29 26 25 31 32 34 36 36 35 34 34 33 31 30 30 29 29 29 29 29 27 26 26
32 31 26 27 31 31 31 32 32 32 33 33 33 34 35 32 31 32 32 30 26 26 26 29 31 33 33 33 33 32 31 31 31 31 29 29 28 28 28 28 27 25 25 23
31 26 23 27 26 24 26 27 28 32 32 33 34 32 32 30 31 27 24 25 20 24 28 31 32 32 32 32 32 31 31 30 29 29 29 28 27 26 25 25 24 24 23 22
28 25 25 25 25 23 24 26 27 32 33 29 29 21 21 27 23 19 21 18 21 24 27 32 32 31 31 31 31 30 30 29 29 28 27 26 25 25 23 21 22 22 21 21

GFSNW_sfc_dewp_054.txt.gz
Dewpoint
48 48 48 48 48 47 47 41 34 44 45 36 37 33 32 28 27 36 36 37 36 35 28 24 22 23 23 25 27 26 27 26 25 24 29 30 28 28 28 28 25 28 29 22
47 48 48 48 48 48 45 38 38 46 43 30 30 33 30 28 28 32 34 35 36 38 35 27 26 26 28 28 28 27 30 26 23 22 26 29 26 27 26 28 30 24 31 23
46 47 48 48 48 48 45 38 33 39 41 30 29 29 30 27 30 28 34 34 37 36 34 35 30 27 31 32 28 40 34 25 23 21 19 20 26 25 26 27 28 24 25 21
45 46 47 48 48 48 44 39 36 36 31 31 28 30 26 26 27 31 33 34 34 34 32 30 31 30 33 34 37 31 32 25 25 21 18 17 17 17 22 23 25 23 23 21
45 45 46 48 48 48 42 35 34 38 32 33 30 30 29 26 26 27 31 30 33 35 32 30 34 33 33 32 36 32 32 26 28 25 22 21 19 19 19 22 21 25 25 24
45 45 46 46 48 47 41 41 36 34 31 31 30 29 28 27 29 28 26 32 32 34 34 34 35 37 36 34 35 35 34 30 29 24 26 25 29 28 23 23 28 27 24 26
45 45 45 46 47 46 44 40 38 35 29 31 29 26 26 25 27 30 28 30 33 34 39 39 39 38 36 37 37 37 35 34 32 29 32 30 24 28 26 26 26 27 26 26
45 45 45 47 47 46 45 41 38 34 34 29 29 28 26 26 28 30 28 32 32 40 34 30 27 33 34 31 35 38 37 35 33 36 28 24 24 26 28 28 26 26 27 26
45 45 45 47 46 46 45 42 42 40 34 29 28 31 28 27 28 32 32 34 41 40 39 35 27 19 21 27 33 35 35 37 37 31 29 32 26 26 29 28 27 26 26 28
45 45 46 46 46 46 44 44 47 43 34 30 31 34 31 29 29 34 34 37 38 40 39 38 32 27 28 26 30 36 34 35 36 33 34 30 29 28 29 26 29 30 29 30
45 45 46 46 46 45 43 45 47 44 37 35 35 36 35 30 33 34 34 36 37 38 36 36 34 36 33 32 29 34 33 34 36 35 37 33 31 28 27 32 36 34 35 35
45 46 46 46 46 44 43 41 46 46 42 41 43 43 43 44 34 34 38 31 30 36 34 37 35 41 40 33 30 35 34 35 34 33 32 36 35 32 33 37 34 36 36 36
46 46 46 46 46 44 43 43 44 42 39 37 38 37 41 44 44 45 36 40 33 35 37 39 39 40 39 39 34 32 35 37 37 35 32 34 36 33 35 34 35 34 35 37
46 45 45 46 46 45 43 42 43 40 38 34 31 39 37 40 42 45 45 39 43 43 42 42 42 41 35 38 33 36 32 36 35 36 36 36 37 37 36 37 38 37 36 38
46 46 46 46 45 43 44 43 41 40 35 33 33 38 39 43 45 45 45 44 44 46 44 40 39 41 41 42 40 39 35 35 38 36 36 39 35 37 39 38 38 37 37 37
45 46 45 44 43 42 39 37 42 43 41 37 33 40 38 41 42 45 44 43 43 44 43 45 40 41 40 42 37 33 36 36 37 36 39 39 39 37 39 39 38 38 38 37
44 45 44 43 42 42 35 34 39 43 42 36 34 35 36 38 40 47 46 45 44 43 43 43 42 44 43 44 38 35 35 36 37 40 38 37 36 36 38 38 38 38 37 36
44 44 44 43 42 39 37 46 44 44 40 39 32 35 39 42 42 43 48 45 46 45 43 44 41 41 45 39 36 36 37 38 39 39 38 38 37 36 36 36 35 35 34 34
43 43 43 42 40 38 41 45 43 45 40 35 33 34 35 46 43 43 42 45 39 44 43 42 41 40 39 34 34 38 40 40 39 39 37 36 36 35 35 35 34 34 34 34
42 40 37 36 39 44 44 42 38 38 39 40 35 37 34 42 39 38 41 40 37 35 40 44 42 39 37 38 38 39 39 40 38 37 37 37 36 35 35 35 35 35 34 33
40 37 37 41 45 44 40 35 33 34 33 36 36 35 33 38 38 37 40 38 37 35 37 41 39 38 37 38 39 39 39 39 38 38 37 37 37 36 36 35 35 33 32 32
42 42 43 44 39 36 33 33 33 34 30 37 38 37 36 41 44 40 38 37 35 34 37 35 34 33 36 37 37 38 37 37 37 36 36 36 35 35 35 34 33 33 31 30
44 37 35 35 35 31 28 27 31 32 36 37 37 36 40 40 41 36 36 34 34 35 33 28 31 34 34 35 37 37 37 37 35 34 34 34 34 34 34 31 30 29 30 30
36 34 30 31 29 30 31 30 33 33 33 35 39 35 35 35 37 34 34 33 35 33 29 28 31 32 32 33 34 34 32 32 33 32 32 31 30 30 30 30 30 28 27 29
30 30 25 27 30 29 30 31 34 34 34 34 35 34 35 33 33 34 34 32 27 26 24 28 30 32 33 33 33 32 31 30 30 30 29 29 29 28 28 29 29 28 28 27
29 23 21 24 25 24 26 26 28 32 32 33 34 33 33 30 30 27 24 23 19 23 26 28 32 32 32 31 31 30 30 30 30 30 29 29 28 27 27 27 27 27 26 25
27 24 25 23 23 21 23 25 26 31 33 31 29 23 23 27 22 18 20 18 21 23 26 26 31 31 31 32 31 31 30 30 29 28 28 28 29 28 26 23 24 24 23 24

GFSNW_sfc_dewp_057.txt.gz
Dewpoint
49 49 49 49 48 48 47 43 35 41 48 36 37 32 30 32 27 24 19 26 29 16 25 25 23 23 23 25 25 24 25 25 26 25 23 23 27 27 27 27 26 28 28 26
48 48 49 49 48 48 45 39 38 46 44 31 34 30 28 24 27 24 21 28 30 30 30 28 26 25 28 28 27 27 27 24 24 22 25 26 24 28 27 28 28 30 34 25
46 49 48 48 48 48 46 39 32 39 42 36 32 27 25 22 30 28 23 28 28 28 30 32 29 26 30 32 29 38 34 25 24 23 21 22 23 23 24 25 30 26 24 21
45 46 49 48 48 48 45 38 36 37 32 34 32 28 22 19 23 29 28 26 27 28 29 30 32 30 32 32 36 32 32 25 24 21 20 18 18 20 21 21 22 24 23 21
45 46 46 47 48 49 43 35 32 36 32 35 32 29 24 18 20 21 26 29 30 27 26 29 30 32 31 30 32 31 30 28 26 23 21 19 17 15 15 16 18 18 19 19
45 45 45 45 46 48 42 41 34 34 32 34 31 30 25 20 23 23 20 26 28 29 28 36 37 37 37 34 34 32 31 30 27 27 22 21 27 21 18 18 19 20 21 22
46 45 45 45 45 47 44 44 34 36 29 35 29 27 25 21 20 23 23 24 28 32 35 37 36 37 33 37 34 34 35 32 31 32 33 30 25 23 22 22 21 20 20 21
46 45 45 44 45 46 45 41 37 35 36 29 27 26 26 24 24 27 23 25 26 39 36 32 28 29 32 30 34 32 35 36 35 34 29 25 21 25 25 23 21 22 22 23
46 45 45 44 45 45 46 44 41 38 34 28 26 26 26 25 26 27 30 28 32 37 36 31 24 16 15 16 27 31 33 36 39 35 29 27 27 25 26 26 28 25 24 25
45 45 45 44 45 46 45 45 47 40 33 29 30 33 29 28 27 28 30 30 36 39 37 36 30 21 13 16 22 35 37 37 38 36 32 28 25 25 26 28 30 27 25 26
45 45 44 45 45 46 45 46 45 39 35 32 32 33 36 29 29 30 31 31 36 39 37 34 29 33 26 24 24 32 35 34 38 37 36 33 32 29 28 33 35 31 31 30
45 44 44 45 46 46 46 44 44 44 42 40 43 44 44 41 32 29 35 34 34 33 33 36 35 39 41 29 30 25 32 34 36 33 33 35 36 35 34 33 32 35 35 33
45 45 45 45 46 46 46 46 47 44 41 40 39 38 46 46 44 45 38 39 34 35 36 32 35 35 32 39 33 29 33 34 36 34 34 34 34 36 36 35 35 35 35 34
45 45 46 46 45 45 44 43 46 43 39 37 35 36 37 45 45 42 44 42 39 36 36 38 41 39 27 36 30 30 32 33 33 32 30 32 33 37 38 37 36 36 35 35
45 45 45 45 45 44 44 43 44 42 36 35 33 35 35 39 41 38 41 45 43 36 38 44 39 33 30 32 35 34 25 27 34 33 29 39 37 37 39 38 37 38 36 36
46 45 46 45 44 44 41 38 41 43 44 33 32 38 34 34 41 39 41 42 44 38 36 41 34 31 33 41 36 28 23 25 30 33 36 37 39 39 37 37 38 38 37 36
45 45 44 43 43 42 40 37 38 41 37 34 31 29 37 38 40 40 40 42 42 43 42 42 38 36 35 43 39 27 27 30 30 36 38 39 38 35 38 39 39 39 37 37
44 43 43 44 44 44 41 41 41 39 35 35 32 34 37 40 39 38 43 43 42 42 40 41 41 40 43 38 33 32 30 31 35 39 39 40 39 37 37 38 39 38 37 37
44 43 42 42 42 37 42 44 42 45 39 32 34 33 34 42 39 42 43 43 40 40 42 41 39 39 38 34 32 32 34 37 36 39 39 39 39 37 37 37 37 37 39 38
43 40 33 35 41 45 43 39 37 37 39 39 36 38 34 36 38 39 39 43 39 36 41 42 40 38 34 37 39 40 41 40 41 40 40 40 39 38 37 36 37 36 37 36
37 37 38 41 45 42 40 36 36 37 35 37 36 36 34 39 36 36 41 38 39 34 37 38 38 36 32 35 39 39 40 40 40 40 39 39 40 40 39 37 38 37 36 36
42 41 42 43 39 36 33 34 34 32 29 36 36 36 37 40 42 39 39 36 37 34 37 35 28 32 32 35 36 38 38 39 39 38 38 38 37 38 38 37 36 36 34 32
44 36 35 35 37 30 28 26 28 32 38 37 39 36 41 39 40 36 39 36 34 37 33 29 30 30 31 34 34 36 34 34 35 34 35 34 33 34 33 31 31 31 30 30
37 34 31 32 31 28 28 28 31 34 34 38 40 38 37 37 36 34 34 33 35 33 30 27 29 31 32 34 34 32 30 31 30 30 30 30 29 29 30 30 29 28 28 28
30 30 23 26 29 30 29 32 33 33 33 34 36 35 35 34 34 34 34 33 27 25 24 27 30 33 33 32 32 32 31 30 30 30 30 30 29 29 29 30 30 28 27 26
27 23 21 23 26 26 27 28 29 32 31 33 34 34 33 31 31 28 26 24 19 22 26 28 30 31 31 31 31 32 32 31 30 30 29 28 28 27 27 28 28 27 27 26
27 24 25 23 22 21 24 27 28 31 32 30 30 26 25 30 23 19 21 19 22 25 25 26 28 28 29 30 30 31 31 30 30 29 29 28 29 28 26 24 25 25 25 25

GFSNW_sfc_dewp_060.txt.gz
Dewpoint
49 50 49 49 49 49 48 43 35 42 46 37 38 31 31 30 22 21 24 25 19 19 19 26 29 22 25 24 24 24 27 28 25 22 22 23 23 26 26 29 26 30 33 26
48 49 49 49 49 49 46 39 39 44 43 30 32 33 29 29 26 21 19 23 23 24 24 28 27 32 27 30 26 27 28 27 25 22 25 25 23 25 29 29 29 29 35 29
47 46 48 49 49 49 46 39 33 39 42 34 32 30 29 28 27 24 19 24 23 24 30 33 30 30 29 34 27 40 36 28 26 25 28 25 24 23 26 31 34 30 32 30
46 47 47 50 49 49 46 39 35 36 32 33 32 29 25 26 23 24 23 22 23 24 31 32 32 32 33 30 36 32 34 30 29 25 21 22 22 21 20 19 30 33 30 22
45 46 46 47 49 49 44 33 37 34 29 33 32 31 27 24 23 20 20 23 26 26 31 33 33 35 37 35 30 31 32 29 29 27 23 21 23 23 19 19 19 20 21 22
45 45 45 46 48 48 43 41 39 35 32 33 31 30 29 26 27 24 18 21 26 28 30 36 45 45 43 36 32 34 33 32 30 28 26 23 24 23 20 19 21 21 21 24
46 45 45 45 46 48 42 41 37 37 31 32 32 28 29 27 26 25 20 22 26 27 32 44 43 42 40 39 35 36 34 33 32 32 33 25 26 26 22 22 21 19 18 19
46 45 45 45 45 47 45 44 39 35 35 30 30 29 27 29 29 27 25 22 23 28 41 37 37 37 36 33 35 34 35 36 37 33 29 28 25 25 25 24 23 23 22 21
46 46 45 45 45 45 45 44 43 39 35 32 29 28 28 28 28 28 28 28 30 35 38 37 32 30 26 30 26 35 36 37 37 37 29 27 31 29 26 28 26 26 25 28
45 46 46 45 45 45 45 43 46 43 36 35 32 30 30 30 29 29 29 29 37 42 37 34 31 27 21 19 25 32 35 37 35 35 34 33 29 29 29 27 30 34 30 30
46 46 46 46 45 45 44 42 46 44 39 36 38 37 36 32 31 30 30 30 35 39 36 35 32 34 26 20 17 33 35 35 35 36 35 32 34 30 27 34 38 39 35 36
45 46 46 46 45 45 44 41 46 47 44 41 43 43 44 39 40 37 33 33 37 38 37 35 35 40 38 28 28 22 29 33 36 36 35 40 41 37 39 41 41 40 39 37
45 46 46 46 45 46 44 44 45 46 42 42 40 39 42 43 43 45 40 34 35 39 39 34 37 37 32 38 34 31 33 35 35 35 35 37 41 40 40 41 41 37 38 37
45 45 45 45 45 45 44 44 46 46 40 37 33 40 41 42 42 41 43 42 43 43 40 38 42 39 34 38 33 31 30 34 35 36 36 36 35 35 39 42 41 40 38 40
45 45 45 46 45 44 47 46 46 48 39 34 37 37 39 40 41 39 41 41 41 45 41 43 38 37 36 38 35 33 28 27 32 35 35 37 37 34 36 38 35 39 39 39
44 45 46 45 45 45 45 39 45 47 43 37 36 37 36 38 38 36 39 41 42 45 42 41 37 37 36 41 30 25 27 28 26 27 30 37 39 39 41 40 41 40 41 40
45 45 46 45 45 43 41 39 41 43 43 34 31 29 33 38 39 38 36 39 42 44 44 41 37 36 35 37 35 27 29 29 29 29 32 36 40 40 41 41 40 41 40 41
45 45 45 44 45 45 40 42 43 43 36 32 31 31 35 39 38 37 37 39 41 42 42 41 39 37 40 35 28 30 30 30 31 31 38 41 43 40 39 39 39 40 40 40
44 44 44 43 44 41 41 42 43 44 40 31 35 31 32 41 38 39 41 41 38 40 41 40 40 39 36 36 37 38 40 41 40 41 42 39 42 40 39 39 39 38 40 40
43 41 37 38 42 42 40 39 35 34 36 38 32 37 33 35 37 39 40 42 36 34 37 41 39 37 33 32 34 37 39 40 40 40 40 40 41 41 41 39 39 38 39 39
39 39 38 42 44 41 39 34 32 31 30 32 34 36 35 36 32 35 41 35 38 34 36 37 37 32 30 31 33 36 37 38 39 39 39 40 39 40 41 39 40 39 39 38
42 41 41 42 39 37 33 33 35 32 28 34 36 36 37 36 36 33 36 34 37 33 39 36 29 30 30 31 31 34 34 35 35 35 36 36 36 37 36 34 33 32 32 30
43 39 36 35 36 30 30 24 29 32 33 37 38 35 38 39 39 33 35 33 32 36 32 27 27 29 31 32 30 30 30 30 30 30 31 31 31 31 31 29 29 28 27 26
35 34 28 31 27 26 26 27 30 32 33 32 34 37 35 36 34 32 32 32 34 32 27 23 26 30 31 32 32 29 29 30 29 29 29 28 28 28 28 28 28 26 25 26
29 28 22 23 28 28 28 31 31 33 33 32 35 35 36 34 33 33 33 31 22 21 21 24 27 30 30 30 30 30 30 29 29 29 28 28 27 27 26 27 27 26 25 25
24 22 22 23 24 23 25 27 27 32 30 32 34 33 33 29 28 23 22 19 16 20 23 26 27 28 29 29 30 29 29 29 28 28 27 26 25 25 25 25 26 25 25 24
26 23 25 24 22 23 25 27 28 31 29 30 31 23 24 28 20 17 20 19 21 23 22 24 26 25 27 28 28 28 28 28 28 27 27 26 26 26 24 23 25 25 25 25

GFSNW_sfc_dewp_063.txt.gz
Dewpoint
48 49 49 50 50 50 48 43 34 41 43 36 35 30 30 31 24 27 27 25 22 21 24 23 23 30 33 29 26 24 25 28 24 24 25 24 24 24 25 28 28 32 29 26
48 48 49 49 49 50 46 39 38 45 41 29 31 30 31 30 29 27 24 23 23 23 23 23 27 34 34 35 30 26 25 23 24 25 24 25 22 24 26 28 32 30 29 29
48 48 49 49 49 50 47 38 32 39 41 34 28 28 29 29 31 29 28 25 25 24 23 24 28 34 37 40 33 37 31 26 23 22 25 28 25 24 25 28 30 30 31 30
47 46 47 49 49 49 46 37 34 35 32 33 31 28 28 27 28 27 28 27 27 23 21 24 30 35 38 39 40 34 31 23 25 27 25 27 27 26 24 24 29 32 32 32
46 46 47 48 49 50 44 32 35 35 29 33 33 31 28 27 27 26 27 25 24 25 23 23 31 39 38 40 41 40 34 28 26 25 27 26 25 26 27 25 23 32 33 33
46 46 46 46 46 47 44 42 38 34 32 33 33 31 29 29 29 28 26 26 24 25 25 31 42 44 45 44 42 39 38 32 30 25 27 27 25 26 25 26 27 25 29 30
45 45 45 45 46 46 45 42 38 35 32 30 31 30 30 29 29 27 26 26 24 24 43 45 44 42 40 41 42 45 39 33 33 29 30 23 27 27 27 27 25 23 21 22
45 45 45 45 45 46 44 43 39 35 33 30 29 32 29 30 30 29 29 28 27 25 24 34 36 36 36 36 41 42 41 38 33 29 27 27 27 26 28 27 26 24 22 22
46 46 45 45 45 46 44 44 44 40 33 32 28 30 30 28 28 28 30 31 31 31 30 31 28 29 33 34 33 41 41 39 34 32 27 24 30 31 33 30 25 28 31 28
46 46 46 46 45 45 44 42 44 42 36 34 34 29 30 32 30 29 30 30 31 39 29 27 27 29 33 30 31 32 34 34 33 33 32 33 35 32 34 28 28 32 32 32
46 46 46 46 46 45 45 41 44 42 37 35 36 38 36 33 32 29 31 31 32 35 29 28 28 27 30 29 28 33 32 32 32 34 30 29 38 35 29 33 36 35 34 34
45 46 46 46 46 46 45 40 43 45 42 42 42 41 42 42 40 39 34 29 29 38 33 34 32 27 29 26 22 29 31 33 32 32 33 39 42 39 40 41 39 40 39 37
45 45 45 46 46 46 44 42 41 42 39 40 41 41 45 47 46 46 37 34 36 39 41 39 37 29 31 26 27 25 31 35 35 35 36 36 37 43 44 43 43 41 38 40
44 45 45 45 45 46 44 42 43 41 40 35 37 45 43 45 45 44 43 41 42 44 42 39 37 34 33 30 32 30 32 35 36 36 36 38 37 37 42 40 42 41 40 37
46 46 46 46 47 45 44 45 44 45 41 34 37 42 43 43 43 41 42 41 40 40 38 36 35 37 35 35 34 31 30 27 34 35 39 37 35 35 41 43 41 40 41 40
45 45 45 45 45 44 43 39 44 47 47 39 33 40 39 39 40 39 40 41 40 42 41 38 41 39 36 31 28 28 27 28 28 27 29 29 33 38 41 41 41 41 41 41
45 45 45 45 45 44 40 37 41 46 46 37 32 32 37 39 39 37 37 41 41 41 39 40 39 38 39 32 28 32 34 32 28 35 37 32 32 38 40 40 40 41 41 41
45 44 44 45 45 45 40 43 44 44 37 36 29 30 34 40 36 34 37 36 39 40 38 39 39 38 38 34 36 37 39 40 41 41 42 42 40 40 39 38 38 38 39 40
45 45 44 44 43 39 40 44 45 45 40 32 28 26 29 38 37 35 36 38 29 39 35 35 40 36 31 32 33 34 37 37 38 40 41 40 41 41 40 37 38 37 38 39
45 44 40 34 41 43 43 40 36 35 36 36 28 33 27 35 34 30 31 32 29 28 34 39 35 31 34 33 33 34 36 36 38 38 38 39 39 40 40 39 39 39 38 35
42 39 37 40 43 42 38 30 29 30 28 33 32 33 32 37 32 32 35 32 28 24 30 32 32 25 28 32 33 32 33 34 35 36 35 35 35 36 35 34 34 32 31 29
41 40 42 42 38 36 29 27 30 27 27 31 30 34 36 35 37 32 35 32 30 25 34 32 24 26 29 30 29 30 31 31 31 32 32 32 32 32 31 30 28 27 26 26
43 39 35 34 31 25 19 21 23 29 31 32 34 33 33 35 35 32 32 28 30 35 27 21 22 27 29 30 29 28 29 28 28 28 28 28 27 27 27 26 25 25 25 25
33 31 22 25 23 24 23 25 26 30 31 30 31 33 33 32 31 32 31 31 31 26 20 16 22 27 28 30 29 27 27 27 27 26 26 26 25 25 25 25 25 24 23 24
23 22 19 19 26 24 26 28 29 30 30 30 31 33 34 32 31 31 30 25 17 18 14 20 24 27 28 27 28 27 26 25 25 25 24 24 24 23 23 24 24 23 23 23
22 20 18 18 15 15 18 23 26 29 29 30 32 31 29 26 24 21 19 17 13 15 19 22 24 24 26 26 26 26 26 26 25 25 25 24 23 22 23 23 23 23 22 21
24 22 24 21 17 20 23 26 23 30 29 27 26 18 20 25 15 14 19 14 16 19 19 22 22 22 23 24 23 24 25 25 25 25 25 24 24 23 21 21 23 23 23 22

GFSNW_sfc_dewp_066.txt.gz
Dewpoint
47 48 49 49 50 50 49 44 34 42 44 33 33 29 28 32 28 29 27 29 26 24 24 23 25 26 28 33 35 27 26 26 24 23 27 25 23 25 26 26 27 31 29 26
47 48 48 49 49 49 47 39 38 44 40 27 28 28 28 29 28 27 27 26 25 25 25 22 27 28 33 40 38 35 31 26 24 22 24 25 24 25 25 29 30 25 26 28
47 48 48 49 49 49 47 36 32 38 39 32 27 26 27 26 30 29 29 28 29 25 23 25 24 26 32 40 39 43 40 32 23 21 23 25 25 25 24 25 27 26 29 27
46 47 47 48 49 49 47 36 33 36 30 32 31 28 27 27 26 29 30 27 27 28 25 23 23 30 38 40 43 42 40 30 27 24 23 24 26 26 23 24 27 28 29 32
47 47 47 48 49 49 45 32 35 37 30 33 32 31 27 25 27 28 27 27 25 25 26 25 25 27 35 39 41 40 41 35 30 27 26 23 22 24 27 26 26 27 29 29
46 48 47 48 47 47 43 42 39 34 32 31 33 29 28 27 28 29 28 27 27 27 27 28 30 38 42 42 41 40 39 38 36 29 27 24 26 27 27 27 28 30 31 33
47 46 46 46 46 47 45 44 40 36 31 29 30 30 30 29 29 28 27 28 28 28 31 37 43 41 40 42 42 43 37 36 37 31 27 24 27 28 27 27 26 25 27 31
45 45 45 45 46 45 43 44 42 37 31 31 28 29 30 31 30 29 30 31 31 30 28 28 29 29 30 35 39 43 40 37 32 31 26 28 29 27 26 26 26 27 25 23
44 44 45 45 45 46 43 44 45 41 34 32 30 28 30 29 30 30 30 31 33 32 29 27 21 21 30 30 35 41 39 39 33 32 29 23 28 29 32 33 27 29 29 29
44 44 44 44 45 45 44 43 43 40 33 35 33 29 29 31 30 29 30 30 30 33 28 25 24 20 29 27 29 31 32 32 31 32 31 32 36 37 35 28 27 35 34 33
45 45 45 45 45 45 45 42 43 39 33 36 37 34 33 32 31 28 30 30 32 32 27 27 25 24 29 29 31 32 31 31 31 32 30 26 38 37 33 35 37 39 39 38
45 46 45 45 46 45 45 40 44 43 39 38 42 40 38 34 34 33 34 32 31 33 31 30 29 25 26 27 25 30 30 33 33 34 31 37 40 41 44 44 42 42 41 40
45 45 46 46 46 46 45 42 42 42 38 37 39 36 42 45 44 43 35 36 37 39 38 36 34 27 30 27 26 26 29 35 33 34 33 35 37 40 40 43 40 40 43 41
45 45 46 46 46 46 45 41 42 40 38 33 36 43 40 45 45 44 43 42 43 43 42 36 32 30 34 28 29 28 26 31 30 34 35 37 38 38 38 38 40 41 41 41
45 45 45 46 46 46 45 43 41 41 38 33 37 42 44 45 44 43 44 42 42 41 38 35 31 36 35 35 36 31 32 32 34 32 36 37 37 33 37 39 36 36 41 42
44 45 46 46 46 45 43 38 42 42 44 37 33 42 41 42 43 42 42 41 41 41 36 34 39 41 37 33 31 37 39 40 36 36 38 40 36 35 37 39 41 41 41 42
45 45 45 45 45 43 39 36 41 44 43 37 33 35 40 39 38 37 38 40 39 38 37 35 37 38 38 33 30 35 36 38 40 40 41 38 37 33 39 39 39 40 40 40
44 45 44 44 44 44 42 42 45 46 42 38 28 33 37 38 34 33 37 35 37 37 35 37 37 39 38 34 32 33 34 36 37 37 40 40 41 40 38 38 38 38 38 39
44 44 44 44 43 40 42 45 46 46 39 29 24 24 27 37 36 34 34 36 30 36 29 34 36 35 27 29 31 31 34 35 35 37 37 39 39 40 39 38 38 38 36 33
43 43 39 34 41 45 44 40 37 34 36 33 27 31 28 34 34 33 30 27 28 30 32 37 31 27 32 30 32 32 31 33 34 36 35 35 36 37 35 34 33 33 30 28
41 37 36 40 43 41 36 30 29 30 28 31 30 32 29 35 26 30 34 33 30 24 29 28 27 22 26 31 31 30 29 32 33 33 33 34 34 33 32 30 29 27 26 25
40 38 40 40 37 32 29 29 31 27 29 33 29 31 32 33 36 32 33 32 31 25 31 24 15 24 27 28 27 27 27 28 29 30 30 30 29 29 27 26 25 24 24 23
41 37 31 30 26 18 17 20 26 27 30 30 32 33 30 34 36 32 31 30 28 33 22 16 19 25 27 27 26 26 26 26 25 25 25 24 24 25 25 24 25 24 24 24
28 25 17 18 18 20 21 23 25 29 29 29 29 32 33 32 30 32 30 29 26 19 14 12 20 24 26 26 26 24 23 24 24 24 24 23 23 23 23 23 24 22 21 21
21 20 13 15 20 19 24 23 26 29 29 29 30 32 33 29 28 26 25 20 12 14 10 17 21 24 24 24 24 24 23 23 22 23 22 22 22 22 21 23 23 22 22 21
19 19 13 15 9 11 12 13 16 22 27 29 31 27 26 23 21 17 15 12 9 12 17 20 22 21 22 22 24 24 24 23 23 23 23 22 22 21 21 22 22 22 21 20
20 15 13 6 6 11 17 15 22 28 28 23 24 17 18 20 15 14 17 11 15 17 19 20 20 19 20 22 22 21 21 21 22 24 24 23 24 22 20 18 20 20 20 20

GFSNW_sfc_dewp_069.txt.gz
Dewpoint
46 46 47 48 48 49 48 44 34 44 45 34 31 25 26 31 27 30 29 29 28 26 25 22 25 25 25 35 38 32 28 27 23 23 25 26 25 25 27 25 24 30 27 25
45 46 46 47 48 49 46 39 37 44 41 28 26 25 26 28 28 27 28 27 29 26 23 19 25 28 31 39 35 35 36 30 23 23 25 25 23 25 26 29 29 25 26 25
45 46 46 47 48 49 47 34 32 37 39 33 26 25 23 26 28 28 30 29 29 29 25 26 24 25 28 35 41 44 42 34 32 25 23 24 25 23 25 26 26 24 25 25
45 46 46 47 48 48 46 36 33 35 31 32 28 26 26 24 26 27 31 28 27 26 26 25 22 23 23 34 43 42 42 35 35 35 32 28 24 24 24 23 25 24 24 26
44 46 46 46 48 48 43 32 34 37 33 34 30 30 26 25 25 26 26 27 28 26 25 25 23 23 27 32 39 40 41 36 37 33 31 27 24 23 25 25 25 25 26 28
45 46 46 46 47 48 41 42 39 37 35 33 32 28 27 28 28 29 27 28 28 28 27 28 30 29 28 30 39 38 39 36 35 30 33 32 28 27 23 23 28 27 26 29
45 46 46 46 47 47 44 43 40 36 31 30 30 30 30 28 29 27 29 29 29 30 31 32 37 35 38 41 41 41 37 35 34 32 31 27 32 30 27 26 25 28 29 30
46 46 46 46 46 48 45 44 42 37 32 32 29 30 31 30 29 30 27 29 30 32 29 27 26 28 31 31 38 39 39 35 31 28 28 30 26 30 29 27 26 28 27 27
45 46 46 47 46 48 45 43 44 41 35 33 31 29 31 31 28 29 30 33 34 32 30 27 23 19 24 29 34 41 39 37 32 31 27 23 21 31 29 32 27 30 28 30
44 46 46 46 46 46 45 42 44 39 34 36 33 30 30 31 31 29 31 31 32 33 28 26 23 23 26 25 29 30 32 32 32 31 30 29 34 33 37 32 29 36 36 34
44 44 44 45 45 45 44 42 43 39 34 35 37 35 32 31 31 28 30 31 31 30 26 26 25 22 26 26 30 31 30 30 27 32 29 22 38 39 38 37 40 41 40 39
45 44 44 44 44 44 44 41 44 44 38 37 40 41 42 33 32 32 33 30 32 33 29 28 27 23 24 27 24 31 28 30 29 30 30 35 35 39 41 44 43 42 42 41
46 46 45 45 45 45 44 42 43 41 37 35 36 36 39 43 37 38 34 35 35 36 35 33 31 26 28 23 25 25 28 34 32 34 32 34 33 37 41 43 42 42 42 41
46 46 46 45 45 46 45 43 43 41 38 32 34 37 36 39 44 38 40 40 42 42 39 34 30 28 32 27 28 27 28 30 29 29 30 34 37 37 37 38 40 40 41 40
45 46 46 46 46 46 46 44 43 40 35 30 32 42 41 45 44 43 42 41 39 38 35 34 31 34 36 33 33 30 37 36 33 30 38 39 34 37 37 38 38 38 40 40
45 45 46 46 46 44 42 35 43 42 43 37 31 41 41 43 43 43 41 40 40 39 39 37 38 41 37 28 27 36 36 37 39 38 39 39 42 37 37 37 38 40 41 40
45 45 46 46 45 43 39 35 40 44 43 35 32 35 41 42 41 40 39 40 40 39 38 36 36 38 38 33 30 33 34 35 37 37 40 40 40 40 40 39 39 40 40 40
44 45 46 45 44 44 41 42 43 43 40 37 31 33 36 40 35 35 38 37 38 38 35 35 34 36 37 32 29 31 33 34 37 35 38 39 41 38 37 39 40 38 34 32
45 44 44 43 42 40 41 43 43 46 40 32 30 28 30 36 35 34 33 35 32 35 30 32 34 33 24 25 27 29 30 31 33 34 37 36 38 37 35 34 33 31 29 27
43 42 37 32 42 45 44 41 37 38 35 32 28 28 31 35 34 29 30 28 28 29 32 35 27 26 28 29 29 28 28 30 32 32 33 33 34 34 32 30 29 28 26 25
40 37 34 41 44 41 37 31 29 30 28 30 30 29 27 33 28 31 30 32 26 21 26 29 25 21 24 28 26 26 27 30 30 30 30 30 30 30 28 26 26 25 24 23
38 39 41 39 35 30 28 28 28 29 29 32 28 32 32 34 35 30 33 31 31 27 30 23 16 22 25 25 24 24 25 26 25 26 25 26 25 26 25 25 24 24 24 23
39 32 26 26 22 15 14 17 21 22 29 28 31 32 32 34 35 30 32 28 28 30 19 13 17 23 23 24 23 22 23 23 22 22 23 23 22 23 22 21 22 23 22 22
26 21 12 13 10 17 18 20 21 27 26 26 28 31 32 32 31 31 28 24 25 17 11 9 17 22 23 24 24 21 21 21 21 21 22 22 21 21 22 21 21 19 18 19
21 18 11 14 19 19 21 22 23 27 28 28 30 32 31 26 24 23 18 16 9 12 8 15 19 21 23 23 23 22 21 21 21 22 21 20 20 19 19 21 21 20 19 19
19 17 12 15 10 13 14 15 18 25 26 30 30 28 24 19 19 14 13 10 7 10 14 18 20 20 20 20 21 22 23 23 22 22 21 21 19 18 19 19 19 19 18 17
16 14 14 6 4 7 14 17 20 25 26 23 23 15 16 19 15 12 13 8 12 15 16 17 16 16 16 18 19 19 19 18 18 20 21 20 21 19 17 16 18 18 18 17

GFSNW_sfc_dewp_072.txt.gz
Dewpoint
44 44 45 46 46 47 47 43 34 45 45 34 34 28 25 30 27 30 29 30 28 26 25 22 23 25 30 35 36 31 31 26 22 20 25 26 26 26 25 24 22 29 25 22
44 44 45 45 46 47 45 38 36 45 41 29 29 27 25 27 28 27 28 27 29 28 23 18 23 27 32 30 35 38 38 32 24 23 24 26 24 25 27 29 28 23 25 24
44 44 44 45 46 46 45 32 30 37 40 35 28 27 25 23 28 29 30 29 29 28 25 25 23 24 27 29 28 44 40 35 32 28 29 33 29 26 24 25 25 24 24 24
43 44 44 45 46 46 44 32 32 36 30 32 30 28 25 23 26 27 28 26 27 26 24 26 23 24 25 28 36 38 37 33 36 36 36 34 33 31 28 23 24 23 24 24
43 44 44 44 45 46 42 31 34 37 31 33 32 30 26 23 23 27 25 25 28 27 24 25 23 24 23 23 31 37 40 31 35 33 35 33 31 32 28 26 25 24 25 25
44 44 44 44 45 45 41 39 39 38 35 33 32 29 27 26 26 27 27 29 28 27 27 28 29 28 28 29 28 26 35 35 33 27 34 31 26 30 28 27 26 26 25 27
44 44 43 44 44 45 43 41 39 36 31 32 32 29 29 27 26 27 29 27 28 30 32 32 33 31 30 31 30 33 34 34 33 28 30 23 25 34 27 30 30 28 26 28
45 45 45 44 44 45 44 43 40 36 31 33 31 31 29 28 29 28 28 30 29 32 30 29 26 26 30 31 33 33 38 34 30 24 27 26 24 22 30 27 26 26 30 29
45 44 44 45 45 46 45 43 45 41 34 33 32 32 34 31 28 28 29 32 33 33 32 30 26 20 23 25 33 35 35 35 30 31 25 21 21 27 32 32 22 33 36 34
44 45 45 46 46 46 45 43 45 40 35 37 34 32 34 34 30 29 30 30 32 33 31 28 27 25 24 22 28 30 33 32 30 30 28 28 31 37 38 29 24 40 40 39
44 45 44 45 46 46 45 43 45 39 34 37 38 36 35 33 31 28 31 32 32 32 27 27 26 24 25 23 28 30 29 28 30 31 29 25 34 39 35 38 38 39 41 41
44 44 45 44 46 46 46 40 44 44 38 38 41 41 41 35 33 31 32 30 31 32 28 27 27 23 24 26 24 32 26 28 28 29 28 33 35 34 39 41 36 38 41 42
45 45 44 44 45 46 44 42 42 41 35 37 37 36 37 42 41 38 33 34 35 34 34 31 29 24 27 22 24 25 27 33 32 31 26 31 30 35 38 41 41 39 40 43
46 46 44 44 44 44 44 41 43 40 38 32 32 37 36 39 41 41 38 37 42 41 40 32 29 27 31 25 26 26 26 30 29 28 29 35 32 33 38 39 40 43 44 42
46 46 46 45 44 44 43 44 43 42 35 30 30 39 36 36 39 42 40 40 40 39 35 31 28 32 32 31 32 29 35 32 30 28 37 36 37 39 41 41 39 39 41 41
46 46 46 46 45 44 42 36 43 41 40 34 29 37 39 39 43 42 39 38 40 40 37 34 35 38 35 25 26 35 35 36 37 36 37 37 38 40 39 40 41 40 38 35
45 46 46 46 44 43 38 35 40 44 44 36 24 32 39 39 42 42 41 42 41 39 36 35 35 36 37 32 31 33 35 33 33 37 37 37 38 39 37 36 38 35 31 30
45 46 46 46 45 44 41 43 43 42 39 37 28 32 36 41 36 36 40 38 39 38 35 34 33 35 35 32 29 30 30 30 34 33 35 38 37 36 33 32 32 30 29 28
46 45 44 44 42 39 41 44 44 45 39 31 31 28 29 38 35 37 35 37 32 36 32 31 35 31 26 26 27 27 28 29 30 31 33 34 35 34 30 29 28 27 25 25
43 42 37 33 41 44 43 39 37 36 37 34 30 32 31 35 32 32 32 31 30 29 31 33 25 24 27 27 25 25 26 27 30 30 31 31 31 31 28 27 26 25 24 22
41 36 34 42 44 40 35 31 31 32 29 32 32 30 30 32 28 31 30 30 26 26 27 29 24 19 24 26 24 23 24 26 27 28 27 27 27 27 26 24 24 23 23 22
40 40 41 37 33 31 30 28 29 28 27 30 31 32 32 33 33 29 32 26 30 24 28 22 14 20 22 22 23 21 22 24 24 25 25 25 25 24 23 22 21 21 21 21
37 29 23 23 19 11 12 16 23 23 26 27 30 30 31 33 34 30 32 28 26 26 17 13 15 21 21 22 21 21 22 23 22 22 23 22 21 21 20 20 21 21 20 20
24 19 9 10 9 15 17 18 18 26 23 23 25 32 32 32 29 28 26 23 22 15 9 8 16 21 22 23 23 21 21 22 21 21 20 20 19 19 19 19 19 17 16 17
18 16 8 11 17 19 20 21 23 25 26 26 30 30 27 23 19 20 19 14 9 10 8 14 18 19 20 20 21 21 21 20 20 19 19 18 18 17 17 18 18 18 17 17
18 16 11 14 13 13 14 16 18 24 24 29 29 25 20 18 19 13 10 8 5 8 12 15 17 16 18 18 18 18 19 20 20 20 19 19 18 17 17 17 17 16 16 14
15 13 14 8 10 8 12 15 18 22 25 21 21 14 14 19 13 8 10 5 9 14 14 16 16 16 16 17 18 18 18 17 18 19 19 18 19 18 15 13 15 16 16 15

GFSNW_sfc_dewp_075.txt.gz
Dewpoint
42 42 41 42 43 44 44 41 33 45 45 35 34 29 27 28 22 27 28 28 28 25 24 20 20 25 27 25 32 33 35 27 22 20 25 26 27 27 28 26 23 29 27 23
41 42 41 42 44 43 43 37 36 45 43 29 30 33 28 25 24 27 27 26 28 28 24 20 23 25 30 29 24 21 34 32 24 23 25 29 27 26 27 30 28 25 27 23
41 42 41 42 43 43 43 34 30 36 40 36 31 30 26 24 26 25 29 28 29 27 25 25 23 24 26 30 26 36 39 34 34 26 30 34 33 33 33 29 27 25 25 25
41 41 41 43 43 44 42 34 31 35 30 32 32 30 27 24 23 26 28 26 27 26 23 24 23 22 24 25 31 36 35 28 29 31 27 29 30 32 31 30 29 26 25 23
43 43 43 43 43 44 40 32 33 37 35 32 33 32 30 25 24 26 24 26 27 27 24 23 19 23 23 22 27 28 30 32 35 32 30 27 30 31 26 30 30 27 26 25
43 43 43 43 43 43 38 39 39 38 35 32 33 31 29 27 26 26 25 26 25 25 28 29 30 30 30 28 27 26 28 35 33 27 32 32 26 25 29 26 28 29 27 28
45 44 43 43 43 43 41 40 38 34 29 32 32 32 30 27 27 25 26 28 29 31 34 34 33 32 31 30 30 30 27 27 34 29 31 23 23 30 31 29 30 29 28 28
45 45 44 44 44 44 42 42 39 35 30 34 33 31 30 29 29 28 27 30 30 34 30 32 28 26 30 30 30 30 31 29 32 29 27 26 22 21 24 28 25 37 34 37
45 45 45 44 44 44 43 42 43 39 34 31 32 32 31 29 30 31 30 34 35 36 35 31 24 22 23 23 28 33 33 34 34 30 26 22 23 28 36 31 27 37 39 40
44 44 45 45 44 44 43 42 44 40 34 35 35 32 33 32 31 31 31 33 36 36 33 27 25 22 24 20 26 27 30 34 30 29 27 28 32 32 39 26 27 36 37 38
45 44 44 45 44 45 44 41 45 41 34 38 37 37 36 34 34 31 33 34 34 34 30 29 27 26 26 23 26 30 28 27 28 29 27 24 32 36 31 33 39 38 35 36
45 44 43 44 46 45 45 41 45 44 39 38 42 41 40 35 35 34 35 32 32 33 30 30 29 27 28 26 22 32 28 32 31 31 29 33 36 35 35 39 38 38 37 36
45 45 44 44 45 46 45 41 44 41 35 36 37 38 39 42 40 40 35 34 35 34 35 34 31 26 28 27 27 28 31 33 31 31 30 32 31 33 39 41 41 41 41 40
45 45 44 43 43 44 44 42 43 40 37 33 34 39 37 41 41 41 40 39 42 41 40 35 32 30 31 28 27 26 27 31 30 30 30 35 32 39 40 40 41 40 40 41
46 45 45 44 44 45 44 43 43 43 37 31 32 38 37 39 40 39 41 40 38 39 37 35 33 34 35 34 34 31 33 31 31 27 35 35 36 39 39 37 39 37 34 33
46 45 45 44 44 44 42 35 43 44 43 36 30 37 37 36 37 37 39 40 38 39 37 35 37 38 35 32 29 34 35 35 35 35 37 37 38 39 36 35 34 34 31 29
46 45 45 44 44 42 38 35 41 43 43 35 29 31 37 37 39 41 41 42 41 39 38 37 36 36 38 33 29 33 33 31 32 35 35 37 37 37 34 32 32 32 28 27
46 45 44 44 43 43 41 43 43 42 39 37 28 28 34 39 37 35 40 38 39 38 36 36 35 37 36 30 28 28 27 28 31 29 32 35 36 35 31 30 29 27 25 25
46 45 44 43 41 38 41 44 44 45 39 31 29 26 29 39 36 37 35 38 32 37 33 34 36 33 28 25 25 25 25 26 26 28 30 33 33 32 29 28 27 26 24 24
43 40 37 33 41 45 44 39 37 37 37 35 30 33 31 36 34 33 33 33 32 29 33 34 30 23 25 25 24 23 23 24 25 25 26 26 28 29 27 26 27 26 23 22
40 36 35 42 43 39 36 32 31 33 30 31 32 32 31 35 32 31 32 32 30 26 30 30 23 19 21 23 22 21 21 22 23 25 26 26 26 25 25 24 24 23 21 19
40 39 39 36 32 30 28 28 29 29 27 31 32 32 33 33 34 33 32 29 30 23 28 22 14 19 20 19 20 20 20 21 22 23 23 23 24 24 22 22 21 20 19 19
33 26 21 22 20 12 13 17 21 23 26 27 30 31 32 33 34 32 31 25 22 23 16 11 14 20 19 20 19 19 20 21 20 20 21 20 19 19 19 18 19 19 17 18
22 17 8 9 8 14 16 17 20 25 26 25 28 32 30 29 26 25 21 21 21 14 8 8 14 18 20 21 21 19 19 19 19 19 19 18 17 18 18 18 17 16 14 15
17 15 8 12 16 18 18 20 21 24 25 27 31 27 25 22 19 20 19 14 9 9 8 13 16 18 19 19 19 20 19 19 18 19 18 17 17 16 16 17 17 16 15 15
17 14 12 14 14 14 15 16 18 22 22 28 27 23 18 17 16 10 9 7 5 8 12 15 16 17 17 18 18 18 20 19 19 19 18 17 17 16 16 16 16 15 14 13
15 13 15 11 13 12 14 15 17 21 24 20 21 13 14 19 12 7 10 7 11 14 14 16 16 16 16 18 18 18 17 17 18 18 18 17 17 16 14 13 14 14 14 13

GFSNW_sfc_dewp_078.txt.gz
Dewpoint
41 41 41 43 42 43 42 40 33 45 47 36 36 31 27 27 22 22 24 28 27 25 24 21 18 26 24 23 25 26 30 26 22 23 24 24 25 25 25 24 23 25 25 22
40 41 41 43 43 43 40 35 35 46 45 29 30 35 29 25 23 23 23 25 27 27 24 21 21 22 24 25 22 25 30 26 18 17 20 24 24 25 25 26 26 24 29 24
39 40 40 42 43 43 43 36 32 37 40 37 30 28 29 26 26 24 24 25 28 26 24 24 23 23 22 25 22 38 34 36 31 19 25 30 30 31 31 31 28 25 24 23
40 40 41 42 43 44 43 35 33 33 31 32 34 29 25 25 23 25 25 24 25 24 23 23 23 22 22 22 29 30 32 25 30 30 30 27 28 27 28 27 29 29 26 25
42 42 42 43 43 43 41 33 35 36 32 35 32 34 31 25 23 24 24 24 23 25 25 24 22 21 22 22 23 26 30 23 24 22 24 21 21 22 24 25 24 26 29 27
44 43 43 43 43 43 39 39 38 37 30 29 31 33 29 27 27 27 25 25 26 25 25 26 28 29 30 29 27 25 27 31 28 22 24 22 24 25 23 22 28 29 26 22
45 45 43 43 43 43 37 39 39 33 27 30 27 26 32 31 30 26 26 27 27 30 30 34 33 32 30 30 30 30 26 29 32 27 32 22 21 24 25 27 24 27 25 26
46 45 45 44 43 43 43 41 39 34 29 25 23 25 29 29 30 29 28 29 31 35 35 32 27 27 28 28 30 30 29 28 30 27 22 19 18 20 23 25 21 34 33 34
45 46 45 45 44 43 44 41 43 39 32 27 24 27 33 32 29 30 31 34 38 38 36 32 25 22 20 22 25 29 29 30 29 30 21 20 24 29 33 29 21 31 34 32
46 46 46 45 45 44 43 42 44 39 34 32 29 27 28 34 30 31 32 37 37 39 35 31 25 21 22 20 23 28 28 29 28 27 27 25 26 25 34 24 27 31 31 30
45 46 46 45 45 45 43 41 45 39 35 35 34 34 33 32 34 30 36 35 36 35 31 28 26 26 24 21 23 27 26 27 29 28 26 24 32 30 27 31 33 34 35 36
45 45 46 45 44 45 45 39 44 44 38 38 40 38 38 36 36 36 37 32 34 32 30 30 29 28 31 23 21 24 26 26 26 25 25 32 37 33 36 40 40 40 41 40
45 45 46 45 44 45 44 41 42 41 37 37 39 38 40 41 41 41 37 36 35 35 34 34 31 27 25 27 24 23 27 30 31 29 27 26 31 35 39 39 39 40 39 38
45 45 46 45 45 45 45 42 43 41 38 34 35 40 41 42 42 41 40 37 38 38 38 35 33 29 30 27 25 25 25 28 25 25 26 30 29 37 39 39 39 39 37 36
45 46 45 44 44 45 44 44 44 43 38 34 34 38 39 43 42 40 40 40 39 40 38 37 34 33 34 34 34 27 25 26 28 25 36 36 35 37 39 38 37 37 35 33
45 46 45 45 45 45 42 35 43 44 45 37 32 36 37 38 40 40 40 40 41 40 39 38 38 37 37 33 26 31 35 35 35 34 36 36 37 38 37 36 35 34 33 31
45 45 45 44 44 42 39 37 40 45 46 36 33 32 36 36 37 40 40 42 41 40 38 38 36 37 36 36 30 32 29 30 31 31 33 35 36 35 35 34 32 31 30 29
45 45 43 44 45 44 42 42 44 44 40 37 32 33 35 36 35 36 41 39 40 39 38 38 36 36 36 32 28 27 26 27 30 28 29 31 35 34 31 30 29 28 26 26
44 44 44 42 41 38 41 43 43 47 38 33 32 31 30 38 36 38 37 38 34 38 35 37 38 36 30 25 24 23 24 24 25 26 27 30 30 29 28 27 26 26 26 26
43 41 38 33 41 43 43 40 37 38 37 37 34 36 32 37 36 35 36 36 35 32 34 37 35 24 25 25 23 22 22 22 24 24 25 25 27 27 27 26 26 25 24 23
40 38 36 42 43 40 38 34 33 33 31 33 35 34 34 36 34 34 35 34 34 30 31 33 28 22 21 22 22 20 21 21 22 23 23 24 24 24 24 23 23 22 21 20
41 40 39 37 34 35 31 31 33 32 28 34 34 34 36 34 38 36 35 33 33 26 30 29 22 20 18 18 18 19 20 20 20 20 21 22 22 23 22 20 20 19 19 19
32 27 22 24 23 22 22 23 26 27 29 31 34 33 36 36 38 35 33 29 26 29 26 19 18 18 18 18 18 18 19 19 18 18 19 19 19 20 18 18 19 18 18 19
24 23 17 21 19 20 21 23 25 27 29 30 33 33 32 33 30 28 26 26 27 22 18 14 17 18 19 20 20 18 19 19 19 19 19 18 18 18 18 18 19 16 16 16
22 21 17 18 21 23 23 24 26 26 26 30 32 31 29 26 24 25 24 18 16 15 15 17 18 19 19 19 20 20 20 19 20 20 18 18 18 17 16 17 18 17 16 15
19 18 19 22 24 22 22 23 25 25 26 32 30 26 22 20 18 16 14 12 12 14 17 18 18 18 19 19 20 20 21 21 20 19 19 18 17 16 16 16 16 15 15 13
17 18 20 20 20 19 20 21 22 25 29 27 25 19 18 20 15 10 13 13 15 17 17 18 18 18 18 19 19 19 19 19 19 19 18 18 18 18 15 13 15 15 14 13

GFSNW_sfc_dewp_081.txt.gz
Dewpoint
40 41 42 42 42 44 40 34 33 42 48 36 37 30 25 27 19 20 22 27 26 24 23 21 20 33 24 26 26 27 25 26 22 22 19 22 24 24 26 28 27 27 27 26
41 40 41 41 42 43 36 34 31 42 45 30 31 30 26 25 22 20 19 21 25 25 24 21 20 24 28 25 24 26 26 23 19 28 25 23 22 22 24 27 27 28 33 26
40 40 41 40 41 42 42 38 33 33 41 38 32 26 26 24 27 23 20 20 23 24 24 24 22 21 23 25 23 36 34 30 27 23 23 26 23 24 23 25 27 25 25 25
41 40 40 41 42 43 41 38 32 31 31 32 32 30 31 21 23 24 23 21 22 23 23 22 21 21 23 21 29 24 28 27 29 30 30 27 27 27 27 26 27 27 27 26
43 42 41 42 42 43 40 34 32 30 29 28 27 30 29 27 18 21 21 23 21 23 23 23 24 22 23 23 22 23 26 22 24 24 24 24 22 22 24 24 25 25 24 24
44 44 43 43 43 43 39 34 37 35 29 25 29 30 24 29 25 22 21 24 25 26 24 26 28 29 29 27 27 26 26 26 20 23 23 25 26 24 22 21 22 23 23 26
44 45 44 43 43 43 41 33 32 33 27 25 21 21 30 28 31 34 25 25 27 27 32 31 30 30 29 29 29 29 27 25 26 26 26 21 22 21 22 23 22 25 27 25
45 46 46 44 43 43 41 39 37 31 29 20 21 23 28 35 34 31 30 27 29 35 35 31 26 27 28 29 28 27 29 28 26 25 20 18 15 18 18 20 21 29 28 28
45 45 45 46 44 43 42 39 41 39 32 25 18 19 23 24 28 31 32 32 37 37 34 33 25 22 21 23 24 26 27 30 28 27 22 18 18 22 25 25 21 30 30 30
46 46 46 46 45 44 43 38 42 40 34 28 25 20 21 23 29 34 32 34 37 38 35 30 25 24 21 21 25 26 28 30 28 27 25 21 29 25 29 24 27 32 31 32
46 46 46 46 46 45 43 41 41 39 36 30 29 29 32 24 34 35 35 36 37 35 34 29 27 27 24 20 21 27 27 29 29 28 28 23 24 25 28 35 35 35 35 36
45 45 46 46 46 46 45 39 43 42 38 33 34 33 34 33 35 37 38 30 36 33 30 30 29 31 31 24 22 28 29 25 27 24 24 31 36 36 37 38 37 38 38 36
45 46 45 46 46 46 45 40 42 41 38 34 34 34 38 36 39 42 38 37 34 39 35 38 35 31 25 27 23 27 26 30 31 35 31 32 37 37 38 37 38 37 37 37
45 46 45 46 46 46 45 40 42 41 38 31 30 32 33 39 40 41 40 37 41 41 42 38 35 32 28 27 25 30 25 31 24 25 29 27 31 36 38 36 37 36 37 37
45 46 46 46 46 45 45 43 43 42 32 33 29 36 35 35 41 40 41 41 40 40 38 38 34 32 33 30 31 28 25 30 28 30 36 36 34 35 38 36 36 36 36 35
45 45 45 46 45 45 42 36 42 44 44 39 33 34 37 38 39 39 40 41 41 41 37 37 36 35 36 34 29 35 33 33 34 33 33 35 36 37 36 35 35 34 33 33
45 45 45 45 45 44 39 38 41 44 46 38 34 33 35 37 39 40 41 42 40 39 38 37 36 36 35 36 31 30 29 30 32 31 32 33 33 34 33 32 32 32 29 29
45 45 45 45 45 43 41 43 43 43 41 39 33 35 36 38 38 37 41 38 39 38 37 38 35 35 38 32 28 26 26 27 29 27 28 30 32 32 31 30 29 29 27 27
44 44 44 43 42 39 41 44 43 47 41 35 35 32 32 37 36 38 39 38 33 38 35 37 37 34 30 26 24 23 24 25 25 25 27 27 28 28 28 28 28 27 27 26
43 42 38 33 42 45 44 41 37 38 39 37 33 37 34 36 37 36 36 38 36 33 35 38 36 26 27 23 22 22 22 22 23 23 24 25 25 25 27 25 25 25 24 23
42 39 36 41 43 41 38 35 33 34 31 33 35 35 35 38 34 33 36 35 35 31 32 34 31 24 22 22 21 21 21 21 22 22 23 23 23 23 24 23 23 21 21 20
41 39 41 39 38 37 33 32 33 31 30 33 33 34 37 37 38 36 35 34 34 29 35 33 25 21 19 19 19 19 20 20 20 20 21 22 23 24 23 22 20 20 20 20
33 30 29 28 29 28 30 26 28 30 32 33 35 34 36 36 38 37 36 32 29 31 30 22 21 21 20 20 19 20 20 20 19 19 20 20 20 21 21 20 22 21 21 21
27 28 21 27 25 23 25 27 28 29 31 32 35 35 35 35 33 33 29 28 29 25 23 19 21 20 21 21 21 19 19 20 19 19 19 19 19 19 19 20 20 19 17 18
26 26 21 21 25 26 26 29 30 29 31 32 35 34 34 31 29 28 26 24 20 20 20 21 21 21 21 21 21 21 20 20 20 20 19 18 18 17 17 18 18 18 17 16
23 23 23 26 28 26 27 28 29 29 30 34 34 31 28 24 25 22 19 18 18 18 20 21 21 20 20 20 20 21 21 21 20 20 19 19 18 17 17 17 16 16 15 14
21 21 24 25 24 24 25 27 27 29 32 28 30 25 21 23 20 16 17 17 19 19 19 19 20 19 19 19 19 19 20 20 20 20 20 19 19 19 16 14 16 16 15 14

GFSNW_sfc_dewp_084.txt.gz
Dewpoint
41 41 41 42 43 43 41 37 32 41 47 37 36 31 26 28 20 18 17 21 20 21 21 20 21 32 26 25 25 27 30 29 21 22 30 25 30 30 32 34 34 32 34 32
41 41 41 41 42 43 41 34 30 38 46 30 31 29 26 24 22 20 17 17 19 20 21 19 22 23 29 28 25 24 25 25 21 22 24 24 23 30 31 33 35 35 34 31
41 40 41 42 41 42 42 37 31 29 41 37 29 28 26 23 23 20 20 18 18 18 19 21 21 22 24 25 24 34 32 27 27 29 32 36 26 24 30 31 31 33 34 35
42 42 40 41 41 42 41 37 31 29 30 31 32 30 32 24 20 24 21 20 18 17 18 18 19 20 19 21 28 25 26 27 26 24 34 34 34 34 35 26 30 30 30 30
42 43 43 42 42 42 39 34 30 26 29 29 27 28 27 26 25 23 22 20 18 18 17 17 18 22 25 29 26 24 26 24 24 22 25 23 23 30 26 34 34 29 28 26
44 44 44 43 42 42 38 39 37 29 30 24 26 29 23 22 25 26 25 25 18 18 21 32 32 31 30 31 27 26 26 25 23 21 22 25 26 26 23 21 22 23 23 26
44 44 44 44 43 43 36 38 35 33 26 23 25 20 24 24 24 23 26 35 32 29 33 33 31 29 27 28 27 28 26 25 25 25 24 23 25 25 23 25 23 22 23 35
45 45 45 45 44 43 37 35 39 29 28 22 19 20 22 23 31 30 31 34 35 35 32 30 26 27 27 28 27 27 28 27 28 25 22 20 17 17 17 18 18 30 32 34
45 45 45 45 46 44 41 38 41 39 31 25 22 19 20 23 28 33 33 34 36 35 32 31 24 21 22 23 24 28 27 31 29 28 21 18 17 16 25 22 20 32 32 33
45 45 45 45 46 46 41 37 42 40 34 29 27 24 22 25 26 29 33 35 35 37 35 31 24 23 23 23 24 25 27 29 28 28 25 22 20 26 28 23 30 35 35 35
46 46 46 46 46 46 44 39 41 38 35 31 30 28 29 27 27 31 35 35 36 35 32 32 26 28 27 25 24 26 25 28 28 28 25 23 26 25 28 36 38 36 36 35
46 46 46 46 47 46 45 39 39 41 37 30 33 34 33 32 34 37 37 36 34 31 31 29 30 32 34 26 21 27 27 26 26 25 25 28 37 38 38 37 37 36 36 35
46 46 46 46 46 47 45 41 39 41 37 33 32 30 33 34 36 43 37 39 39 39 41 39 36 32 28 28 25 28 34 30 35 32 36 39 42 39 36 36 36 36 36 36
46 45 45 45 46 47 46 41 41 40 38 31 29 32 33 33 37 36 40 38 39 39 41 38 36 35 30 30 27 28 32 35 30 32 36 40 40 39 38 35 35 34 35 35
45 46 46 46 46 46 46 42 42 42 32 31 29 30 30 32 35 37 40 41 39 39 36 35 36 32 34 33 32 34 36 35 35 36 34 37 37 36 36 35 34 34 33 33
45 45 45 46 46 46 40 34 43 42 39 37 34 37 29 34 35 37 37 40 40 39 36 37 36 35 37 36 30 34 31 32 31 30 31 35 34 34 33 33 33 33 31 30
45 45 45 46 45 41 38 37 39 43 43 37 33 35 33 35 36 40 40 40 41 39 37 37 36 37 38 36 33 34 29 30 28 28 30 31 32 32 32 30 30 32 30 29
45 45 45 46 43 42 40 42 43 43 41 38 32 33 35 38 37 36 40 39 39 38 37 38 34 37 38 32 27 25 25 27 26 26 28 30 29 29 28 29 29 29 28 27
45 45 44 42 41 38 42 43 43 45 40 34 35 31 32 39 38 38 38 38 33 37 34 35 37 34 25 27 25 23 23 23 23 24 26 25 26 26 26 26 26 26 25 24
43 42 38 33 41 44 43 40 36 38 39 39 34 37 34 36 37 35 35 37 34 32 34 37 35 25 25 23 22 22 22 22 23 22 23 23 23 24 25 25 24 24 23 23
43 38 36 42 44 42 38 34 35 36 34 34 35 36 35 39 35 34 37 33 35 28 33 32 31 22 23 23 21 20 20 21 21 21 22 23 23 24 26 23 22 21 20 20
40 40 42 41 38 36 32 32 33 29 28 33 34 36 36 37 38 35 34 32 33 27 35 32 22 22 20 20 21 19 19 20 21 20 21 22 23 25 23 21 21 20 20 20
38 34 31 30 30 30 28 24 28 29 33 34 35 32 35 36 37 33 33 31 30 33 31 21 21 21 19 19 20 19 19 19 18 18 19 18 18 20 19 19 20 18 18 19
30 30 22 27 23 24 25 27 28 30 32 34 35 34 35 35 32 33 27 29 31 26 23 17 19 21 22 21 20 19 19 20 18 18 18 17 17 18 19 19 18 17 16 17
27 27 22 22 26 28 30 32 30 30 34 35 35 35 34 32 28 29 28 25 21 20 18 19 21 21 20 20 21 20 19 20 19 18 17 17 17 16 16 17 17 16 15 15
24 24 25 29 27 27 28 30 29 32 34 35 35 32 28 25 25 22 21 22 17 18 21 21 19 19 19 19 20 20 21 21 19 19 17 17 16 15 15 15 15 15 15 14
22 22 27 28 26 26 26 28 29 32 33 29 31 23 21 23 21 16 17 16 18 19 19 20 21 20 20 20 21 21 21 20 20 19 18 18 18 18 15 14 15 15 14 14

GFSNW_sfc_dewp_087.txt.gz
Dewpoint
41 41 41 42 42 42 40 39 27 38 40 33 35 32 30 30 22 23 23 22 21 21 23 23 22 30 28 26 27 24 28 30 24 22 25 32 36 35 37 34 30 34 35 34
43 42 41 42 41 42 39 35 31 38 43 26 31 32 32 29 27 24 22 21 22 21 21 22 23 30 32 30 27 25 25 30 27 24 25 27 28 35 36 36 37 35 32 34
43 43 43 41 41 41 40 34 25 29 37 35 32 28 27 26 26 25 22 21 22 21 20 22 24 25 30 30 27 34 32 29 28 28 33 35 34 33 35 38 34 31 36 36
44 43 43 42 41 42 40 34 31 30 20 31 33 32 35 31 24 23 23 21 21 21 20 20 21 24 24 29 33 28 29 27 28 26 26 35 35 36 36 36 35 35 33 34
44 43 43 43 42 42 37 32 30 28 27 30 30 30 28 25 25 26 27 25 23 22 20 20 21 28 29 30 30 28 27 25 26 24 23 24 32 32 33 34 38 37 37 36
44 44 43 44 43 42 36 37 35 33 28 26 27 28 27 25 26 27 25 27 31 31 30 33 33 33 32 32 32 29 28 27 26 24 25 23 27 28 32 33 34 33 34 36
44 44 44 45 44 42 35 34 33 30 22 24 24 25 25 25 25 27 27 30 32 34 37 34 34 32 31 31 31 31 28 28 27 24 23 21 28 28 27 26 31 31 36 35
45 45 45 45 44 43 37 35 35 31 22 24 22 23 21 24 27 29 31 33 36 41 37 31 26 26 27 27 28 28 29 28 25 24 24 23 19 21 22 22 31 37 36 37
45 45 45 45 45 44 40 36 37 34 29 25 25 23 25 26 27 29 31 38 41 40 34 29 23 21 24 22 25 27 28 30 28 26 23 18 23 25 28 31 31 36 37 38
46 46 45 45 45 45 43 37 37 36 30 30 29 27 28 32 30 33 32 34 36 39 31 24 23 23 23 23 26 26 26 27 26 25 26 27 27 28 31 26 32 37 36 36
46 46 46 46 46 46 44 40 37 36 32 30 31 31 30 31 34 28 34 32 35 32 28 27 25 23 27 26 27 30 26 26 26 27 24 21 33 32 32 38 38 36 36 37
46 46 46 46 46 46 45 39 39 39 35 31 34 32 32 32 35 37 37 36 35 35 29 29 29 27 31 31 28 35 29 28 28 27 26 39 41 39 41 38 36 37 36 36
46 46 46 46 46 46 46 41 39 40 37 33 31 28 31 33 35 41 36 38 39 38 41 37 35 29 32 30 28 33 36 37 31 31 38 39 39 40 36 37 35 35 35 35
45 46 46 46 46 47 46 41 42 39 37 29 29 32 30 30 29 36 40 39 41 40 40 35 33 32 36 32 33 31 38 37 35 37 38 38 39 39 39 35 35 34 34 34
45 46 46 46 46 46 46 42 42 40 32 29 29 31 31 32 31 31 38 39 37 37 36 33 32 37 36 35 36 35 33 34 34 31 36 37 36 35 35 34 33 32 31 31
45 45 46 45 45 46 38 33 42 40 37 35 29 38 36 33 34 33 34 39 38 37 36 34 37 40 38 33 32 34 32 29 31 33 37 35 33 32 31 31 32 30 29 28
44 45 45 45 45 41 37 35 39 42 42 35 31 29 35 35 35 35 37 38 39 37 37 36 35 36 38 33 28 32 33 30 28 28 34 30 30 29 30 29 30 29 27 26
45 45 45 44 43 43 40 43 43 42 39 37 29 29 34 36 35 34 39 38 39 38 36 37 35 36 35 26 25 23 27 27 26 28 27 27 27 26 27 26 27 26 25 25
46 45 44 42 40 37 41 44 43 43 39 31 31 26 28 38 36 37 37 38 31 37 33 34 36 29 22 26 25 22 22 22 22 23 23 24 24 25 26 25 24 24 24 24
43 41 37 32 40 44 44 40 37 37 37 36 32 35 32 38 35 34 33 33 32 29 31 37 27 22 27 25 21 21 21 21 21 22 21 22 22 25 24 23 22 22 21 20
41 35 35 42 44 41 37 31 30 31 30 33 34 35 33 38 32 32 32 30 32 26 30 31 26 20 24 23 20 20 21 21 21 22 23 23 25 23 21 19 19 18 17 17
41 40 42 41 38 35 32 28 32 30 28 34 33 34 36 35 36 33 34 29 31 26 34 30 18 21 20 21 19 19 20 19 19 19 18 19 21 21 20 19 19 18 17 17
38 35 34 34 31 27 21 22 26 26 30 32 34 32 34 34 36 32 30 28 26 29 25 15 17 21 21 19 19 18 19 19 17 17 17 17 17 17 16 16 16 16 15 16
31 27 16 24 22 23 25 26 27 30 32 33 32 32 33 33 30 32 23 26 29 26 15 9 17 20 20 20 20 19 17 18 16 16 15 14 14 14 14 14 14 13 13 14
26 25 19 19 25 27 29 31 30 31 33 33 33 29 30 29 23 28 24 23 17 16 8 15 18 18 19 20 21 15 15 14 15 12 12 10 9 11 12 12 13 13 13 13
24 24 24 27 23 24 26 28 28 32 32 33 31 26 25 22 26 22 16 18 8 11 16 18 17 17 17 18 19 19 19 17 16 15 14 14 11 10 11 12 12 11 10 9
22 21 24 24 22 23 23 24 25 30 29 25 29 22 19 26 18 12 16 9 13 17 18 20 19 18 17 16 19 19 17 14 13 13 13 12 14 14 14 11 11 12 11 9

GFSNW_sfc_dewp_090.txt.gz
Dewpoint
43 43 43 42 42 41 40 37 27 35 40 28 30 27 34 32 28 29 26 26 22 21 22 21 24 32 30 27 28 23 26 28 22 22 23 33 35 37 37 34 30 34 35 32
43 43 43 42 42 41 38 34 31 35 40 23 26 32 30 31 28 26 25 24 25 24 22 19 29 31 32 30 27 24 24 26 27 25 28 31 34 34 36 38 37 33 31 33
43 44 44 43 41 41 38 32 25 28 34 35 30 27 29 27 28 26 26 24 24 24 23 23 23 29 32 30 28 36 32 27 28 28 29 35 34 34 37 36 33 31 34 34
43 44 45 44 41 42 37 33 23 33 28 30 28 31 33 29 25 28 29 24 24 23 21 22 20 25 27 30 35 29 29 25 29 28 26 34 34 33 34 36 36 35 35 35
43 44 44 44 42 42 35 29 29 31 28 30 31 32 29 30 25 28 26 28 29 31 29 28 23 28 29 30 31 29 29 23 26 25 25 26 22 33 34 35 38 38 38 37
43 44 44 44 43 41 35 33 32 29 27 27 25 28 26 26 28 29 26 26 28 31 32 34 33 32 32 31 30 28 27 28 26 23 24 20 23 29 34 30 37 34 33 36
43 44 45 45 44 41 34 33 31 26 20 24 24 24 24 22 24 28 30 31 31 34 37 34 33 32 31 31 31 31 27 26 26 24 23 14 23 25 28 35 36 34 35 39
43 44 45 45 45 44 35 34 33 29 19 26 24 24 24 27 28 27 29 33 38 39 35 30 28 26 26 27 30 30 31 27 23 22 22 22 19 20 26 31 34 38 38 38
44 45 45 45 45 44 40 35 36 32 29 23 25 26 25 24 26 28 31 38 40 37 33 29 25 21 24 22 25 29 28 29 25 24 22 17 24 27 30 34 33 38 37 39
45 46 46 46 45 45 43 39 37 34 27 28 29 26 28 32 31 29 31 33 34 37 28 24 25 23 25 22 24 27 28 27 24 23 23 26 31 36 35 26 32 37 37 37
46 46 46 46 46 46 44 41 38 34 29 28 30 31 30 32 35 30 33 28 33 33 28 27 25 23 25 26 26 27 27 27 25 25 25 21 38 37 35 37 37 37 37 37
46 46 46 46 46 45 45 40 39 37 33 31 32 31 31 31 35 34 35 35 35 35 32 30 29 24 25 28 25 35 30 31 28 27 26 38 38 37 38 37 37 37 37 37
46 46 45 46 46 46 45 42 40 39 35 31 30 27 30 32 35 39 30 35 38 38 39 35 34 30 31 25 28 33 35 37 34 34 38 37 40 38 37 38 37 35 33 33
46 46 46 45 46 46 46 42 42 39 36 28 29 33 32 30 32 39 37 37 39 39 39 35 32 29 35 34 35 33 36 38 34 36 38 38 38 38 38 35 33 32 31 29
45 45 46 45 46 46 46 45 42 41 33 27 28 33 31 31 31 30 33 37 37 35 34 32 31 34 36 36 35 31 33 31 32 29 34 36 35 35 36 34 32 29 28 27
45 45 45 46 46 46 39 33 42 42 42 35 30 35 35 32 33 31 30 39 36 35 33 32 34 37 35 31 30 32 33 34 34 33 35 35 35 32 30 30 29 27 25 24
45 46 45 46 45 42 38 34 37 42 42 35 29 28 35 35 34 34 34 37 36 37 35 34 35 35 36 30 23 29 33 32 34 32 35 28 28 27 28 29 27 27 24 23
45 45 45 45 45 44 41 44 43 42 37 37 26 24 30 36 32 32 36 33 35 37 35 36 35 37 33 21 25 23 28 31 27 26 29 28 27 26 25 26 26 25 24 22
45 45 46 44 40 38 41 44 43 43 38 31 29 21 22 37 33 36 37 38 31 37 33 33 35 26 21 24 22 20 21 22 22 22 22 23 25 24 23 22 22 22 22 22
44 41 36 32 39 44 43 40 36 36 38 34 30 31 30 35 34 34 33 34 32 29 31 34 25 21 25 21 20 21 21 21 22 20 19 20 23 22 20 19 20 20 20 19
40 36 36 42 43 40 36 31 31 32 29 31 31 33 32 36 32 31 31 31 32 27 31 31 23 19 21 21 19 20 20 19 19 19 20 22 22 21 19 17 17 16 16 16
40 40 42 41 38 35 29 27 29 27 25 32 30 33 36 35 37 33 33 29 31 25 33 22 13 19 21 18 18 18 18 18 17 17 17 19 19 18 17 16 16 15 15 14
38 35 33 31 28 26 15 21 26 28 31 33 34 31 33 33 36 31 30 25 22 32 19 13 16 19 19 18 18 17 17 16 15 15 15 15 15 17 15 15 15 14 13 13
30 24 11 17 10 17 17 25 26 30 32 33 30 32 32 33 29 31 25 24 27 22 5 7 15 19 19 19 18 16 16 15 14 13 13 12 12 11 11 10 10 10 10 10
25 22 12 13 21 23 28 29 30 31 33 33 31 29 29 26 22 27 24 22 6 10 6 13 16 16 19 18 17 13 12 10 10 7 8 5 5 8 10 10 10 10 9 9
23 22 21 24 19 19 24 27 26 31 31 33 29 24 20 19 22 15 13 13 5 6 7 14 15 14 14 14 16 14 12 11 10 9 9 8 4 4 4 5 6 4 6 5
21 19 20 17 16 17 24 25 26 30 28 19 21 14 15 22 12 8 12 4 8 15 17 17 12 11 10 10 12 11 10 10 7 6 8 6 7 7 10 7 6 9 8 7

GFSNW_sfc_dewp_093.txt.gz
Dewpoint
42 43 43 43 43 41 39 36 26 34 42 25 28 21 27 31 28 29 33 28 23 21 24 23 30 33 31 26 27 24 25 28 23 23 25 35 36 34 36 31 31 33 33 30
42 43 44 44 44 41 36 32 31 35 39 25 16 25 29 26 28 27 32 30 26 24 24 21 30 30 32 28 26 24 26 27 24 24 30 34 34 36 36 35 36 31 30 29
43 43 44 44 43 42 36 32 22 27 33 34 29 25 23 26 29 26 27 28 27 25 22 24 23 28 32 32 28 35 31 27 26 24 28 31 32 33 35 36 32 32 33 34
43 43 44 44 43 42 35 32 24 29 24 30 28 28 28 29 27 29 30 28 30 29 25 24 23 27 26 30 35 28 28 23 27 28 30 29 32 32 33 33 35 33 34 33
43 43 44 44 43 42 34 28 27 29 28 30 32 31 28 29 31 28 25 25 28 30 30 30 28 30 27 28 30 28 28 22 25 23 26 28 27 22 21 31 34 35 37 37
42 43 44 44 43 40 31 32 31 28 24 25 25 28 29 30 31 31 28 29 29 28 31 32 32 33 32 31 30 27 27 26 25 22 23 21 18 24 25 33 33 35 35 36
42 42 44 44 44 40 33 32 30 24 18 23 22 23 23 25 27 27 28 30 29 34 37 34 32 30 31 31 31 31 27 26 26 23 21 13 18 19 36 34 37 37 36 40
42 43 44 44 44 44 34 34 31 27 20 25 24 24 24 26 27 28 32 36 39 39 35 28 26 25 25 26 30 30 30 27 22 20 19 17 18 25 29 28 30 39 41 41
43 44 44 45 45 45 39 35 35 31 24 21 26 24 25 24 28 28 31 36 38 37 32 28 23 20 23 22 24 30 30 28 25 23 19 13 23 33 35 37 32 39 42 42
44 44 45 45 45 45 43 38 36 33 26 27 27 26 27 31 30 28 30 34 34 36 28 26 24 23 25 21 23 25 26 26 24 23 22 23 27 37 38 27 29 38 40 42
44 45 46 46 46 46 44 41 37 34 26 28 29 28 26 31 32 29 31 27 31 32 25 25 25 24 25 26 24 25 24 24 23 25 24 19 37 36 33 36 37 38 37 38
44 45 46 46 46 46 45 40 38 36 35 28 32 30 31 31 33 30 32 32 34 35 32 30 30 24 24 27 22 33 25 30 29 26 24 37 38 37 38 37 34 34 35 35
45 46 46 46 46 46 45 42 39 39 35 32 30 27 28 32 32 35 28 32 36 35 38 33 33 27 30 22 23 31 35 36 33 33 37 37 38 37 36 37 35 32 31 30
46 45 44 44 45 46 46 42 41 39 36 27 27 33 30 30 32 36 35 33 38 39 38 34 31 28 32 30 34 31 33 34 31 34 35 36 36 38 37 35 32 31 30 28
45 45 44 45 45 45 46 44 42 41 34 27 28 33 33 32 31 35 37 36 36 35 34 32 28 32 33 33 34 28 33 30 28 28 32 34 34 36 36 33 31 26 26 24
45 45 45 46 45 45 41 33 42 41 42 35 28 34 34 32 32 30 31 33 37 37 35 32 32 34 35 30 26 29 33 33 31 32 34 33 34 33 31 29 26 24 23 22
45 45 45 46 46 42 39 35 38 43 42 34 29 27 32 34 32 32 31 35 35 36 33 33 34 35 37 29 23 27 31 30 30 31 34 30 30 28 27 27 26 25 22 20
44 45 45 45 45 44 40 43 43 42 38 37 27 23 27 35 30 32 33 31 34 34 32 35 34 35 31 22 22 23 25 26 28 28 26 27 26 24 23 23 24 23 22 20
45 45 46 45 41 37 41 44 43 43 38 30 28 21 17 35 32 33 32 33 30 32 32 33 33 24 16 22 21 22 23 22 21 22 22 23 24 21 20 20 20 20 19 20
45 43 35 31 39 44 43 39 35 34 36 34 28 26 26 34 32 32 30 34 30 28 32 31 23 17 22 22 21 21 20 21 20 19 18 19 21 19 18 18 18 18 18 17
40 33 33 41 43 39 36 30 30 32 29 32 30 31 30 36 31 30 33 30 30 25 30 28 19 17 19 21 19 19 18 18 18 19 20 21 21 19 17 16 16 15 15 14
40 40 41 40 36 34 29 28 29 27 24 30 31 34 36 32 34 32 32 27 30 25 31 22 11 18 19 17 17 17 17 16 16 17 18 18 17 18 16 15 13 13 13 12
38 35 32 32 29 23 22 22 23 26 31 33 34 31 33 33 34 32 30 26 25 28 15 9 14 19 19 18 17 16 15 15 14 14 14 14 13 15 14 13 14 13 11 11
27 23 10 15 7 15 15 22 22 26 32 33 31 32 32 31 27 29 20 22 24 12 5 7 15 18 18 18 17 14 13 12 11 11 11 10 10 9 8 7 4 4 3 2
24 21 9 12 18 19 27 30 30 31 33 32 30 28 28 24 21 24 21 16 8 8 4 7 15 18 17 16 15 11 10 6 7 5 6 1 2 5 5 4 3 4 1 -0
21 19 19 22 18 22 25 26 28 31 32 32 28 24 20 19 19 14 10 14 8 5 6 13 16 16 16 16 15 12 9 7 4 3 4 4 1 2 2 4 3 0 1 0
20 16 21 14 15 21 24 25 26 29 26 20 22 15 18 19 10 7 10 4 6 13 14 9 8 10 8 7 9 8 8 6 3 3 4 3 3 5 9 7 8 8 7 2

GFSNW_sfc_dewp_096.txt.gz
Dewpoint
42 42 43 43 44 41 37 34 24 33 42 30 25 18 24 26 27 34 34 34 34 31 27 31 33 33 30 26 27 25 27 27 23 24 28 34 35 33 32 31 29 33 32 28
42 43 43 44 42 41 35 29 29 34 40 23 25 25 24 27 25 22 31 30 34 33 28 28 33 34 33 32 26 25 28 29 23 27 30 31 33 35 35 36 34 28 26 26
41 43 43 44 42 42 35 30 22 23 35 35 29 26 23 20 28 27 27 31 34 31 29 27 28 32 33 33 29 36 32 28 24 22 26 29 29 32 34 36 30 31 32 32
41 42 43 43 42 42 34 31 23 27 21 27 27 30 27 25 24 32 32 33 32 30 28 29 27 30 28 30 34 30 28 22 26 27 27 30 30 30 31 31 33 31 30 33
41 41 43 44 43 42 32 22 25 29 28 27 26 28 27 27 28 33 32 28 29 31 30 29 28 29 29 29 30 28 28 23 25 24 24 28 27 25 22 22 24 27 34 34
40 42 43 44 43 39 30 30 30 28 24 23 24 27 27 26 31 32 29 28 29 27 31 32 31 32 32 31 30 26 26 25 24 21 23 22 16 20 32 32 34 35 33 35
40 42 42 43 44 38 32 32 29 23 18 22 22 21 23 22 24 28 29 34 30 35 38 34 32 30 30 32 30 31 26 26 26 23 22 12 13 19 33 31 36 37 35 35
39 42 43 43 44 43 34 34 32 27 21 24 24 24 23 24 24 29 31 36 38 38 34 27 23 24 22 24 29 30 29 26 23 20 20 18 19 28 31 32 31 40 41 41
40 41 43 43 44 44 41 35 36 34 25 20 26 24 23 21 27 27 29 34 37 35 30 27 21 19 22 21 22 31 30 28 25 23 19 11 17 34 36 36 29 38 42 42
40 41 43 44 45 45 43 39 37 36 27 27 27 25 26 30 29 27 30 32 34 33 26 24 24 23 25 19 22 25 26 26 25 23 23 24 30 35 37 26 30 37 40 42
39 41 43 44 45 45 43 41 37 36 26 27 27 27 24 26 30 27 28 25 30 30 26 25 25 24 25 26 24 25 24 25 23 24 23 19 36 35 30 35 34 36 37 37
40 42 44 44 45 46 45 40 38 38 35 28 33 31 30 30 32 29 29 30 34 34 31 30 30 27 26 27 23 31 24 32 30 27 25 37 37 37 35 33 32 32 35 35
40 43 44 45 46 46 45 41 39 38 34 34 31 30 30 32 31 34 26 31 34 35 37 33 33 28 31 23 24 31 32 34 32 32 35 36 36 35 36 35 34 33 34 32
42 44 45 46 45 46 46 41 41 38 36 28 27 32 29 30 32 33 32 31 36 38 37 33 31 27 31 28 31 30 30 31 28 32 33 35 34 35 35 34 33 29 28 28
43 44 45 45 45 45 46 43 41 40 35 25 27 32 33 32 31 32 35 34 32 34 34 31 27 29 32 32 31 26 31 28 25 26 31 32 31 34 34 30 29 28 26 21
43 44 45 45 44 45 41 33 41 41 42 35 27 33 32 32 31 32 33 34 35 36 32 32 33 31 34 30 20 29 30 30 29 28 33 32 32 32 32 28 26 22 20 19
43 44 45 45 44 43 38 35 38 43 42 34 29 26 31 32 31 30 30 31 34 33 35 32 31 32 35 28 18 26 29 30 29 30 32 30 27 25 26 26 24 23 19 18
44 45 45 45 44 44 40 43 43 43 38 37 28 23 26 33 29 28 32 31 31 32 34 33 31 34 30 22 23 23 24 26 24 25 25 28 24 21 20 21 21 20 19 17
44 45 45 44 41 36 40 44 43 43 38 31 28 19 16 34 32 34 33 30 25 30 31 30 32 25 17 21 21 21 21 21 19 21 20 23 21 19 18 17 17 17 17 19
44 43 36 30 34 44 41 38 34 34 35 35 27 25 28 34 31 31 30 30 23 25 28 30 24 14 22 22 21 19 19 19 18 17 17 18 19 18 16 16 16 16 16 14
39 33 33 40 43 38 34 30 29 31 29 32 29 29 29 35 27 29 30 27 28 25 27 28 20 16 19 20 19 18 17 17 17 19 18 18 18 17 16 14 14 13 12 12
37 39 41 41 36 32 30 27 29 27 24 29 30 30 34 33 35 32 31 27 29 23 29 21 10 16 19 18 17 16 16 15 15 17 16 16 16 15 14 13 12 12 11 10
39 36 32 33 28 24 19 21 23 17 28 31 34 32 34 32 33 32 30 25 24 27 17 12 14 18 18 17 16 15 15 14 14 14 13 13 12 13 12 12 12 10 8 7
29 27 20 21 11 17 15 19 23 28 32 33 33 32 32 32 30 29 23 23 25 17 6 7 14 17 18 18 16 13 12 12 11 10 10 9 9 7 6 3 -1 1 0 -4
23 22 11 16 17 21 27 30 31 31 34 32 29 27 28 22 21 19 20 17 11 10 7 7 13 15 16 14 14 10 8 4 5 3 3 -1 0 3 3 1 -2 -1 -5 -4
21 18 18 22 22 24 25 28 28 31 33 31 27 23 19 17 18 16 12 16 9 5 3 12 17 15 13 11 12 7 5 4 2 0 2 2 -1 -0 -1 -1 -2 -6 -5 -6
18 15 18 10 11 21 23 25 26 29 29 24 21 16 17 19 12 9 9 3 4 9 12 6 7 10 8 4 6 5 5 4 1 1 3 0 1 3 7 3 -0 3 0 -4

GFSNW_sfc_dewp_102.txt.gz
Dewpoint
38 41 42 43 43 40 37 35 30 36 41 34 32 24 23 25 19 19 24 24 27 30 30 28 32 30 27 30 25 23 28 29 28 26 30 30 30 28 29 29 27 28 30 23
38 40 42 43 41 39 36 32 27 35 41 26 25 24 22 23 23 23 27 27 31 32 30 29 35 31 32 29 28 29 31 28 26 28 30 31 28 30 33 36 35 28 28 23
38 39 41 43 42 40 35 36 31 27 35 33 26 24 23 22 25 26 29 34 35 33 33 36 34 35 33 33 31 38 33 27 24 20 26 29 30 29 29 30 30 25 27 26
35 38 41 42 43 40 34 36 29 28 28 27 28 26 23 21 26 28 35 35 33 32 31 32 32 35 34 34 35 33 30 22 23 22 24 24 24 23 22 20 22 24 21 23
35 38 40 42 43 39 34 34 28 27 23 25 26 25 22 18 25 30 30 30 30 29 28 31 31 33 32 32 31 31 31 22 18 17 21 21 19 17 13 15 22 26 27 27
36 38 40 42 44 39 35 34 33 27 21 16 20 25 23 21 22 24 23 30 29 28 31 34 34 34 34 32 30 27 24 22 15 15 16 15 12 15 18 20 23 28 28 34
35 37 39 42 44 39 34 33 30 30 25 19 18 20 19 19 21 22 23 30 29 30 35 35 31 31 28 28 29 30 22 19 20 17 18 4 16 24 23 21 29 35 37 37
35 38 39 42 43 41 35 34 32 28 28 21 18 21 23 21 21 23 28 29 32 37 34 27 14 21 22 26 30 28 28 23 21 18 13 17 26 28 28 27 27 34 37 39
37 38 39 42 42 44 42 37 36 36 30 21 21 23 24 23 25 24 28 31 36 36 32 28 18 17 17 16 22 28 27 28 24 21 14 12 26 29 31 31 26 34 35 37
37 38 39 41 41 43 42 39 40 38 33 27 26 22 23 26 25 25 28 30 32 35 31 26 22 18 22 18 17 22 25 26 24 24 21 23 31 30 32 23 28 35 34 32
36 35 38 39 41 43 43 41 39 38 35 30 29 28 26 25 27 26 28 32 31 32 27 25 26 25 26 24 27 27 23 26 26 25 22 20 35 30 29 34 34 35 34 33
37 36 38 39 41 42 44 39 39 40 37 33 35 34 33 30 29 30 30 29 30 32 29 28 29 27 29 26 22 29 29 30 28 28 28 33 34 32 32 32 31 33 34 34
36 35 38 39 41 43 43 41 40 39 36 35 34 32 34 36 35 35 29 32 32 33 35 32 31 28 30 26 26 28 32 30 30 33 31 31 33 33 32 30 30 30 30 30
35 35 39 40 41 43 44 41 41 40 37 32 30 33 33 33 35 34 34 32 38 37 35 32 31 28 30 27 29 29 30 29 30 32 32 30 29 31 31 30 29 28 27 27
34 36 38 40 42 44 45 43 42 42 38 33 30 34 35 34 34 33 34 33 31 31 31 33 29 31 30 33 32 29 28 27 28 28 31 30 30 31 30 27 26 26 24 21
34 37 39 41 44 45 41 33 41 43 43 37 31 34 34 34 33 32 32 33 33 33 32 32 32 30 33 30 28 28 28 29 30 30 32 31 31 32 30 27 25 20 19 19
35 37 39 42 44 45 39 38 40 43 44 35 32 30 34 33 32 34 33 34 35 36 35 33 31 31 33 33 28 30 28 29 30 32 32 29 26 25 25 22 20 19 17 17
35 37 39 43 44 44 41 44 43 43 38 36 32 31 31 33 32 32 35 32 33 32 32 33 32 34 33 28 26 25 26 26 27 28 28 27 25 21 18 19 19 18 17 16
36 38 42 43 40 37 40 44 43 44 39 34 31 30 30 35 33 33 34 34 31 34 31 30 32 28 29 27 24 22 22 22 19 25 24 23 21 17 16 16 16 16 16 16
37 39 37 32 37 44 43 39 36 36 36 36 31 33 31 34 33 33 31 34 29 26 28 32 30 28 25 23 22 20 18 17 18 19 18 19 18 17 15 15 15 16 15 14
39 34 35 41 43 40 37 32 32 32 30 33 32 32 32 36 31 29 33 28 29 23 28 27 26 25 23 22 19 17 17 17 17 18 17 17 17 16 15 14 14 13 13 13
38 38 41 40 37 34 31 30 32 28 25 31 30 29 32 36 37 32 31 28 28 22 32 29 25 23 20 19 17 16 16 16 16 16 16 16 15 15 14 13 13 13 12 12
39 37 34 32 33 28 27 23 26 28 32 32 32 31 33 35 36 33 30 26 25 33 30 26 25 21 19 18 16 16 16 15 15 14 14 14 14 13 13 13 13 13 12 11
32 31 26 29 26 29 29 28 31 35 35 34 34 32 31 33 32 34 30 31 30 27 24 26 22 21 21 18 17 15 16 16 16 16 15 14 13 12 11 11 11 10 9 8
31 30 27 26 30 30 32 35 34 35 36 35 33 33 33 32 31 32 29 26 24 24 26 24 23 22 21 19 17 16 15 14 14 14 12 11 11 11 11 11 12 10 9 8
26 24 26 27 29 29 32 33 32 36 35 37 35 32 31 30 30 27 26 24 23 27 23 23 22 21 19 18 17 16 16 15 15 14 14 13 12 13 13 12 11 10 9 8
24 25 27 29 32 30 30 32 31 33 37 33 31 28 27 26 25 25 25 28 24 21 23 23 22 19 18 16 15 14 15 15 15 15 15 14 14 13 13 13 13 12 11 10

GFSNW_sfc_dewp_105.txt.gz
Dewpoint
39 40 41 43 43 42 39 34 33 35 40 36 30 23 20 25 22 24 24 26 29 31 32 31 32 27 13 18 19 18 22 25 26 30 23 25 24 25 27 26 25 26 28 27
38 40 41 43 42 42 35 28 25 36 39 29 26 22 20 20 23 23 27 31 35 36 32 28 31 33 32 27 24 24 25 27 25 31 27 30 28 26 29 33 31 28 27 29
39 40 40 42 43 42 37 37 35 28 31 32 26 23 20 21 26 28 28 34 36 35 33 33 32 36 35 34 31 38 34 28 26 22 23 27 28 29 28 28 29 26 24 22
37 38 40 41 43 42 37 38 31 26 32 28 26 25 21 20 25 27 29 35 28 32 30 29 32 35 34 32 36 33 31 28 31 28 27 27 27 27 26 27 24 22 23 27
35 37 40 41 43 42 35 33 29 26 23 22 25 26 21 18 21 26 27 26 26 26 25 29 30 32 32 35 35 33 32 20 20 20 21 22 22 18 14 13 17 22 22 33
36 37 39 40 44 42 32 32 31 27 23 16 20 24 20 19 21 23 21 26 27 24 28 33 33 32 32 31 28 32 30 22 19 17 14 13 14 17 17 18 31 32 34 37
37 37 39 40 43 43 36 33 30 28 26 17 17 17 17 17 18 19 22 27 27 28 33 33 29 30 28 28 27 28 21 20 18 16 17 10 21 23 22 29 31 32 35 37
36 36 39 40 42 44 38 36 32 27 27 19 17 20 19 21 21 22 23 27 29 35 33 27 19 22 24 21 25 24 26 22 21 17 13 18 25 25 26 26 32 31 33 36
36 38 39 39 42 44 41 38 38 34 29 22 21 22 20 20 22 24 24 29 34 35 30 27 16 17 18 16 19 22 23 24 23 21 12 18 30 29 29 28 30 34 33 33
38 37 38 39 41 42 42 41 41 37 35 27 27 25 25 24 23 23 25 29 31 34 31 28 21 19 18 17 17 20 23 24 24 23 20 27 32 32 32 28 28 34 33 32
39 38 39 39 40 41 44 42 41 38 36 30 30 30 28 26 26 26 26 31 31 32 28 25 25 26 24 25 22 24 25 28 26 24 22 24 32 30 30 33 34 35 33 33
40 38 38 38 39 41 44 41 40 40 39 32 38 37 36 33 32 30 28 27 31 31 30 29 29 29 29 25 29 28 28 28 28 28 27 32 32 31 33 32 32 32 33 33
40 37 37 37 39 41 42 42 41 40 36 35 33 31 35 35 37 36 29 30 31 34 35 34 32 31 28 26 26 27 31 29 30 30 30 30 31 30 31 31 31 30 31 30
39 36 36 37 39 41 41 41 42 40 38 34 32 31 33 35 35 35 35 33 35 35 31 34 31 29 28 27 27 29 29 29 31 31 30 30 28 29 31 30 29 28 26 26
38 36 36 38 40 41 44 45 43 42 37 35 33 33 34 35 34 33 35 33 32 28 29 33 32 29 28 31 30 31 28 28 29 29 33 31 29 29 29 28 27 25 23 22
38 35 36 39 40 42 42 34 43 43 43 36 33 35 33 35 35 33 33 32 31 29 30 32 31 29 31 30 28 29 29 29 31 31 31 32 32 30 29 26 24 20 20 19
37 35 37 39 41 44 39 38 40 44 43 36 32 31 33 33 33 33 32 32 31 33 32 31 29 32 32 33 28 31 30 29 30 31 31 29 29 26 26 24 21 20 18 18
36 36 37 40 43 44 40 44 44 44 39 38 32 31 32 33 32 32 33 31 31 31 30 33 30 33 31 27 29 27 27 27 27 28 28 28 27 24 21 19 19 19 17 18
35 36 39 42 40 36 41 44 44 44 40 34 32 30 31 34 35 35 35 33 32 33 32 30 30 28 29 30 26 25 26 25 24 25 25 24 21 18 17 17 17 17 17 17
36 39 37 32 38 44 43 39 36 37 36 37 31 32 33 33 33 33 33 34 30 29 29 32 30 28 29 26 25 24 22 20 20 22 21 20 19 18 17 17 17 17 16 15
37 34 35 42 44 41 38 33 33 33 30 33 33 31 33 35 32 32 33 31 31 24 29 27 27 25 26 24 22 20 20 19 19 20 20 19 19 18 17 15 15 15 15 15
38 40 41 39 37 36 32 31 31 28 24 31 31 32 33 36 36 32 33 29 29 24 32 29 24 25 23 21 20 19 19 18 18 18 18 18 17 17 16 15 15 15 14 14
40 37 35 34 34 30 28 25 26 29 33 33 34 33 35 35 35 35 30 27 28 33 29 26 27 24 21 20 19 18 18 18 17 16 16 15 15 15 15 15 15 15 14 13
35 31 29 30 29 30 30 27 33 36 36 35 35 33 32 35 33 35 30 33 31 27 25 25 25 24 23 20 18 17 18 18 18 18 18 17 16 15 14 14 14 13 11 9
32 32 29 30 35 36 36 38 38 37 38 38 35 33 32 33 32 31 31 29 25 24 27 28 26 25 22 21 21 19 18 18 18 18 16 14 14 14 13 14 14 12 11 10
31 29 29 31 33 31 34 33 35 39 39 38 34 32 30 30 31 28 27 25 24 31 30 27 24 23 22 21 20 18 18 19 18 17 16 15 14 15 15 14 13 12 11 10
28 28 30 32 36 34 34 37 36 39 38 35 32 31 29 30 27 26 29 31 30 28 26 26 25 23 22 20 19 18 18 18 18 18 17 17 17 16 15 16 15 15 13 11

GFSNW_sfc_dewp_111.txt.gz
Dewpoint
40 40 41 41 43 43 41 38 31 37 40 31 32 24 21 26 24 27 28 30 32 32 31 28 27 28 32 37 34 30 35 33 31 32 37 36 37 33 32 31 30 32 32 29
40 40 41 42 43 43 39 35 33 37 39 23 24 25 24 23 25 25 26 29 32 32 30 25 27 32 35 37 35 35 36 34 27 27 34 36 35 35 35 35 36 32 29 29
39 39 40 41 43 43 40 35 27 32 33 29 26 24 25 23 25 24 26 27 31 30 26 32 31 32 33 35 35 40 39 34 32 28 32 33 32 32 33 36 31 32 32 31
39 39 39 41 42 43 39 34 28 30 23 27 23 26 25 22 21 24 27 27 26 26 23 26 26 33 33 32 36 35 35 32 33 34 33 35 34 34 34 32 31 31 31 29
39 39 39 40 42 43 37 24 32 24 22 23 22 28 25 19 19 24 25 24 25 26 24 27 28 32 33 30 32 34 35 33 32 31 32 32 33 29 30 32 36 36 33 30
38 37 38 40 42 43 38 35 31 29 28 20 22 25 22 21 24 23 20 25 25 25 26 29 30 32 34 33 34 32 31 30 29 26 28 28 28 29 29 30 32 32 29 34
37 37 39 40 42 43 42 39 37 29 25 23 18 19 19 20 21 23 25 27 25 28 32 32 33 32 31 28 34 32 29 30 27 23 23 23 30 30 30 30 31 31 32 33
38 39 39 39 41 42 41 39 36 32 25 24 21 20 21 23 26 25 27 27 28 34 32 31 26 26 28 28 30 30 32 30 26 23 26 30 26 26 28 29 29 32 31 32
40 40 39 39 41 41 41 41 41 35 29 28 27 25 27 24 22 25 29 27 34 33 33 30 23 21 23 25 25 27 30 31 30 26 22 21 25 27 29 32 23 33 31 31
41 40 40 39 41 42 41 40 41 36 28 33 31 26 26 28 27 26 28 28 30 32 28 27 24 24 24 27 25 26 26 28 25 27 25 24 28 28 29 23 24 35 34 32
41 41 40 41 41 42 42 39 41 39 34 32 36 34 30 29 29 25 29 27 29 28 26 25 26 26 28 30 28 27 26 27 24 25 22 18 30 28 25 32 34 35 34 33
41 41 41 41 41 42 42 40 43 40 35 33 36 37 37 35 33 32 31 29 32 32 26 27 28 29 28 26 25 30 26 29 25 26 24 32 32 32 34 34 32 32 30 30
41 41 40 39 40 41 42 41 40 38 33 33 34 34 37 37 37 36 30 36 34 33 34 29 32 29 29 25 27 30 32 33 28 28 30 30 31 30 30 29 30 28 26 24
41 41 40 39 40 41 41 38 42 40 35 31 33 34 35 36 35 36 35 34 34 33 33 31 29 28 32 27 30 28 30 30 29 28 29 28 29 30 30 28 26 24 23 22
41 41 39 38 38 40 40 41 42 41 36 32 31 34 37 35 35 34 33 33 31 30 28 28 27 30 29 30 33 28 29 29 28 25 33 29 28 29 29 26 24 22 21 19
41 40 37 37 39 41 38 33 40 42 40 33 28 37 37 36 35 33 32 33 32 31 28 27 30 33 29 25 23 29 28 29 32 29 32 31 31 29 27 24 21 20 19 19
40 40 38 37 40 39 35 34 41 44 43 35 29 30 34 34 32 34 32 31 31 31 31 28 28 30 32 23 21 30 29 28 30 31 30 29 30 26 25 23 21 21 19 18
40 39 38 39 40 39 36 40 44 44 39 37 30 27 30 33 30 30 33 30 31 30 30 31 28 30 30 24 30 29 28 27 28 29 28 28 26 23 20 20 19 18 18 18
39 38 39 40 38 35 36 44 44 44 39 31 30 26 20 33 34 33 31 32 28 31 26 29 28 26 21 28 28 27 27 27 26 25 25 25 20 19 19 19 18 17 17 16
39 38 35 31 36 43 44 38 36 36 37 35 31 30 26 32 30 28 29 32 26 22 28 31 25 23 31 30 28 27 27 26 26 24 23 21 19 19 18 18 18 17 16 15
35 33 32 39 43 40 35 30 31 32 30 31 30 31 27 34 25 28 31 25 26 20 25 23 21 24 27 25 23 23 23 22 21 21 21 22 20 19 18 17 16 15 14 14
35 36 41 41 37 33 30 28 31 28 24 30 26 29 33 31 34 28 28 24 24 19 27 20 15 27 25 22 22 22 21 20 19 19 19 19 19 18 17 16 15 14 14 11
37 36 32 32 31 27 23 23 25 21 28 30 29 31 34 32 32 25 28 22 17 26 18 20 23 26 23 23 21 21 20 19 19 18 18 17 17 17 17 16 15 12 9 7
30 29 26 25 24 21 23 24 26 29 32 31 31 27 28 28 27 28 23 24 26 21 15 18 25 25 24 22 21 19 18 18 17 16 14 12 12 9 8 6 3 2 -1 -4
30 31 24 21 26 32 32 33 31 32 34 32 28 28 28 28 26 26 24 24 19 18 21 27 26 24 21 20 19 17 16 14 12 10 8 6 5 7 4 2 2 1 -2 -3
30 28 26 30 30 30 32 31 33 34 31 30 30 26 26 24 25 23 21 20 16 23 26 26 24 22 20 18 18 15 15 14 12 10 9 9 6 7 7 3 3 -1 -1 -3
26 25 27 28 27 32 32 33 33 34 30 28 26 20 21 26 22 23 23 17 27 26 26 26 24 20 17 16 15 14 15 13 11 11 10 7 9 10 12 8 4 6 8 2

GFSNW_sfc_dewp_114.txt.gz
Dewpoint
41 41 43 43 43 43 40 37 30 36 40 30 29 23 21 28 26 27 27 29 31 29 29 27 27 29 34 35 37 34 35 33 27 33 37 37 36 32 31 23 26 32 30 25
41 42 42 43 44 43 39 35 31 36 38 23 22 25 25 27 25 26 26 27 31 30 29 21 26 31 34 35 34 34 36 34 27 30 34 37 33 34 32 36 34 31 27 26
41 41 42 42 43 43 38 34 27 30 33 29 25 24 24 24 25 25 25 26 28 27 22 28 23 30 33 34 35 40 39 32 29 25 29 34 34 32 34 35 30 27 28 28
39 40 41 42 43 44 38 31 27 29 23 27 23 24 26 21 19 24 25 25 26 24 17 23 24 30 31 34 34 34 34 29 32 34 35 35 33 35 35 34 33 27 28 26
39 40 40 41 43 43 37 26 30 26 22 28 22 26 25 19 19 22 21 23 25 25 23 25 25 28 30 31 32 32 34 30 32 31 33 32 30 32 33 34 33 31 28 26
40 39 40 41 43 42 37 36 34 29 27 20 22 24 22 21 25 23 22 25 24 24 25 28 29 30 31 31 32 32 29 29 30 26 32 30 23 29 30 30 31 32 28 30
39 38 40 42 42 43 40 37 35 28 23 24 19 22 20 21 24 25 27 27 25 27 31 32 32 32 32 33 33 34 30 29 28 27 28 17 29 34 29 28 31 31 31 29
39 39 40 41 42 42 40 39 35 30 23 27 26 27 27 25 26 25 27 26 27 32 32 30 25 25 25 29 31 30 32 31 27 27 25 27 24 27 27 27 27 34 30 32
41 41 41 41 42 41 40 39 39 33 27 27 30 26 26 24 25 26 28 30 31 32 31 27 23 23 23 25 27 29 30 31 29 28 21 18 24 27 28 29 22 34 31 29
41 41 41 41 42 43 40 38 38 34 27 32 31 28 26 28 27 26 28 28 30 31 25 24 23 23 29 27 25 26 27 28 24 26 23 24 27 28 30 21 23 34 31 28
41 41 41 43 43 43 40 38 40 36 29 31 35 35 30 31 29 24 27 25 28 27 24 24 24 25 28 29 28 28 27 25 22 24 19 16 30 26 26 30 33 32 32 30
41 42 42 43 43 43 41 37 42 39 32 29 36 34 35 34 32 31 30 32 32 31 25 28 26 27 28 26 22 31 25 26 24 25 23 31 32 32 33 32 30 27 27 30
42 41 41 41 42 43 42 41 38 35 30 30 32 33 36 37 36 35 30 33 33 31 33 32 31 27 29 25 29 27 31 32 26 26 30 30 31 31 29 27 28 25 23 24
42 41 41 42 42 42 41 36 38 35 34 25 32 36 34 36 36 36 34 33 33 31 32 29 29 27 31 28 30 26 29 29 28 28 29 30 31 31 28 25 24 21 21 22
42 41 40 40 41 42 40 38 38 38 34 30 30 34 36 35 34 33 33 33 31 29 27 25 25 29 29 30 31 26 28 28 28 25 31 29 30 29 27 23 21 21 20 19
41 40 38 38 40 40 37 29 36 39 37 32 25 34 35 35 34 32 32 33 31 30 28 26 28 32 27 24 24 29 29 31 32 30 32 31 31 28 24 21 20 19 18 18
41 40 38 38 40 38 33 30 41 42 40 33 27 29 34 34 31 34 31 31 30 30 30 28 27 29 31 19 21 29 29 30 31 31 30 28 29 25 24 20 19 20 18 18
40 40 38 39 41 37 33 41 44 43 37 36 26 25 29 32 28 27 32 29 30 29 29 29 27 29 28 22 29 28 29 30 29 29 29 27 22 20 20 19 18 17 16 16
40 38 40 37 35 32 34 42 44 44 38 30 30 22 18 32 33 31 30 31 24 29 25 27 27 24 24 27 28 27 27 27 27 27 25 21 19 18 18 17 17 16 15 15
39 36 33 30 36 40 43 40 36 35 36 35 31 28 26 30 28 26 27 29 24 21 25 29 23 26 29 31 29 28 28 27 26 24 22 19 18 18 17 17 17 16 15 14
34 32 32 38 40 39 36 30 31 30 29 31 29 28 25 31 23 23 27 23 23 19 23 22 19 24 24 24 23 23 22 24 22 23 22 20 19 18 17 16 15 14 13 13
34 36 40 40 36 33 30 26 29 27 24 27 25 27 31 28 33 27 27 23 22 19 26 22 13 22 23 21 21 20 20 20 19 20 20 20 18 17 16 15 14 13 13 9
37 35 32 31 30 24 23 21 25 19 24 26 26 25 32 31 29 22 26 21 15 24 23 16 20 24 23 21 20 20 20 19 18 18 18 17 17 17 16 15 14 12 9 4
27 27 23 23 23 23 21 23 23 26 25 28 27 25 31 30 24 25 13 19 25 21 16 17 19 23 23 21 20 19 18 17 17 15 14 13 12 9 7 4 2 0 -4 -8
27 29 18 23 24 25 29 32 29 27 30 29 27 25 25 22 25 26 21 24 22 19 15 18 23 23 20 19 18 15 14 11 10 9 7 5 5 5 0 -3 -2 -1 -7 -7
28 26 22 29 29 29 30 31 32 28 28 26 27 24 18 23 23 23 20 18 14 16 20 17 21 20 18 17 17 14 13 11 9 8 8 7 5 5 5 -1 -1 -5 -4 -5
25 24 29 29 28 30 32 32 33 34 29 19 24 17 18 24 22 22 23 16 17 27 24 18 19 18 15 14 14 13 12 10 9 8 9 7 7 6 9 6 2 4 6 -1

GFSNW_sfc_dewp_117.txt.gz
Dewpoint
44 43 43 44 44 44 39 37 30 37 39 30 27 24 25 28 26 27 27 28 28 26 26 26 26 28 31 33 34 32 36 34 27 30 35 37 36 29 28 21 23 30 25 23
42 43 44 44 44 43 39 34 31 36 36 25 23 25 26 26 25 25 25 25 29 28 22 20 24 28 32 33 32 33 35 33 25 26 33 34 33 34 35 34 34 27 24 24
42 43 44 44 44 43 38 34 27 30 33 29 24 23 24 22 25 23 25 25 26 25 20 28 23 28 31 32 34 39 39 34 30 25 29 34 33 31 34 32 26 26 25 25
43 43 43 43 44 43 37 32 27 29 24 26 24 25 25 20 18 21 25 24 25 23 16 21 23 26 29 30 34 33 36 31 31 31 33 31 33 35 35 31 31 25 25 23
41 42 42 43 43 43 37 31 29 25 26 26 23 25 24 18 18 21 20 21 24 25 22 22 22 26 28 29 32 31 33 31 32 29 29 26 27 30 32 30 28 27 23 23
41 41 42 43 43 41 37 36 34 28 26 21 21 24 22 19 23 25 25 25 24 23 24 26 27 28 28 29 29 31 30 29 30 27 30 29 20 27 28 28 31 31 23 25
40 40 42 43 43 43 39 37 34 27 24 23 20 25 21 23 25 25 26 26 25 27 30 32 32 31 31 32 32 32 31 30 28 27 29 16 27 31 31 28 29 31 27 27
39 40 42 43 43 43 40 39 34 30 25 27 26 26 25 25 26 24 27 26 26 30 31 29 25 24 25 28 29 28 31 31 30 26 22 26 26 26 27 26 26 31 29 29
41 41 42 43 43 43 40 39 37 32 28 28 31 25 26 24 25 25 27 30 31 31 28 25 22 23 25 25 26 29 30 29 30 28 20 17 24 27 32 29 21 31 28 27
42 41 41 43 43 43 40 38 38 33 29 31 30 26 25 28 27 25 26 28 29 30 23 23 23 24 29 24 25 27 26 27 24 25 22 23 26 30 35 22 22 33 28 26
41 41 42 43 44 43 40 38 39 34 29 29 34 34 29 29 28 23 25 23 27 26 22 23 23 24 28 29 28 28 24 24 22 23 18 16 29 27 24 29 31 33 31 28
42 42 43 44 44 43 41 37 40 37 31 27 35 35 34 34 31 30 30 31 30 29 23 27 25 24 27 26 21 30 23 25 23 24 22 29 31 30 32 30 25 24 28 28
42 43 43 43 43 43 42 38 37 34 30 29 31 32 36 36 35 34 29 31 33 29 31 30 28 24 28 24 25 28 30 30 26 25 29 29 30 28 25 25 24 24 25 23
42 43 43 44 43 42 40 37 37 35 31 28 32 35 34 36 36 35 34 32 32 31 30 27 26 25 30 27 28 26 27 29 25 26 29 29 30 26 25 23 22 21 22 22
42 41 42 42 43 42 40 38 38 37 31 25 29 34 36 34 34 34 34 33 30 28 26 24 24 28 28 29 29 26 28 28 26 23 28 28 29 26 24 22 21 21 20 19
41 41 41 41 42 40 35 29 35 39 35 28 24 32 34 35 33 32 32 32 31 29 27 26 27 31 26 23 22 29 29 31 32 31 32 31 30 25 23 21 19 19 19 19
41 41 39 39 41 37 32 30 41 41 36 30 21 29 34 35 32 34 30 31 30 29 28 28 27 27 28 18 22 29 30 31 31 30 29 27 27 23 21 20 19 20 18 18
41 40 39 40 39 37 34 41 43 41 34 33 24 25 28 31 28 26 31 28 29 28 27 28 28 28 27 21 28 29 30 30 30 29 28 25 22 20 19 18 18 16 16 16
40 40 39 36 34 30 36 41 43 41 35 30 22 22 18 31 31 30 29 30 20 27 25 26 26 23 19 28 28 27 29 28 27 23 21 21 19 19 18 17 16 16 15 15
40 36 32 28 33 39 42 37 35 34 36 34 29 26 29 29 26 24 23 25 23 21 25 27 23 24 27 28 30 28 29 28 26 20 19 19 18 18 17 17 17 16 14 13
34 31 32 36 41 39 35 30 29 30 29 31 28 27 24 30 23 23 25 22 23 20 23 21 18 23 22 25 25 27 28 27 25 23 20 20 19 18 17 16 15 14 14 13
33 36 40 40 36 33 28 25 29 27 24 26 26 27 29 27 31 26 26 22 21 18 24 22 15 18 22 22 22 21 22 22 22 21 19 19 18 18 16 15 14 14 13 8
38 36 32 31 30 23 19 16 23 24 23 24 25 24 32 29 27 21 25 14 14 23 24 14 18 21 21 21 21 20 20 20 19 19 19 18 17 16 15 14 12 11 8 4
27 23 23 23 21 20 21 23 23 25 24 26 26 30 27 27 24 21 13 17 24 18 15 16 18 22 21 21 21 19 18 17 18 17 16 15 14 10 7 5 3 2 -1 -9
25 28 20 23 23 25 30 31 31 31 26 26 25 25 25 19 21 25 18 16 17 16 14 17 17 22 21 20 19 16 14 12 11 10 9 5 4 5 -2 -6 -6 -4 -8 -10
27 25 21 27 28 28 29 31 32 32 26 25 26 22 17 16 19 21 17 17 11 14 16 16 20 20 19 17 16 14 13 12 9 7 7 5 3 4 3 -1 -3 -8 -7 -9
25 23 21 19 27 28 30 32 33 32 26 18 23 15 17 23 19 17 21 13 16 17 26 13 16 19 15 13 12 11 10 9 7 6 7 5 6 7 8 5 -1 0 2 -6

GFSNW_sfc_dewp_123.txt.gz
Dewpoint
46 46 46 45 44 44 43 39 32 39 41 33 29 24 23 30 25 28 28 29 27 27 28 26 25 25 30 30 31 29 32 34 28 29 30 32 33 31 29 25 22 27 26 21
43 44 44 43 43 44 41 35 35 38 38 28 28 25 25 26 25 25 25 28 28 28 26 22 24 26 29 31 29 31 36 31 23 20 27 27 31 34 36 31 30 26 25 21
44 44 44 43 44 43 39 35 30 32 35 31 27 25 23 22 25 25 25 27 29 25 23 26 23 27 28 31 29 34 39 31 25 21 25 29 28 30 31 32 27 23 22 21
44 44 44 44 45 43 37 34 30 33 30 28 27 27 24 21 19 22 26 28 24 24 19 22 24 27 26 27 32 31 36 32 32 31 30 28 27 29 30 27 29 24 22 20
43 43 44 44 44 42 34 33 29 30 28 29 27 28 21 18 19 23 21 21 23 25 21 18 19 23 25 27 30 30 35 31 33 28 32 28 25 27 28 27 25 25 23 20
44 44 44 44 44 40 35 35 32 30 25 24 26 27 23 21 26 26 23 25 24 23 24 26 25 26 27 26 26 28 31 33 30 25 30 27 19 25 26 26 26 27 21 24
43 43 43 43 43 42 38 37 32 29 24 22 22 24 21 23 24 25 25 27 24 25 30 32 32 30 29 29 29 29 30 30 31 26 30 17 27 32 30 26 28 26 25 25
42 42 42 43 43 43 39 38 33 29 27 24 25 25 25 26 27 26 26 25 27 32 29 28 25 25 27 29 31 30 32 31 29 25 21 25 27 26 27 27 24 27 28 27
42 42 42 43 43 42 39 39 38 33 26 27 26 25 25 23 23 23 26 29 32 30 26 26 23 20 25 25 24 29 30 32 32 25 20 18 23 25 29 30 21 26 24 25
41 42 42 43 44 42 39 39 39 35 32 32 29 25 26 28 26 23 25 28 30 29 26 26 24 24 28 22 21 23 23 25 25 25 21 21 25 28 31 23 23 26 24 23
41 42 43 44 43 43 39 39 39 35 33 32 34 32 30 29 26 21 24 26 28 27 24 24 24 26 28 27 26 25 21 23 22 25 21 18 27 31 25 29 30 27 25 22
41 43 43 44 44 43 40 37 39 36 34 33 36 35 35 32 29 30 31 28 30 29 26 26 27 28 28 26 22 28 23 23 22 23 22 28 29 28 28 29 28 28 24 23
41 43 44 44 43 43 39 38 37 36 35 34 34 34 35 35 35 35 30 32 33 30 31 31 30 27 28 26 26 26 29 28 24 25 27 26 26 24 25 28 29 26 23 21
43 44 45 44 43 41 40 37 38 37 35 32 33 35 35 37 36 36 35 34 33 32 31 30 28 28 30 28 28 27 28 27 26 26 28 26 24 23 25 24 23 21 21 21
43 44 44 43 42 41 39 39 39 38 34 30 32 34 35 36 37 35 35 33 31 29 27 29 28 30 29 31 28 26 28 26 25 24 29 27 25 24 24 23 21 20 19 17
43 44 43 42 40 36 37 33 38 39 37 33 29 33 35 34 35 34 33 33 31 30 28 28 28 30 29 27 26 28 29 31 32 29 30 30 28 24 22 21 20 19 17 16
43 42 41 41 42 40 35 33 37 41 37 33 30 31 34 34 34 32 31 32 31 29 30 29 28 30 29 27 26 28 30 32 31 28 26 23 22 21 20 19 20 19 17 16
42 42 41 41 40 40 38 41 42 39 34 32 28 30 32 33 29 30 31 30 30 30 29 30 30 30 30 27 27 29 30 29 28 28 28 25 22 20 19 19 17 16 16 15
41 39 37 36 34 35 39 42 39 40 34 28 26 27 26 33 31 30 30 29 27 28 28 28 29 26 26 27 28 29 28 28 27 24 23 21 20 18 18 17 17 16 16 15
37 35 30 27 34 39 40 35 31 32 33 32 26 27 30 30 29 27 27 27 27 25 27 28 28 28 27 30 29 30 30 27 24 22 21 20 19 18 17 17 17 17 17 16
33 32 30 35 38 38 34 27 26 28 26 29 27 27 29 31 28 26 27 26 26 22 25 26 25 24 26 28 30 30 28 25 24 24 23 22 21 19 18 18 17 16 16 15
33 35 39 40 34 32 25 25 28 26 23 28 27 28 30 31 31 29 28 25 24 21 26 26 21 25 24 28 29 30 28 25 23 23 21 21 20 20 19 17 16 15 14 12
38 34 32 29 29 22 19 19 22 23 27 28 29 28 31 30 29 26 26 22 22 25 25 20 23 22 23 26 27 28 28 26 22 21 21 20 19 18 17 16 15 13 11 8
28 23 23 20 20 21 22 24 25 26 26 28 28 29 29 27 26 22 21 21 22 18 17 18 24 24 25 25 25 25 25 24 22 22 21 19 18 16 15 13 12 9 6 1
26 24 18 22 23 25 28 28 30 30 28 29 28 27 27 23 22 22 21 20 18 18 19 23 25 23 24 23 23 22 21 19 19 19 17 14 12 11 7 8 8 8 3 2
25 24 23 26 27 28 30 31 31 30 28 28 28 23 21 21 21 20 18 18 16 21 23 24 23 22 22 22 21 20 18 18 16 16 15 12 10 10 10 4 5 3 4 1
22 24 27 26 26 28 31 33 32 29 29 25 24 17 18 23 20 18 20 19 22 23 25 28 24 21 21 19 18 16 16 15 15 13 13 12 10 8 8 7 5 4 4 3

GFSNW_sfc_dewp_126.txt.gz
Dewpoint
48 48 47 46 44 44 42 39 31 43 43 36 33 25 18 28 25 26 26 25 26 31 29 28 29 26 30 30 29 28 31 34 30 27 27 32 30 29 25 25 21 24 31 26
47 47 46 44 45 43 42 35 35 43 42 30 30 23 24 24 23 23 24 25 30 30 33 32 33 27 28 29 29 30 35 32 22 20 29 24 24 31 34 34 32 31 29 25
43 45 45 45 45 44 43 36 31 35 38 36 25 24 24 23 24 24 26 28 30 29 30 30 30 26 25 29 29 33 38 29 27 25 25 26 25 26 28 30 33 30 26 24
44 44 43 45 45 44 43 37 32 32 30 32 29 27 23 22 20 23 26 28 25 27 26 26 28 26 25 28 33 34 35 31 32 29 31 28 30 29 30 29 31 28 25 23
44 44 44 45 46 43 37 34 34 34 31 30 29 28 23 20 21 23 23 22 23 24 16 18 22 25 27 29 31 32 34 31 34 31 33 29 28 30 31 28 26 25 23 23
43 43 43 45 45 41 37 34 34 31 30 29 25 26 23 20 24 24 20 23 24 22 21 22 22 23 25 29 29 29 31 30 29 29 32 29 24 27 30 27 27 26 22 25
44 44 45 45 44 42 41 37 33 29 26 23 21 22 21 22 23 24 26 26 21 27 30 32 33 31 29 30 30 30 28 28 29 29 31 22 29 33 30 27 27 26 26 27
43 43 43 43 43 42 40 38 34 28 29 23 22 22 22 26 27 26 25 25 28 32 28 30 26 28 29 30 30 31 30 30 29 27 24 27 28 27 29 29 25 26 27 27
43 43 43 43 43 42 40 39 40 31 27 24 22 24 24 23 24 26 28 31 34 31 22 27 19 19 19 24 26 30 29 32 31 26 22 21 25 27 30 29 24 25 25 27
42 43 43 44 43 41 40 39 42 35 35 31 27 22 23 25 22 21 26 28 30 31 26 27 22 22 26 22 18 23 24 26 28 26 24 23 24 28 31 25 26 26 23 25
42 43 44 44 43 42 40 39 41 37 35 34 33 31 29 28 23 21 28 28 29 30 25 24 25 27 27 26 24 23 21 24 26 26 25 22 27 31 27 30 29 26 25 25
42 43 44 44 44 43 41 37 39 39 34 34 37 37 36 31 29 29 30 29 30 29 27 28 28 29 31 24 26 27 25 25 24 25 25 29 29 31 31 30 29 26 25 24
43 43 44 44 43 42 42 40 39 36 38 33 31 33 36 36 37 37 29 35 33 33 34 35 34 27 28 27 26 27 27 27 27 26 27 27 28 27 29 30 29 26 24 23
44 45 44 44 42 42 42 40 41 41 35 34 33 36 35 36 37 37 37 36 35 35 33 33 32 30 32 28 28 27 28 28 28 27 27 27 25 27 29 28 26 23 22 22
44 45 44 43 42 42 41 43 40 38 34 32 33 36 36 37 37 35 35 34 32 30 28 32 31 31 30 32 31 29 28 29 30 32 31 29 29 27 27 25 23 22 20 19
45 44 43 40 39 36 38 37 40 40 43 34 30 36 34 35 35 34 34 34 33 31 28 29 30 33 32 30 27 29 29 30 31 32 31 31 29 27 25 23 22 20 19 17
44 42 42 42 42 42 37 37 40 41 41 37 31 30 34 34 33 33 33 34 32 29 29 27 28 32 32 34 28 30 30 31 32 32 29 27 25 24 23 21 20 20 17 16
43 43 43 43 43 42 38 42 42 40 37 34 30 32 32 33 30 31 33 31 31 30 30 32 27 31 33 28 28 28 29 30 30 29 29 27 25 21 20 20 18 17 15 15
41 39 38 39 39 38 38 42 41 43 37 32 34 28 29 33 33 33 33 31 32 31 32 30 30 28 27 25 27 28 29 29 28 27 25 24 22 20 20 19 18 16 16 15
37 35 34 34 39 40 40 38 36 36 35 34 31 32 31 32 32 31 31 33 30 27 29 32 31 29 30 29 29 29 29 29 28 26 24 24 22 20 20 19 19 19 17 16
36 35 33 37 40 38 35 33 32 32 29 31 31 30 31 33 31 30 31 30 31 25 29 29 28 26 28 31 30 30 30 29 28 27 26 25 23 22 21 20 19 19 18 18
35 37 40 40 35 32 30 28 29 26 23 28 31 31 32 34 35 30 32 28 30 21 32 29 25 30 27 30 31 30 30 28 27 27 25 25 23 23 22 20 20 19 19 19
39 35 33 33 31 25 24 22 24 25 30 30 33 33 35 34 35 34 30 29 28 31 29 25 27 26 26 31 31 31 29 28 27 25 25 24 23 22 21 20 20 19 18 16
33 31 25 27 24 26 27 26 28 31 32 32 35 33 34 34 32 33 29 29 29 25 21 20 30 30 29 30 31 30 31 30 29 27 27 27 24 23 23 22 20 18 14 12
30 28 23 25 29 31 32 32 32 31 33 34 33 32 32 31 29 29 27 26 22 22 24 31 33 31 29 30 30 32 31 29 28 27 25 23 20 20 19 18 18 16 12 9
29 27 27 30 30 31 32 33 32 33 34 33 32 28 29 27 27 25 23 19 18 27 33 34 32 30 29 31 30 30 30 28 27 26 23 21 19 18 19 16 16 13 12 11
25 28 31 31 32 32 33 33 33 34 33 33 28 25 22 26 24 22 25 27 31 34 35 34 31 30 30 29 27 25 25 25 25 24 22 21 20 17 14 14 14 13 13 11

GFSNW_sfc_dewp_129.txt.gz
Dewpoint
52 53 52 50 47 46 44 41 31 44 44 34 35 34 31 26 22 27 28 24 24 30 28 27 28 25 29 28 28 28 30 35 31 25 25 28 27 27 30 26 23 27 31 29
49 48 47 46 46 45 42 35 35 43 43 32 32 32 28 22 23 25 26 27 32 33 36 33 36 28 30 30 29 29 33 33 26 25 30 24 23 25 28 30 37 32 30 27
47 47 47 47 46 44 44 37 30 35 36 38 31 29 25 22 23 22 24 27 32 31 34 31 34 30 29 29 30 35 35 28 29 27 28 25 24 24 26 28 31 33 29 26
45 45 45 45 45 45 44 39 33 33 32 35 31 26 25 21 21 23 26 29 27 28 30 27 30 27 27 28 33 33 35 31 32 27 28 26 29 28 30 30 32 30 27 24
44 45 45 45 45 45 42 34 34 30 30 32 29 30 27 22 21 24 24 23 24 22 21 24 24 29 28 29 32 33 35 32 34 32 31 27 29 31 33 28 27 26 24 25
45 44 44 46 45 45 41 42 38 34 35 33 31 32 27 23 25 24 23 22 22 20 18 21 25 27 30 30 29 31 32 32 29 28 32 28 26 29 30 27 26 26 25 26
44 44 45 44 44 43 41 39 40 35 32 31 30 26 25 22 24 23 21 24 23 27 27 30 30 27 27 29 29 30 28 28 28 30 29 23 29 29 27 27 27 27 26 27
43 44 44 44 44 43 39 39 36 31 32 29 25 23 23 23 25 25 25 25 28 29 27 29 28 29 29 28 29 29 29 28 27 26 26 27 28 28 27 28 26 27 28 28
44 43 43 44 44 43 41 39 41 36 30 27 26 24 23 24 25 26 29 31 33 31 21 26 18 18 17 22 26 28 28 30 31 27 22 22 27 27 27 27 25 26 28 28
43 44 44 43 42 42 42 40 46 38 33 26 26 24 25 24 25 23 28 29 28 30 22 25 18 18 19 21 21 26 27 26 26 27 24 25 26 29 30 25 28 27 27 28
42 42 44 43 43 42 41 40 45 38 35 33 31 29 28 25 24 25 28 28 27 26 23 19 21 24 24 25 21 22 21 23 26 26 23 24 28 30 28 31 29 26 26 27
42 43 43 43 43 42 41 36 40 39 33 36 38 37 36 33 30 27 31 26 24 24 22 24 24 28 30 23 26 25 24 25 28 26 27 29 30 33 31 30 28 27 26 25
43 44 43 42 42 44 42 37 39 38 37 31 31 33 37 37 37 38 27 32 33 32 37 33 32 26 25 26 24 27 27 26 28 29 28 27 29 31 30 29 28 26 25 24
45 44 43 42 43 44 43 39 42 36 32 33 31 34 36 36 36 36 37 36 37 36 35 32 31 27 31 26 28 26 28 28 28 28 27 27 28 32 31 28 26 24 23 23
45 44 43 44 44 44 42 40 40 40 33 31 32 35 36 34 34 33 34 34 34 31 29 33 29 28 29 30 30 27 27 30 30 33 31 30 29 30 30 27 24 23 21 20
44 44 41 39 38 40 36 39 40 40 36 32 31 34 34 34 33 32 31 31 31 29 28 29 30 33 33 29 26 30 29 28 31 32 32 33 32 29 27 25 23 21 20 18
44 42 43 43 43 40 35 38 39 41 41 35 31 29 32 32 31 32 31 32 31 28 27 27 27 29 31 33 27 30 30 31 31 31 32 30 28 27 25 23 21 21 18 17
44 44 43 43 43 42 37 38 42 42 34 31 31 31 31 33 29 31 33 30 30 30 29 28 25 29 30 27 27 28 29 30 31 30 29 29 27 25 23 21 20 18 17 16
43 42 41 37 37 37 35 41 42 41 37 33 35 29 30 32 31 32 32 31 33 31 32 28 27 27 26 25 25 27 29 29 29 28 27 27 25 23 22 20 19 17 16 15
39 36 36 35 38 42 41 39 38 38 36 34 32 32 32 31 31 31 31 33 29 27 29 30 30 29 29 25 24 27 29 28 29 28 26 26 24 23 22 21 20 18 17 15
33 38 35 40 40 36 36 35 34 33 30 32 31 31 32 34 32 30 32 30 30 25 29 29 27 25 29 29 28 29 30 29 29 28 28 27 26 24 23 22 21 20 18 17
35 39 40 40 35 35 33 30 30 25 23 30 32 30 30 35 35 30 32 28 30 20 31 30 26 30 27 29 30 30 30 29 28 28 26 27 26 26 24 23 22 21 19 21
39 35 35 36 33 29 28 24 25 28 31 33 34 34 34 35 35 34 31 31 29 31 28 26 27 28 27 30 31 31 31 30 29 27 28 27 26 25 24 23 23 24 22 22
32 33 27 31 28 27 28 26 31 33 33 34 36 34 33 35 33 35 31 30 29 26 24 20 30 32 30 32 32 31 32 34 31 30 30 32 31 31 30 28 26 24 21 20
32 30 25 27 31 32 33 34 33 33 36 36 34 33 33 33 31 31 28 27 24 22 24 33 36 34 31 33 33 36 34 33 33 33 30 28 27 25 25 24 24 22 18 16
30 29 29 32 32 31 33 35 33 35 37 36 32 30 32 29 29 26 26 18 18 28 34 36 35 32 33 34 35 35 34 34 33 32 29 26 24 24 24 23 22 18 16 15
27 30 33 34 35 32 33 35 34 37 35 33 28 29 22 27 25 24 25 28 32 35 37 37 33 32 33 33 33 32 32 32 32 29 27 26 25 24 21 20 20 18 17 16